GEFSMW_con_probscp_042.txt.gz
Probability
0 0 0 0 0 0 0 0 0 0 0 0 0 0 0 0 0 0 0 0 0 0 0 0 0 0 0 0 0 0 0 0 0 0 0 0 0 0 1 2 5 7 8
0 0 0 0 0 0 0 0 0 0 0 0 0 0 0 0 0 0 0 0 0 0 0 0 0 0 0 0 0 0 0 0 0 0 0 0 0 0 0 1 3 5 6
0 0 0 0 0 0 0 0 0 0 0 0 0 0 0 0 0 0 0 0 0 0 0 0 0 0 0 0 0 0 0 0 0 0 0 0 0 0 0 0 1 3 4
0 0 0 0 0 0 0 0 0 0 0 0 0 0 0 0 0 0 0 0 0 0 0 0 0 0 0 0 0 0 0 0 0 0 0 0 0 0 0 0 1 2 2
0 0 0 0 0 0 0 0 0 0 0 0 0 0 0 0 0 0 0 0 0 0 0 0 0 0 0 0 0 0 0 0 0 0 0 0 0 0 0 0 0 1 1
0 0 0 0 0 0 0 0 0 0 0 0 0 0 0 0 0 0 0 0 0 0 0 0 0 0 0 0 0 0 0 0 0 0 0 0 0 0 0 0 0 0 0
0 0 0 0 0 0 0 0 0 0 0 0 0 0 0 0 0 0 0 0 0 0 0 0 0 0 0 0 0 0 0 0 0 0 0 0 0 0 0 0 0 0 0
0 0 0 0 0 0 0 0 0 0 0 0 0 0 0 0 0 0 0 0 0 0 0 0 0 0 0 0 0 0 0 0 0 0 0 0 0 0 0 0 0 0 0
0 0 0 0 0 0 0 0 0 0 0 0 0 0 0 0 0 0 0 0 0 0 0 0 0 0 0 0 0 0 0 0 0 0 0 0 0 0 0 0 0 0 0
0 0 0 0 0 0 0 0 0 0 0 0 0 0 0 0 0 0 0 0 0 0 0 0 0 0 0 0 0 0 0 0 0 0 0 0 0 0 0 0 0 0 0
0 0 0 0 0 0 0 0 0 0 0 0 0 0 0 0 0 0 0 0 0 0 0 0 0 0 0 0 0 0 0 0 0 0 0 0 0 0 0 0 0 0 0
0 0 0 0 0 0 0 0 0 0 0 0 0 0 0 0 0 0 0 0 0 0 0 0 0 0 0 0 0 0 0 0 0 0 0 0 0 0 0 0 0 0 0
0 0 0 0 0 0 0 0 0 0 0 0 0 0 0 0 0 0 0 0 0 0 0 0 0 0 0 0 0 0 0 0 0 0 0 0 0 0 0 0 0 0 0
0 0 0 0 0 0 0 0 0 0 0 0 0 0 0 0 0 0 0 0 0 0 0 0 0 0 0 0 0 0 0 0 0 0 0 0 0 0 0 0 0 0 0
0 0 0 0 0 0 0 0 0 0 0 0 0 0 0 0 0 0 0 0 0 0 0 0 0 0 0 0 0 0 0 0 0 0 0 0 0 0 0 0 0 0 0
0 0 0 0 0 0 0 0 0 0 0 0 0 0 0 0 0 0 0 0 0 0 0 0 0 0 0 0 0 0 0 0 0 0 0 0 0 0 0 0 0 0 0
0 0 0 0 0 0 0 0 0 0 0 0 0 0 0 0 0 0 0 0 0 0 0 0 0 0 0 0 0 0 0 0 0 0 0 0 0 0 0 0 0 0 0
0 0 0 0 0 0 0 0 0 0 0 0 0 0 0 0 0 0 0 0 0 0 0 0 0 0 0 0 0 0 0 0 0 0 0 0 0 0 0 0 0 0 0
0 0 0 0 0 0 0 0 0 0 0 0 0 0 0 0 0 0 0 0 0 0 0 0 0 0 0 0 0 0 0 0 0 0 0 0 0 0 0 0 0 0 0
0 0 0 0 0 0 0 0 0 0 0 0 0 0 0 0 0 0 0 0 0 0 0 0 0 0 0 0 0 0 0 0 0 0 0 0 0 0 0 0 0 0 0
0 0 0 0 0 0 0 0 0 0 0 0 0 0 0 0 0 0 0 0 0 0 0 0 0 0 0 0 0 0 0 0 0 0 0 0 0 0 0 0 0 0 0
0 0 0 0 0 0 0 0 0 0 0 0 0 0 0 0 0 0 0 0 0 0 0 0 0 0 0 0 0 0 0 0 0 0 0 0 0 0 0 0 0 0 0
0 0 0 0 0 0 0 0 0 0 0 0 0 0 0 0 0 0 0 0 0 0 0 0 0 0 0 0 0 0 0 0 0 0 0 0 0 0 0 0 0 0 0
0 0 0 0 0 0 0 0 0 0 0 0 0 0 0 0 0 0 0 0 0 0 0 0 0 0 0 0 0 0 0 0 0 0 0 0 0 0 0 0 0 0 0
0 0 0 0 0 0 0 0 0 0 0 0 0 0 0 0 0 0 0 0 0 0 0 0 0 0 0 0 0 0 0 0 0 0 0 0 0 0 0 0 0 0 0
0 0 0 0 0 0 0 0 0 0 0 0 0 0 0 0 0 0 0 0 0 0 0 0 0 0 0 0 0 0 0 0 0 0 0 0 0 0 0 0 0 0 0

GEFSMW_con_probscp_048.txt.gz
Probability
8 6 2 0 0 0 0 0 0 0 0 0 0 0 0 0 0 0 0 0 0 0 0 0 0 0 0 0 0 0 0 0 0 0 0 0 1 3 5 8 12 14 14
5 3 1 0 0 0 0 0 0 0 0 1 1 0 0 0 0 0 0 0 0 0 0 0 0 0 0 0 0 0 0 0 0 0 0 0 1 2 3 4 7 11 13
1 1 0 0 0 0 0 0 1 2 1 2 1 0 0 0 0 0 0 0 0 0 0 0 0 0 0 0 0 0 0 0 0 0 0 0 0 0 0 1 2 6 10
0 0 0 0 0 0 0 1 4 5 4 2 2 0 0 0 0 0 0 0 0 0 0 0 0 0 0 0 0 0 0 0 0 0 0 0 0 0 0 0 1 3 6
0 0 0 0 0 0 0 3 7 8 5 2 1 0 0 0 0 0 0 0 0 0 0 0 0 0 0 0 0 0 0 0 0 0 0 0 0 0 0 0 0 1 2
0 0 0 0 0 0 0 2 6 7 4 1 1 0 0 0 0 0 0 0 0 0 0 0 0 0 0 0 0 0 0 0 0 0 0 0 0 0 0 0 0 0 1
0 0 0 0 0 0 0 0 2 2 1 0 0 0 0 0 0 0 0 0 0 0 0 0 0 0 0 0 0 0 0 0 0 0 0 0 0 0 0 0 0 0 0
0 0 0 0 0 0 0 0 0 0 0 0 0 0 0 0 0 0 0 0 0 0 0 0 0 0 0 0 0 0 0 0 0 0 0 0 0 0 0 0 0 0 0
0 0 0 0 0 0 0 0 0 0 0 0 0 0 0 0 0 0 0 0 0 0 0 0 0 0 0 0 0 0 0 0 0 0 0 0 0 0 0 0 0 0 0
0 0 0 0 0 0 0 0 0 0 0 0 0 0 0 0 0 0 0 0 0 0 0 0 0 0 0 0 0 0 0 0 0 0 0 0 0 0 0 0 0 0 0
0 0 0 0 0 0 0 0 0 0 0 0 0 0 0 0 0 0 0 0 0 0 0 0 0 0 0 0 0 0 0 0 0 0 0 0 0 0 0 0 0 0 0
0 0 0 0 0 0 0 0 0 0 0 0 0 0 0 0 0 0 0 0 0 0 0 0 0 0 0 0 0 0 0 0 0 0 0 0 0 0 0 0 0 0 0
0 0 0 0 0 0 0 0 0 0 0 0 0 0 0 0 0 0 0 0 0 0 0 0 0 0 0 0 0 0 0 0 0 0 0 0 0 0 0 0 0 0 0
0 0 0 0 0 0 0 0 0 0 0 0 0 0 0 0 0 0 0 0 0 0 0 0 0 0 0 0 0 0 0 0 0 0 0 0 0 0 0 0 0 0 0
0 0 0 0 0 0 0 0 0 0 0 0 0 0 0 0 0 0 0 0 0 0 0 0 0 0 0 0 0 0 0 0 0 0 0 0 0 0 0 0 0 0 0
0 0 0 0 0 0 0 0 0 0 0 0 0 0 0 0 0 0 0 0 0 0 0 0 0 0 0 0 0 0 0 0 0 0 0 0 0 0 0 0 0 0 0
0 0 0 0 0 0 0 0 0 0 0 0 0 0 0 0 0 0 0 0 0 0 0 0 0 0 0 0 0 0 0 0 0 0 0 0 0 0 0 0 0 0 0
0 0 0 0 0 0 1 1 1 0 0 0 0 0 0 0 0 0 0 0 0 0 0 0 0 0 0 0 0 0 0 0 0 0 0 0 0 0 0 0 0 0 0
0 0 0 0 0 1 1 2 1 0 0 0 0 0 0 0 0 0 0 0 0 0 0 0 0 0 0 0 0 0 0 0 0 0 0 0 0 0 0 0 0 0 0
0 0 0 0 1 2 3 2 1 1 0 0 0 0 0 0 0 0 0 0 0 0 0 0 0 0 0 0 0 0 0 0 0 0 0 0 0 0 0 0 0 0 0
0 0 1 1 2 4 6 5 4 2 1 0 0 0 0 0 0 0 0 0 0 0 0 0 0 0 0 0 0 0 0 0 0 0 0 0 0 0 0 0 0 0 0
0 0 1 3 5 8 9 8 6 4 2 1 0 0 0 0 0 0 0 0 0 0 0 0 0 0 0 0 0 0 0 0 0 0 0 0 0 0 0 0 0 0 0
0 0 1 4 9 12 10 8 7 5 3 2 1 0 0 0 0 0 0 0 0 0 0 0 0 0 0 0 0 0 0 0 0 0 0 0 0 0 0 0 0 0 0
0 0 1 4 9 12 10 7 6 6 4 2 1 0 0 0 0 0 0 0 0 0 0 0 0 0 0 0 1 0 0 0 0 0 0 0 0 0 0 0 0 0 0
0 0 0 2 6 10 9 6 6 6 4 2 1 0 0 0 0 0 0 0 0 0 0 0 0 0 0 0 0 0 0 0 0 0 0 0 0 0 0 0 0 0 0
0 0 0 1 4 8 9 7 6 6 5 2 1 0 0 0 0 0 0 0 0 0 0 0 0 0 0 0 0 0 0 0 0 0 0 0 0 0 0 0 0 0 0

GEFSMW_con_probscp_054.txt.gz
Probability
30 26 20 15 11 7 5 3 1 0 0 1 2 2 1 0 0 0 0 0 0 0 0 0 0 0 0 0 0 0 0 0 0 0 0 0 0 0 1 2 3 4 5
20 16 12 10 7 4 2 1 0 1 2 3 3 3 2 1 1 0 0 0 0 0 0 0 0 0 0 0 0 0 0 0 0 0 0 0 0 0 1 2 2 2 3
9 7 4 3 2 1 0 1 3 5 7 7 5 3 2 2 1 0 0 0 0 0 0 0 0 0 0 0 0 0 0 0 0 0 0 0 0 0 0 1 1 1 2
4 3 1 0 0 0 1 6 14 18 18 14 8 3 1 1 1 1 0 0 0 0 0 0 0 0 0 0 0 0 0 0 0 0 0 0 0 0 0 0 0 1 2
2 1 0 0 0 0 4 15 29 35 31 22 13 5 2 0 0 1 0 0 0 0 0 0 0 0 0 0 0 0 0 0 0 0 0 0 0 0 0 0 0 1 1
2 2 1 1 1 1 6 20 39 47 40 29 16 7 3 1 0 0 0 0 0 0 0 0 0 0 0 0 0 0 0 0 0 0 0 0 0 0 0 0 0 0 0
3 3 3 2 2 2 5 20 40 48 42 29 16 8 4 1 0 0 0 0 0 0 0 0 0 0 0 0 0 0 0 0 0 0 0 0 0 0 0 0 0 0 0
4 3 2 1 1 1 5 17 35 44 36 24 14 7 3 1 0 0 0 0 0 0 0 0 0 0 0 0 0 0 0 0 0 0 0 0 0 0 0 0 0 0 0
3 3 1 1 1 2 6 16 29 33 26 17 10 5 2 1 0 0 0 0 0 0 0 0 0 0 0 0 0 0 0 0 0 0 0 0 0 0 0 0 0 0 0
2 2 2 2 1 3 8 15 21 22 17 10 5 2 1 0 0 1 0 0 0 0 0 0 0 0 0 0 0 0 0 0 0 0 0 0 0 0 0 0 0 0 0
1 1 1 3 3 4 6 10 13 12 9 4 1 0 0 0 0 0 0 0 0 0 1 0 0 0 0 0 0 0 0 0 0 0 0 0 0 0 0 0 0 0 0
0 0 1 3 4 3 4 5 6 5 3 1 1 1 1 1 1 1 1 2 2 2 1 1 0 0 0 0 0 0 0 0 0 0 0 0 0 0 0 0 0 0 0
0 1 4 6 6 4 2 2 1 1 0 0 1 2 3 4 5 5 4 6 8 6 3 2 2 1 0 0 0 0 0 0 0 0 0 0 0 0 0 0 0 0 0
1 5 14 18 14 8 3 1 0 0 0 1 2 3 4 6 7 7 7 10 12 10 5 4 4 3 1 0 0 0 0 0 0 0 0 0 0 0 0 0 0 0 0
3 9 23 32 28 17 8 3 1 1 1 2 3 3 5 6 7 7 9 14 16 12 8 6 5 3 1 0 0 0 0 0 0 0 0 0 0 0 0 0 0 0 0
2 9 26 42 45 34 21 13 9 8 8 7 6 5 6 7 7 7 11 16 19 18 16 12 8 3 1 0 0 0 0 0 0 0 0 0 0 0 0 0 0 0 0
1 7 24 48 58 51 40 33 27 23 20 17 12 10 9 9 8 9 13 18 22 24 22 17 11 6 2 0 0 0 0 0 0 0 0 0 0 0 0 0 0 0 0
2 6 18 39 54 57 55 52 44 37 32 27 22 17 14 12 12 14 18 25 29 28 24 18 14 11 5 1 0 0 0 0 0 0 0 0 0 0 0 0 0 0 0
5 7 9 21 42 57 64 64 57 47 40 35 32 27 21 19 20 24 28 33 35 30 21 16 15 14 9 3 0 0 0 0 0 0 0 0 0 0 0 0 0 0 0
16 16 14 21 45 68 76 75 69 60 52 46 42 39 34 32 32 36 40 40 34 24 16 14 15 16 12 4 0 0 0 0 0 0 0 0 0 0 0 0 0 0 0
31 34 38 46 63 82 90 87 82 76 70 62 55 52 47 41 39 45 50 45 32 21 15 15 16 17 13 5 0 0 0 0 0 0 0 0 0 0 0 0 0 0 0
43 48 60 71 80 91 96 94 92 89 84 77 69 63 57 46 41 49 53 46 34 23 17 17 17 18 17 9 2 0 0 0 0 0 0 0 0 0 0 0 0 0 0
44 50 62 74 82 89 94 96 95 94 90 85 80 73 65 57 52 51 48 39 31 23 18 17 18 21 24 19 8 1 0 0 0 0 0 0 0 0 0 0 0 0 0
37 42 50 58 66 74 81 85 87 88 89 87 84 77 68 64 62 56 43 34 28 24 20 20 20 21 24 22 12 3 1 2 2 1 0 0 0 0 0 0 0 0 0
26 29 34 39 43 49 57 63 68 73 78 80 77 69 59 56 59 54 41 30 24 20 17 16 15 14 13 11 6 3 2 3 3 1 0 0 0 0 0 0 0 0 0
18 20 23 26 29 34 41 48 55 62 68 72 70 60 48 48 52 48 36 22 15 12 9 7 7 6 4 1 1 1 2 2 2 1 0 0 0 0 0 0 0 0 0

GEFSMW_con_probscp_060.txt.gz
Probability
10 10 9 7 4 1 0 0 0 0 0 0 0 0 0 0 0 0 0 0 0 0 0 0 0 0 0 0 0 0 0 0 0 0 0 0 0 0 0 0 0 0 0
8 7 6 4 2 0 0 0 0 0 0 0 0 0 0 0 0 0 0 0 0 0 0 0 0 0 0 0 0 0 0 0 0 0 0 0 0 0 0 0 0 0 0
5 4 2 1 0 0 0 0 0 0 0 0 0 0 0 0 0 0 0 0 0 0 0 0 0 0 0 0 0 0 0 0 0 0 0 0 0 0 0 0 0 0 0
2 1 0 0 0 0 0 0 0 0 0 0 0 0 0 0 0 0 0 0 0 0 0 0 0 0 0 0 0 0 0 0 0 0 0 0 0 0 0 0 0 0 0
1 0 0 0 0 0 0 0 0 0 0 0 0 0 0 0 0 0 0 0 0 0 0 0 0 0 0 0 0 0 0 0 0 0 0 0 0 0 0 0 0 0 0
1 0 0 0 0 0 0 0 0 0 0 0 0 0 0 0 0 0 0 0 0 0 0 0 0 0 0 0 0 0 0 0 0 0 0 0 0 0 0 0 0 0 0
0 0 0 0 0 0 0 0 0 0 0 0 0 0 0 0 0 0 0 0 0 0 0 0 0 0 0 0 0 0 0 0 0 0 0 0 0 0 0 0 0 0 0
1 1 1 0 0 0 0 0 0 0 0 0 0 0 0 0 0 0 0 0 0 0 0 0 0 0 0 0 0 0 0 0 0 0 0 0 0 0 0 0 0 0 0
1 2 2 1 0 0 0 0 0 0 0 0 0 0 0 0 0 0 0 0 0 0 0 0 0 0 0 0 0 0 0 0 0 0 0 0 0 0 0 0 0 0 0
0 1 1 1 0 0 0 0 0 0 1 1 1 0 0 0 0 0 0 0 0 0 0 0 0 0 0 0 0 0 0 0 0 0 0 0 0 0 0 0 0 0 0
0 0 0 0 0 0 0 0 0 0 1 2 1 0 0 0 0 0 0 0 0 0 0 0 0 0 0 0 0 0 0 0 0 0 0 0 0 0 0 0 0 0 0
0 0 0 0 0 0 0 0 0 0 1 2 1 0 0 0 0 0 0 0 0 0 0 0 0 0 0 0 0 0 0 0 0 0 0 0 0 0 0 0 0 0 0
0 0 0 0 0 0 0 0 0 0 1 1 0 0 0 0 0 0 0 0 0 0 0 0 0 0 0 0 0 0 0 0 0 0 0 0 0 0 0 0 0 0 0
0 0 0 0 0 0 0 0 0 0 0 0 0 0 0 0 0 0 0 0 0 0 0 0 0 0 0 0 0 0 0 0 0 0 0 0 0 0 0 0 0 0 0
0 0 0 0 0 0 0 0 0 0 0 0 0 0 0 0 0 0 0 0 0 0 0 0 0 0 0 0 0 0 0 0 0 0 0 0 0 0 0 0 0 0 0
0 0 0 0 0 0 0 0 0 0 0 0 0 0 0 0 0 0 0 0 0 0 0 0 0 0 0 0 0 0 0 0 0 0 0 0 0 0 0 0 0 0 0
0 0 0 0 0 0 0 0 0 0 0 0 0 0 0 0 0 0 0 0 0 0 0 0 0 0 0 0 0 0 0 0 0 0 0 0 0 0 0 0 0 0 0
0 0 0 0 0 0 0 0 0 0 0 0 0 0 0 0 0 0 0 0 0 0 0 0 0 0 0 0 0 0 0 0 0 0 0 0 0 0 0 0 0 0 0
0 0 0 0 0 0 0 0 0 0 0 0 0 0 0 0 0 0 0 0 0 0 0 0 0 0 0 0 0 0 0 0 0 0 0 0 0 0 0 0 0 0 0
0 0 0 0 0 0 0 0 0 0 0 0 0 0 0 0 0 0 0 0 0 0 0 0 0 0 0 0 0 0 0 0 0 0 0 0 0 0 0 0 0 0 0
0 0 0 0 1 1 0 0 0 0 0 0 0 0 0 0 0 0 0 0 0 0 0 0 0 0 0 0 0 0 0 0 0 0 0 0 0 0 0 0 0 0 0
0 0 1 1 2 1 0 0 0 1 1 1 1 0 0 0 0 0 0 0 0 0 0 0 0 0 0 0 0 0 0 0 0 0 0 0 0 0 0 0 0 0 0
0 0 1 2 2 1 0 0 0 0 1 1 1 0 0 0 0 0 0 0 0 0 0 0 0 0 0 0 0 0 0 0 0 0 0 0 0 0 0 0 0 0 0
0 0 1 1 1 0 0 0 0 0 0 1 1 0 0 0 0 0 0 0 0 0 0 0 0 0 0 0 0 0 0 0 0 0 0 0 0 0 0 0 0 0 0
0 0 0 0 0 0 0 0 0 0 0 0 0 0 0 0 0 0 0 0 0 0 0 0 0 0 0 0 0 0 0 0 0 0 0 0 0 0 0 0 0 0 0
0 0 0 0 0 0 0 0 0 0 0 0 0 0 0 0 0 0 0 0 0 0 0 0 0 0 0 0 0 0 0 0 0 0 0 0 0 0 0 0 0 0 0

GEFSMW_con_probscp_066.txt.gz
Probability
4 5 6 5 5 3 1 0 0 0 0 0 0 0 0 0 0 0 0 0 0 0 0 0 0 0 0 0 0 0 0 0 0 0 0 0 0 0 0 0 0 0 0
4 4 5 4 4 2 1 0 0 0 0 0 0 0 0 0 0 0 0 0 0 0 0 0 0 0 0 0 0 0 0 0 0 0 0 0 0 0 0 0 0 0 0
4 4 4 4 2 1 0 0 0 0 0 0 0 0 0 0 0 0 0 0 0 0 0 0 0 0 0 0 0 0 0 0 0 0 0 0 0 0 0 0 0 0 0
3 3 3 2 1 0 0 0 0 0 0 0 0 0 0 0 0 0 0 0 0 0 0 0 0 0 0 0 0 0 0 0 0 0 0 0 0 0 0 0 0 0 0
2 1 1 1 0 0 0 0 0 0 0 0 0 0 0 0 0 0 0 0 0 0 0 0 0 0 0 0 0 0 0 0 0 0 0 0 0 0 0 0 0 0 0
1 0 0 0 0 0 0 0 0 0 0 0 0 0 0 0 0 0 0 0 0 0 0 0 0 0 0 0 0 0 0 0 0 0 0 0 0 0 0 0 0 0 0
0 0 0 0 0 0 0 0 0 0 0 0 0 0 0 0 0 0 0 0 0 0 0 0 0 0 0 0 0 0 0 0 0 0 0 0 0 0 0 0 0 0 0
0 0 0 1 1 0 0 0 0 0 0 0 0 0 0 0 0 0 0 0 0 0 0 0 0 0 0 0 0 0 0 0 0 0 0 0 0 0 0 0 0 0 0
0 0 0 1 2 1 1 0 0 0 0 0 0 0 0 0 0 0 0 0 0 0 0 0 0 0 0 0 0 0 0 0 0 0 0 0 0 0 0 0 0 0 0
0 0 0 1 2 2 1 0 0 0 0 0 0 0 0 0 0 0 0 0 0 0 0 0 0 0 0 0 0 0 0 0 0 0 0 0 0 0 0 0 0 0 0
0 0 0 0 1 1 1 0 0 0 0 0 0 0 0 0 0 0 0 0 0 0 0 0 0 0 0 0 0 0 0 0 0 0 0 0 0 0 0 0 0 0 0
0 0 0 0 0 0 0 0 0 0 0 0 0 0 0 0 0 0 0 0 0 0 0 0 0 0 0 0 0 0 0 0 0 0 0 0 0 0 0 0 0 0 0
0 0 0 0 0 0 0 0 0 0 0 0 0 0 0 0 0 0 0 0 0 0 0 0 0 0 0 0 0 0 0 0 0 0 0 0 0 0 0 0 0 0 0
0 0 0 0 0 0 0 0 0 0 0 0 0 0 0 0 0 0 0 0 0 0 0 0 0 0 0 0 0 0 0 0 0 0 0 0 0 0 0 0 0 0 0
0 0 0 0 0 0 0 0 0 0 0 0 0 0 0 0 0 0 0 0 0 0 0 0 0 0 0 0 0 0 0 0 0 0 0 0 0 0 0 0 0 0 0
0 0 0 0 0 0 0 0 0 0 0 0 0 0 0 0 0 0 0 0 0 0 0 0 0 0 0 0 0 0 0 0 0 0 0 0 0 0 0 0 0 0 0
0 0 0 0 0 0 0 0 0 0 0 0 0 0 0 0 0 0 0 0 0 0 0 0 0 0 0 0 0 0 0 0 0 0 0 0 0 0 0 0 0 0 0
0 0 0 0 0 0 0 0 0 0 0 0 0 0 0 0 0 0 0 0 0 0 0 0 0 0 0 0 0 0 0 0 0 0 0 0 0 0 0 0 0 0 0
0 0 0 0 0 0 0 0 0 0 0 0 0 0 0 0 0 0 0 0 0 0 0 0 0 0 0 0 0 0 0 0 0 0 0 0 0 0 0 0 0 0 0
0 0 0 0 0 0 0 0 0 0 0 0 0 0 0 0 0 0 0 0 0 0 0 0 0 0 0 0 0 0 0 0 0 0 0 0 0 0 0 0 0 0 0
0 0 0 0 0 0 0 0 0 0 0 0 0 0 0 0 0 0 0 0 0 0 0 0 0 0 0 0 0 0 0 0 0 0 0 0 0 0 0 0 0 0 0
0 0 0 0 0 0 0 0 0 0 0 0 0 0 0 0 0 0 0 0 0 0 0 0 0 0 0 0 0 0 0 0 0 0 0 0 0 0 0 0 0 0 0
0 0 0 0 0 0 0 0 0 0 0 0 0 0 0 0 0 0 0 0 0 0 0 0 0 0 0 0 0 0 0 0 0 0 0 0 0 0 0 0 0 0 0
0 0 0 0 0 0 0 0 0 0 0 0 0 0 0 0 0 0 0 0 0 0 0 0 0 0 0 0 0 0 0 0 0 0 0 0 0 0 0 0 0 0 0
0 0 0 0 0 0 0 0 0 0 0 0 0 0 0 0 0 0 0 0 0 0 0 0 0 0 0 0 0 0 0 0 0 0 0 0 0 0 0 0 0 0 0
0 0 0 0 0 0 0 0 0 0 0 0 0 0 0 0 0 0 0 0 0 0 0 0 0 0 0 0 0 0 0 0 0 0 0 0 0 0 0 0 0 0 0

GEFSMW_con_probscp_072.txt.gz
Probability
8 9 11 12 11 13 14 11 7 4 2 2 1 1 0 0 0 0 0 0 0 0 0 0 0 0 0 0 0 0 0 0 0 0 0 0 0 0 0 0 0 0 0
9 9 9 9 10 10 10 7 5 3 1 1 1 1 0 0 0 0 0 0 0 0 0 0 0 0 0 0 0 0 0 0 0 0 0 0 0 0 0 0 0 0 0
8 8 7 6 8 7 5 2 2 2 1 0 1 1 0 0 0 0 0 0 0 0 0 0 0 0 0 0 0 0 0 0 0 0 0 0 0 0 0 0 0 0 0
8 8 6 4 4 4 2 0 1 1 0 0 0 0 0 0 0 0 0 0 0 0 0 0 0 0 0 0 0 0 0 0 0 0 0 0 0 0 0 0 0 0 0
6 7 5 2 1 1 0 0 0 0 0 0 0 0 0 0 0 0 0 0 0 0 0 0 0 0 0 0 0 0 0 0 0 0 0 0 0 0 0 0 0 0 0
4 5 4 2 0 0 0 0 0 0 0 0 0 0 0 0 0 0 0 0 0 0 0 0 0 0 0 0 0 0 0 0 0 0 0 0 0 0 0 0 0 0 0
3 5 5 3 1 1 1 1 1 0 0 0 0 0 0 0 0 0 0 0 0 0 0 0 0 0 0 0 0 0 0 0 0 0 0 0 0 0 0 0 0 0 0
2 4 5 3 2 4 4 2 1 0 0 0 1 1 0 0 0 0 0 0 0 0 0 0 0 0 0 0 0 0 0 0 0 0 0 0 0 0 0 0 0 0 0
1 2 3 3 3 5 5 3 1 1 1 1 1 1 1 1 1 0 0 0 0 0 0 0 0 0 0 0 0 0 0 0 0 0 0 0 0 0 0 0 0 0 0
0 0 1 1 2 4 6 5 4 3 2 2 2 2 2 2 2 1 1 1 0 0 0 0 0 0 0 0 0 0 0 0 0 0 0 0 0 0 0 0 0 0 0
0 0 0 0 2 4 6 6 5 4 4 4 5 5 5 5 5 5 4 3 1 0 0 0 0 0 0 0 0 0 0 0 0 0 0 0 0 0 0 0 0 0 0
0 0 0 1 2 3 5 6 6 6 6 7 10 11 11 11 10 11 10 7 3 1 0 0 0 0 0 0 0 0 0 1 1 1 1 1 1 1 1 0 0 0 0
1 1 1 2 2 3 3 5 6 6 8 10 14 19 21 20 18 17 17 13 8 3 0 0 0 0 0 0 2 2 2 3 3 3 3 3 2 2 2 1 1 0 0
3 5 6 6 7 5 4 4 6 8 11 14 20 26 28 27 25 24 23 20 12 5 1 0 0 1 1 2 4 5 5 6 6 6 5 4 4 4 3 3 2 1 1
5 8 11 13 14 12 8 7 10 14 18 21 24 27 29 29 29 28 27 24 17 9 4 2 3 4 3 3 4 6 8 10 12 12 11 9 6 4 3 3 2 2 2
6 9 13 18 20 19 15 14 16 21 27 28 26 26 27 28 28 27 25 25 24 20 16 12 10 8 5 2 2 3 7 14 21 25 24 17 9 5 3 2 1 1 2
13 14 16 20 22 21 20 20 22 25 29 31 30 28 26 27 26 22 23 28 34 36 33 28 22 17 11 4 1 1 4 14 27 36 39 31 18 9 5 4 3 3 2
20 20 18 17 18 19 20 21 21 21 22 25 27 25 21 20 20 18 20 26 34 40 40 36 32 28 20 8 1 0 2 10 22 35 44 47 35 17 8 8 11 11 10
17 16 13 12 13 14 15 16 16 14 14 16 18 16 13 14 15 15 15 20 25 29 30 29 31 32 24 9 1 0 1 6 16 29 39 43 35 17 6 10 18 21 21
9 9 8 9 10 11 13 13 13 12 11 12 12 10 9 11 13 13 12 14 16 16 17 19 22 24 19 9 1 0 0 4 13 27 32 26 17 8 3 9 17 21 21
6 5 6 6 7 8 10 11 11 10 9 8 7 7 6 7 8 10 10 11 11 11 10 11 12 12 10 5 1 0 0 3 10 20 25 18 6 1 1 5 9 11 11
2 2 2 2 3 4 5 5 5 4 3 2 2 2 2 2 3 4 5 5 5 6 6 6 5 4 4 2 1 0 0 1 4 8 13 12 4 0 0 1 2 2 2
0 0 0 0 0 1 1 1 1 0 0 0 0 0 0 0 1 1 1 1 1 2 2 2 1 1 1 1 0 0 0 0 0 1 3 3 1 0 0 0 0 0 0
0 0 0 0 0 0 0 0 0 0 0 0 0 0 0 0 0 0 0 0 0 0 0 0 0 0 0 0 0 0 0 0 0 0 0 0 0 0 0 0 1 2 2
0 0 0 0 0 0 0 0 0 0 0 0 0 0 0 0 0 0 0 0 0 0 0 0 0 0 0 0 0 0 0 0 0 0 0 0 0 0 0 1 3 5 6
0 0 0 0 0 0 0 0 0 0 0 0 0 0 0 0 0 0 0 0 0 0 0 0 0 0 0 0 0 0 0 0 0 0 0 0 0 0 1 2 4 6 8

GEFSMW_con_probscp_078.txt.gz
Probability
34 37 41 42 42 43 42 38 33 28 22 19 15 10 5 4 3 2 1 0 0 0 0 0 0 0 0 0 0 0 0 0 0 0 0 0 0 0 0 0 0 0 0
35 37 39 39 38 39 37 33 29 23 19 16 13 9 5 4 3 1 0 0 0 0 0 0 0 0 0 0 0 0 0 0 0 0 0 0 0 0 0 0 0 0 0
34 34 33 31 29 30 28 26 24 20 16 13 10 7 5 4 2 1 0 0 0 0 0 0 0 0 0 0 0 0 0 0 0 0 0 0 0 0 0 0 0 0 0
32 30 28 24 21 20 20 21 20 18 14 11 8 6 4 3 2 1 0 0 0 0 0 0 0 0 0 0 0 0 0 0 0 0 0 0 0 0 0 0 0 0 0
27 25 23 20 16 13 12 14 15 15 13 10 8 5 3 3 2 1 0 0 0 0 0 0 0 0 0 0 0 0 0 0 0 0 0 0 0 0 0 0 0 0 0
19 19 18 16 12 9 8 10 12 12 10 8 6 4 3 2 2 1 1 1 0 0 0 0 0 0 0 0 0 0 0 0 0 0 0 0 0 0 0 0 0 0 0
12 13 13 11 9 8 9 11 12 11 7 4 4 3 2 2 2 2 2 1 0 0 0 0 0 0 0 0 0 0 0 0 0 0 0 0 0 0 0 0 0 0 0
8 9 10 9 8 9 11 13 14 11 6 3 2 3 2 1 1 1 1 0 0 0 1 0 0 0 0 0 0 0 0 0 0 0 0 0 0 0 0 0 0 0 0
4 6 7 7 7 9 12 14 15 13 9 5 3 3 2 1 0 0 0 0 0 1 1 1 0 0 0 0 0 0 0 0 0 0 0 0 0 0 0 0 0 0 0
2 4 4 4 5 8 13 16 16 15 12 8 6 4 4 3 1 0 1 2 2 3 3 2 0 0 0 0 0 0 0 1 1 1 1 1 1 1 0 0 1 1 1
2 4 6 6 5 7 13 17 17 16 13 11 9 7 7 7 6 4 6 8 9 9 8 5 2 0 0 0 1 1 1 2 3 3 3 2 2 2 1 1 2 2 2
5 8 12 14 11 10 13 17 17 14 13 13 13 13 13 14 15 15 17 20 21 19 15 11 7 3 2 4 5 4 3 4 5 6 6 5 5 5 5 4 4 4 4
9 13 18 22 22 20 21 21 19 16 15 19 23 25 25 25 27 28 31 35 36 33 27 22 18 12 9 10 12 11 10 9 9 10 12 13 15 17 17 14 10 8 6
15 20 28 32 32 34 35 32 27 23 24 29 36 39 40 41 41 42 44 49 51 48 42 38 34 27 20 18 20 21 21 21 21 23 25 27 29 34 35 30 24 19 15
21 29 40 44 43 45 45 40 35 32 33 40 46 49 52 54 55 56 58 61 61 57 54 53 48 40 27 18 21 29 35 41 45 47 48 45 42 41 36 30 27 25 23
30 38 49 54 53 53 50 45 42 40 41 48 54 56 58 61 63 66 69 72 71 67 66 67 63 52 32 15 13 24 39 53 63 68 67 56 41 33 25 17 14 15 17
43 47 53 57 57 55 52 49 46 44 46 52 57 57 58 60 63 67 71 74 74 74 75 78 76 66 43 17 5 10 24 41 56 67 69 57 38 27 26 19 13 12 12
51 51 51 52 51 49 46 45 43 41 43 47 49 50 50 52 55 58 62 66 67 67 70 74 76 71 52 22 4 2 9 23 38 49 55 53 42 31 27 25 24 25 25
49 46 44 41 40 38 35 32 30 27 28 32 34 35 36 39 40 42 47 52 53 52 53 58 61 60 47 22 4 1 5 15 26 33 36 38 34 24 15 13 20 29 36
37 34 30 27 26 26 22 18 15 12 12 14 16 17 19 22 24 27 31 34 35 34 34 37 42 44 34 16 3 0 3 9 15 18 18 15 13 8 3 2 6 16 25
19 18 15 13 13 13 11 8 6 4 3 4 4 5 6 8 11 14 16 16 16 17 18 20 24 27 22 10 2 0 0 2 5 6 6 5 2 0 0 0 1 4 7
7 7 5 4 4 4 4 3 3 1 1 1 1 1 1 2 3 4 4 5 6 6 8 10 12 13 11 6 1 0 0 0 0 0 1 1 1 0 0 0 0 0 0
3 2 1 1 1 1 1 1 1 0 0 0 0 0 0 0 0 0 0 1 2 3 3 4 5 5 4 2 1 0 0 0 0 0 0 0 0 0 0 0 0 0 0
3 1 0 0 0 0 0 0 0 0 0 0 0 0 0 0 0 0 0 0 1 1 1 1 1 1 1 0 0 0 0 0 0 0 0 0 0 0 0 0 0 0 1
3 2 0 0 0 0 0 0 0 0 0 0 0 0 0 0 0 0 0 0 0 0 0 0 0 0 0 0 0 0 0 0 0 0 0 0 0 0 0 0 0 0 1
4 2 1 0 0 0 0 0 0 0 0 0 0 0 0 0 0 0 0 0 0 0 0 0 0 0 0 0 0 0 0 0 0 0 0 0 0 0 0 0 0 0 1

GEFSMW_con_probscp_084.txt.gz
Probability
25 26 24 22 21 19 17 16 16 15 12 9 6 2 0 0 0 0 0 0 0 0 0 0 0 0 0 0 0 0 0 0 0 0 0 0 0 0 0 0 0 0 0
24 22 21 20 20 17 14 13 14 13 11 8 4 1 0 0 0 0 0 0 0 0 0 0 0 0 0 0 0 0 0 0 0 0 0 0 0 0 0 0 0 0 0
22 19 18 18 17 14 10 9 10 11 9 6 2 0 0 0 0 0 0 0 0 0 0 0 0 0 0 0 0 0 0 0 0 0 0 0 0 0 0 0 0 0 0
20 18 18 18 15 11 9 7 7 7 6 4 1 0 0 0 0 0 0 0 0 0 0 0 0 0 0 0 0 0 0 0 0 0 0 0 0 0 0 0 0 0 0
16 16 18 17 13 10 7 5 4 4 4 3 1 0 0 0 0 0 0 0 0 0 0 0 0 0 0 0 0 0 0 0 0 0 0 0 0 0 0 0 0 0 0
12 12 13 12 10 8 5 3 3 3 3 2 1 0 0 0 0 0 0 0 0 0 0 0 0 0 0 0 0 0 0 0 0 0 0 0 0 0 0 0 0 0 0
8 9 9 8 7 6 4 2 1 1 2 1 0 0 0 0 0 0 0 0 0 0 0 0 0 0 0 0 0 0 0 0 0 0 0 0 0 0 0 0 0 0 0
7 7 7 6 6 7 5 2 1 1 1 1 0 0 0 0 0 0 0 0 0 0 0 0 0 0 0 0 0 0 0 0 0 0 0 0 0 0 0 0 0 0 0
6 6 6 5 6 8 7 4 3 3 2 1 0 0 0 0 0 0 0 0 0 0 0 0 0 0 0 0 0 0 0 0 0 0 0 0 0 0 0 0 0 0 0
4 5 4 5 7 8 7 5 4 5 4 2 0 0 0 0 0 0 0 0 0 0 0 0 0 0 0 0 0 0 0 0 0 0 0 0 0 0 0 0 0 0 0
4 4 4 5 6 8 8 7 6 6 5 3 1 0 0 0 0 0 0 0 0 0 0 0 0 0 0 0 0 0 0 0 0 0 0 0 0 0 0 0 0 0 0
2 4 5 5 6 8 10 10 8 6 4 3 2 1 0 0 0 0 0 0 0 0 0 0 0 0 0 0 0 0 0 0 0 0 0 0 0 0 0 0 0 0 0
2 3 4 5 5 7 10 10 9 7 5 4 3 2 0 0 0 0 0 0 0 0 0 0 0 0 0 0 0 0 0 0 0 0 0 0 0 0 0 0 0 0 0
5 4 4 4 5 7 8 8 9 9 8 7 6 4 1 0 0 1 1 1 0 0 0 1 1 0 0 0 0 0 0 0 0 0 0 0 0 0 0 0 0 0 0
6 4 3 4 5 6 7 7 8 9 9 9 8 6 3 2 2 2 3 3 2 2 3 4 4 1 0 0 0 0 0 0 0 0 0 0 0 0 0 0 0 0 0
6 4 3 3 4 5 6 7 7 7 7 7 7 7 5 5 5 4 4 4 5 4 5 7 7 3 1 0 0 0 0 1 0 0 0 0 0 0 0 0 0 0 0
6 4 2 2 2 3 4 5 5 5 5 4 5 5 5 4 4 3 3 4 4 5 5 6 6 4 2 0 0 0 0 0 0 0 0 0 0 0 0 0 0 0 0
5 4 2 2 2 2 2 2 2 2 2 2 2 2 2 1 1 1 1 2 2 3 4 4 3 3 2 1 0 0 0 0 0 0 0 0 0 0 0 0 0 0 0
3 2 1 1 1 1 1 0 0 0 0 0 0 0 0 0 0 0 0 0 1 2 2 2 2 3 3 1 0 0 0 0 0 0 0 0 0 0 0 0 0 0 0
1 1 0 0 0 0 0 0 0 0 0 0 0 0 0 0 0 0 0 0 0 1 1 1 1 1 2 1 0 0 0 0 0 0 0 0 0 0 0 0 0 0 0
0 0 0 0 0 0 0 0 0 0 0 0 0 0 0 0 0 0 0 0 0 0 0 0 0 0 0 0 0 0 0 0 0 0 0 0 0 0 0 0 0 0 0
0 0 0 0 0 0 0 0 0 0 0 0 0 0 0 0 0 0 0 0 0 0 0 0 0 0 0 0 0 0 0 0 0 0 0 0 0 0 0 0 0 0 0
0 0 0 0 0 0 0 0 0 0 0 0 0 0 0 0 0 0 0 0 0 0 0 0 0 0 0 0 0 0 0 0 0 0 0 0 0 0 0 0 0 0 0
0 0 0 0 0 0 0 0 0 0 0 0 0 0 0 0 0 0 0 0 0 0 0 0 0 0 0 0 0 0 0 0 0 0 0 0 0 0 0 0 0 0 0
0 0 0 0 0 0 0 0 0 0 0 0 0 0 0 0 0 0 0 0 0 0 0 0 0 0 0 0 0 0 0 0 0 0 0 0 0 0 0 0 0 0 0
0 0 0 0 0 0 0 0 0 0 0 0 0 0 0 0 0 0 0 0 0 0 0 0 0 0 0 0 0 0 0 0 0 0 0 0 0 0 0 0 0 0 0

GEFSMW_con_probscp_090.txt.gz
Probability
17 17 15 13 13 11 9 8 8 7 6 6 5 3 2 1 0 0 0 0 0 0 0 0 0 0 0 0 0 0 0 0 0 0 0 0 0 0 0 0 0 0 0
16 16 14 12 11 10 9 9 8 8 8 7 5 3 1 0 0 0 0 0 0 0 0 0 0 0 0 0 0 0 0 0 0 0 0 0 0 0 0 0 0 0 0
13 12 12 11 10 9 10 10 9 9 9 8 5 2 0 0 0 0 0 0 0 0 0 0 0 0 0 0 0 0 0 0 0 0 0 0 0 0 0 0 0 0 0
6 6 8 10 10 10 11 12 11 9 7 6 3 1 0 0 0 0 0 0 0 0 0 0 0 0 0 0 0 0 0 0 0 0 0 0 0 0 0 0 0 0 0
2 2 4 7 8 9 10 10 9 6 4 3 1 0 0 0 0 0 0 0 0 0 0 0 0 0 0 0 0 0 0 0 0 0 0 0 0 0 0 0 0 0 0
1 1 2 4 5 6 6 6 5 4 3 2 1 0 0 0 0 0 0 0 0 0 0 0 0 0 0 0 0 0 0 0 0 0 0 0 0 0 0 0 0 0 0
1 0 1 2 3 4 3 2 1 2 1 1 0 0 0 0 0 0 0 0 0 0 0 0 0 0 0 0 0 0 0 0 0 0 0 0 0 0 0 0 0 0 0
0 0 1 2 3 4 4 2 0 0 0 0 0 0 0 0 0 0 0 0 0 0 0 0 0 0 0 0 0 0 0 0 0 0 0 0 0 0 0 0 0 0 0
0 0 1 2 4 5 5 2 0 0 0 0 0 0 0 0 0 0 0 0 0 0 0 0 0 0 0 0 0 0 0 0 0 0 0 0 0 0 0 0 0 0 0
0 0 0 1 3 5 4 2 0 0 0 0 0 0 0 0 0 0 0 0 0 0 0 0 0 0 0 0 0 0 0 0 0 0 0 0 0 0 0 0 0 0 0
0 0 0 0 1 3 3 1 0 0 0 0 0 1 1 0 0 0 0 0 0 0 0 0 0 0 0 0 0 0 0 0 0 0 0 0 0 0 0 0 0 0 0
0 0 0 0 1 2 2 1 0 0 0 0 1 1 1 0 0 0 0 0 0 0 0 0 0 0 0 0 0 0 0 0 0 0 0 0 0 0 0 0 0 0 0
0 0 0 0 0 1 1 1 0 0 1 1 1 0 0 0 0 0 0 0 0 0 0 0 0 0 0 0 0 0 0 0 0 0 0 0 0 0 0 0 0 0 0
0 0 0 0 1 2 3 2 1 1 2 2 1 0 0 0 0 0 0 0 0 0 0 0 0 0 0 0 0 0 0 0 0 0 0 0 0 0 0 0 0 0 0
0 0 0 1 2 3 5 4 2 1 2 2 0 0 0 0 0 0 0 0 0 0 0 0 0 0 0 0 0 0 0 0 0 0 0 0 0 0 0 0 0 0 0
0 0 0 1 2 3 4 4 2 2 3 2 0 0 0 0 0 0 0 0 0 0 0 0 0 0 0 0 0 0 0 0 0 0 0 0 0 0 0 0 0 0 0
1 0 0 1 1 1 1 2 3 3 2 1 0 0 0 0 0 0 0 0 0 0 0 0 0 0 0 0 0 0 0 0 0 0 0 0 0 0 0 0 0 0 0
2 1 0 0 0 0 0 2 3 3 1 0 0 1 0 0 0 0 0 0 0 0 0 0 0 0 0 0 0 0 0 0 0 0 0 0 0 0 0 0 0 0 0
2 1 0 0 0 0 0 1 2 2 1 0 0 0 0 0 0 0 0 0 0 0 0 0 0 0 0 0 0 0 0 0 0 0 0 0 0 0 0 0 0 0 0
1 0 0 0 0 0 0 1 1 1 0 0 0 0 0 0 0 0 0 0 0 0 0 0 0 0 0 0 0 0 0 0 0 0 0 0 0 0 0 0 0 0 0
0 0 0 0 0 0 0 0 0 0 0 0 0 0 0 0 0 0 0 0 0 0 0 0 0 0 0 0 0 0 0 0 0 0 0 0 0 0 0 0 0 0 0
0 0 0 0 0 0 0 0 0 0 0 0 0 0 0 0 0 0 0 0 0 0 0 0 0 0 0 0 0 0 0 0 0 0 0 0 0 0 0 0 0 0 0
0 0 0 0 0 0 0 0 0 0 0 0 0 0 0 0 0 0 0 0 0 0 0 0 0 0 0 0 0 0 0 0 0 0 0 0 0 0 0 0 0 0 0
0 0 0 0 0 0 0 0 0 0 0 0 0 0 0 0 0 0 0 0 0 0 0 0 0 0 0 0 0 0 0 0 0 0 0 0 0 0 0 0 0 0 0
0 0 0 0 0 0 0 0 0 0 0 0 0 0 0 0 0 0 0 0 0 0 0 0 0 0 0 0 0 0 0 0 0 0 0 0 0 0 0 0 0 0 0
0 0 0 0 0 0 0 0 0 0 0 0 0 0 0 0 0 0 0 0 0 0 0 0 0 0 0 0 0 0 0 0 0 0 0 0 0 0 0 0 0 0 0

GEFSMW_con_probscp_096.txt.gz
Probability
18 19 20 18 16 15 14 17 23 28 33 37 38 35 30 24 18 11 6 2 1 0 0 0 0 0 0 0 0 0 0 0 0 0 0 0 0 0 0 0 0 0 0
17 18 19 17 15 15 14 14 17 22 27 31 34 34 30 24 17 12 8 5 2 0 0 0 0 0 0 0 0 0 0 0 0 0 0 0 0 0 0 0 0 0 0
16 17 15 12 11 12 12 11 12 16 20 25 28 27 25 21 16 12 9 7 3 1 0 0 0 0 0 0 0 0 0 0 0 0 0 0 0 0 0 0 0 0 0
12 13 11 7 6 7 9 11 13 16 18 21 22 20 17 15 13 11 10 7 4 1 0 0 0 0 0 0 0 0 0 0 0 0 0 0 0 0 0 0 0 0 0
6 7 6 4 2 3 6 11 16 18 18 18 18 15 13 12 11 10 8 6 4 1 0 0 0 0 0 0 0 0 0 0 0 0 0 0 0 0 0 0 0 0 0
1 2 3 2 1 1 5 10 16 18 16 14 14 13 11 9 9 7 5 4 3 1 0 0 0 0 0 0 0 0 0 0 0 0 0 0 0 0 0 0 0 0 0
1 2 3 2 2 2 3 8 14 16 14 13 13 12 10 8 6 4 3 3 2 1 0 0 0 0 0 0 0 0 0 0 0 0 0 0 0 0 0 0 0 0 0
0 1 2 3 3 2 3 6 11 13 13 13 12 11 10 8 5 3 1 2 2 1 0 0 0 0 0 0 0 0 0 0 0 0 0 0 0 0 0 0 0 0 0
1 0 1 3 3 2 2 5 8 9 11 12 11 10 9 8 4 1 0 1 1 0 0 0 0 0 0 0 0 0 0 0 0 0 0 0 0 0 0 0 0 0 0
2 1 1 2 1 1 1 3 5 7 8 9 9 9 8 6 4 2 1 1 1 1 1 0 0 0 0 0 0 0 0 0 0 0 0 0 0 0 0 0 0 0 0
4 3 1 0 0 0 0 1 2 4 5 5 7 9 8 6 5 5 3 2 2 2 2 1 0 0 0 0 0 0 0 0 0 0 0 0 0 0 0 0 0 0 0
5 3 1 1 1 1 0 0 1 2 3 3 4 6 8 7 7 7 4 3 3 3 3 1 1 1 0 0 0 0 0 0 0 0 0 0 0 0 0 0 0 1 1
7 5 3 2 2 2 2 1 2 2 3 4 4 5 6 7 7 6 5 5 5 5 4 3 2 1 0 0 0 0 1 1 1 1 1 0 0 1 2 2 3 4 4
12 10 7 6 6 6 6 5 5 6 6 5 5 6 7 8 8 7 7 7 7 6 5 4 3 2 1 1 1 1 2 2 2 3 3 2 1 3 3 4 7 10 11
17 14 11 10 10 10 11 11 12 11 9 6 6 7 8 10 9 8 8 9 8 6 5 5 4 3 2 2 2 2 4 4 5 6 6 4 2 2 2 3 7 11 14
21 19 17 15 13 12 14 17 18 17 13 10 9 8 8 9 10 9 9 10 9 7 5 5 4 3 1 1 1 2 4 5 6 8 7 3 1 0 0 1 3 6 8
23 24 23 21 18 15 16 19 21 22 20 17 13 11 10 11 10 9 10 12 11 7 5 5 4 3 1 0 0 0 1 3 5 6 5 3 1 0 0 1 1 2 3
25 25 24 23 21 18 19 21 22 22 23 20 16 13 13 13 12 11 11 12 10 6 4 4 4 4 2 0 0 0 0 1 1 2 3 3 2 1 0 1 2 2 2
27 26 24 23 23 23 25 26 23 20 18 17 15 13 13 12 11 10 9 8 6 4 2 2 3 2 1 0 0 0 0 0 0 1 2 3 2 1 0 1 2 2 2
29 28 27 26 28 29 29 27 22 17 13 11 11 11 10 8 7 7 5 4 3 2 1 1 0 0 0 0 0 0 1 1 1 1 2 1 1 0 0 0 1 2 2
25 26 27 27 28 28 25 21 16 13 9 7 7 8 6 4 3 3 2 1 1 1 1 0 0 0 0 0 0 0 1 1 2 1 1 0 0 0 0 0 1 2 2
16 17 19 18 17 17 16 13 10 8 6 4 4 4 2 1 1 1 0 0 0 0 0 0 0 0 0 0 0 0 0 1 1 1 0 0 0 0 0 0 0 1 1
6 6 7 7 6 7 7 6 5 4 3 2 1 1 0 0 0 0 0 0 0 0 0 0 0 0 0 0 0 0 0 0 0 0 0 0 0 0 0 0 0 0 0
1 1 1 1 1 1 2 1 1 1 1 0 0 0 0 0 0 0 0 0 0 0 0 0 0 0 0 0 0 0 0 0 0 0 0 0 0 0 0 0 0 0 0
0 0 0 0 0 0 0 0 0 0 0 0 0 0 0 0 0 0 0 0 0 0 0 0 0 0 0 0 0 0 0 0 0 0 0 0 0 0 0 0 0 0 0
0 0 0 0 0 0 0 0 0 0 0 0 0 0 0 0 0 0 0 0 0 0 0 0 0 0 0 0 0 0 0 0 0 0 0 0 0 0 0 0 0 0 0

GEFSMW_con_probscp_102.txt.gz
Probability
68 67 61 53 51 51 48 46 45 42 41 44 47 49 50 45 39 35 29 21 16 12 7 4 2 0 0 1 1 1 0 0 0 0 0 0 0 0 0 0 0 1 1
65 65 60 53 48 47 44 42 41 39 38 40 43 46 47 42 38 35 29 21 16 13 8 5 3 1 0 0 0 0 0 0 0 0 0 0 0 0 0 0 0 0 1
60 62 60 53 46 40 38 37 36 34 33 33 36 38 40 38 36 33 28 21 17 14 11 7 4 2 1 1 1 0 0 0 0 0 0 0 0 0 0 0 0 0 0
53 55 56 52 45 36 32 32 32 30 29 29 29 30 31 31 31 30 25 20 17 15 13 10 7 5 4 3 2 1 0 0 0 0 0 0 0 0 0 0 0 0 0
42 46 49 49 44 35 29 29 30 30 29 26 24 25 25 26 27 26 22 17 15 13 11 10 9 8 6 5 3 2 1 0 0 0 0 0 0 0 0 0 0 0 0
33 36 40 43 40 31 24 24 28 30 28 25 21 21 22 24 25 24 19 13 10 9 8 8 8 8 7 5 4 3 2 1 0 0 0 0 0 0 0 0 0 0 0
24 25 29 32 31 24 18 19 24 26 26 24 20 19 20 21 22 21 16 9 5 6 7 7 7 7 6 4 3 3 2 1 0 0 0 0 0 0 0 0 0 0 0
16 18 20 20 20 18 14 14 18 22 23 22 21 18 17 18 17 17 12 7 4 5 8 9 7 6 4 3 3 2 2 1 0 0 0 0 0 0 0 0 0 0 0
13 15 15 14 13 14 14 13 16 20 21 20 18 16 14 13 13 12 9 7 5 6 9 10 8 6 4 4 3 2 1 0 0 0 0 0 0 0 0 0 0 0 0
14 15 14 11 10 11 12 12 13 16 17 15 14 12 12 11 11 11 10 8 8 9 11 11 10 8 5 4 4 3 2 1 1 1 0 0 0 1 1 0 0 0 0
17 18 15 10 9 9 9 9 9 10 11 10 9 9 10 10 11 12 12 13 12 13 12 12 12 9 6 5 5 3 2 1 1 1 0 0 1 2 2 1 1 1 1
20 21 18 12 8 8 8 8 7 7 7 6 5 7 9 10 11 13 15 15 15 14 13 12 11 8 7 8 7 3 1 1 1 1 1 2 3 5 4 3 2 2 2
25 26 23 17 12 10 10 10 8 7 6 5 5 7 10 12 13 15 15 15 14 11 9 10 9 7 6 8 7 3 2 3 3 3 4 4 6 7 7 5 5 5 4
38 35 32 27 20 16 15 14 12 10 8 8 9 12 13 15 17 17 15 13 11 7 5 6 6 5 4 5 4 3 3 5 5 4 4 4 4 6 6 6 6 6 6
49 49 46 41 33 27 23 20 18 16 15 15 15 16 17 18 20 19 16 13 9 6 5 5 4 3 2 2 2 4 6 6 5 4 2 1 1 2 3 3 4 4 5
58 61 60 53 45 39 33 29 25 25 25 23 21 20 20 21 22 21 19 16 11 9 8 6 5 3 1 0 1 4 6 6 4 4 3 1 0 0 0 0 1 1 1
65 68 68 64 55 46 39 34 30 30 30 27 24 23 23 23 23 22 22 19 15 12 10 8 6 3 1 0 0 1 3 3 3 3 3 2 1 1 1 0 0 0 0
73 74 74 72 64 52 44 39 34 33 31 28 26 25 25 24 23 22 22 20 16 12 11 9 7 3 1 0 0 0 0 0 0 1 2 2 2 1 0 0 0 0 0
76 76 75 74 69 61 54 48 42 37 32 28 26 25 24 23 21 19 18 17 14 11 9 7 4 2 0 0 0 0 0 0 0 0 1 1 1 0 0 0 0 0 0
70 69 68 68 67 65 62 55 48 40 33 29 25 23 22 20 18 16 14 12 10 7 5 3 2 0 0 0 0 0 0 0 0 0 0 0 0 0 0 0 0 0 0
59 59 58 56 57 58 56 50 42 36 31 27 24 21 18 16 14 13 12 9 6 3 1 0 0 0 0 0 0 0 0 0 0 0 0 0 0 0 0 0 0 0 0
42 44 44 43 44 45 43 38 32 29 25 21 18 15 12 10 9 8 7 5 3 1 0 0 0 0 0 0 0 0 0 0 0 0 0 0 0 0 0 0 0 0 0
24 26 28 29 30 31 29 26 23 20 17 13 9 6 5 3 3 3 2 1 1 0 0 0 0 0 0 0 0 0 0 0 0 0 0 0 0 0 0 0 0 0 0
12 13 14 14 14 15 15 14 11 9 8 5 3 1 1 0 1 1 0 0 0 0 0 0 0 0 0 0 0 0 0 0 0 0 0 0 0 0 0 0 0 0 0
8 7 6 4 3 3 4 4 2 2 1 1 0 0 0 0 0 0 0 0 0 0 0 0 0 0 0 0 0 0 0 0 0 0 0 0 0 0 0 0 0 0 0
5 5 2 1 0 0 0 0 0 0 0 0 0 0 0 0 0 0 0 0 0 0 0 0 0 0 0 0 0 0 0 0 0 0 0 0 0 0 0 0 0 0 0

GEFSMW_con_probscp_108.txt.gz
Probability
50 45 39 37 35 33 31 29 24 19 17 18 19 18 19 15 9 8 10 9 7 5 2 0 0 0 0 0 0 0 0 0 0 0 0 0 0 0 0 0 0 0 0
51 46 41 37 34 31 28 24 20 17 15 16 14 13 13 12 8 7 8 8 8 6 3 1 0 0 0 0 0 0 0 0 0 0 0 0 0 0 0 0 0 0 0
48 44 40 35 29 26 23 19 15 14 13 12 10 8 7 7 6 5 6 6 8 6 3 1 0 0 0 0 0 0 0 0 0 0 0 0 0 0 0 0 0 0 0
43 38 35 31 25 22 20 18 14 12 11 10 9 7 5 4 4 5 5 6 6 5 3 1 1 0 0 0 0 0 0 0 0 0 0 0 0 0 0 0 0 0 0
36 32 29 27 24 22 21 19 15 11 9 8 8 6 5 4 4 4 6 6 5 4 3 3 2 1 0 0 0 0 0 0 0 0 0 0 0 0 0 0 0 0 0
27 27 26 24 21 21 21 18 14 10 8 7 6 5 4 4 4 4 6 6 5 3 3 3 2 1 0 0 0 0 0 0 0 0 0 0 0 0 0 0 0 0 0
20 22 23 19 15 15 16 15 10 7 6 6 6 5 4 4 4 4 6 6 5 3 3 3 2 1 0 0 0 0 0 0 0 0 0 0 0 0 0 0 0 0 0
14 17 18 15 10 10 10 9 7 5 5 6 6 5 4 4 3 4 5 5 3 2 2 2 2 1 0 0 0 0 0 0 0 0 0 0 0 0 0 0 0 0 0
9 11 11 9 8 7 7 7 6 5 6 6 6 5 4 3 3 3 4 4 2 0 1 1 1 0 0 0 0 0 0 0 0 0 0 0 0 0 0 0 0 0 0
8 7 5 4 4 6 8 9 7 7 7 6 6 5 4 3 3 3 2 1 0 0 0 0 0 0 0 0 0 0 0 0 0 0 0 0 0 0 0 0 0 0 0
8 6 2 2 3 5 8 9 8 7 7 6 6 5 4 3 3 3 1 0 0 0 0 0 0 0 0 0 0 0 0 0 0 0 0 0 0 0 0 0 0 0 0
7 6 3 2 2 3 6 8 7 6 6 6 5 5 4 3 3 2 1 0 0 0 0 0 0 0 0 0 0 0 0 0 0 0 0 0 0 0 0 0 0 0 0
8 8 7 4 2 2 3 5 5 5 5 5 4 4 4 4 2 1 0 0 0 0 0 0 0 0 0 0 0 0 0 0 0 0 0 0 0 0 0 0 0 0 0
10 11 10 7 5 3 4 4 4 5 5 5 4 4 5 5 3 1 0 0 0 0 0 0 0 0 0 0 0 0 0 0 0 0 0 0 0 0 0 0 0 0 0
12 12 12 10 8 7 7 6 4 5 5 4 3 3 4 5 4 2 1 1 0 0 0 0 0 0 0 0 0 0 0 0 0 0 0 0 0 0 0 0 0 0 0
15 13 12 11 9 9 9 7 5 4 4 3 3 3 4 4 4 3 3 2 1 0 0 0 0 0 0 0 0 0 0 0 0 0 0 0 0 0 0 0 0 0 0
19 15 12 11 10 10 9 7 5 5 4 4 4 4 4 5 4 3 3 2 1 0 0 0 0 0 0 0 0 0 0 0 0 0 0 0 0 0 0 0 0 0 0
19 15 13 13 12 12 11 9 7 6 5 6 6 6 6 6 5 4 3 2 1 0 0 0 0 0 0 0 0 0 0 0 0 0 0 0 0 0 0 0 0 0 0
16 15 15 17 16 15 14 13 10 9 9 9 10 9 8 6 4 3 3 2 1 0 0 0 0 0 0 0 0 0 0 0 0 0 0 0 0 0 0 0 0 0 0
16 17 19 21 20 16 16 15 14 12 11 11 11 10 8 5 3 3 3 2 1 0 0 0 0 0 0 0 0 0 0 0 0 0 0 0 0 0 0 0 0 0 0
12 15 17 18 17 15 15 15 13 12 11 10 8 6 4 3 2 2 1 1 0 0 0 0 0 0 0 0 0 0 0 0 0 0 0 0 0 0 0 0 0 0 0
6 8 11 12 12 12 12 11 10 9 7 6 3 1 1 1 1 1 0 0 0 0 0 0 0 0 0 0 0 0 0 0 0 0 0 0 0 0 0 0 0 0 0
5 6 8 8 7 8 8 8 6 4 3 2 1 0 0 0 0 0 0 0 0 0 0 0 0 0 0 0 0 0 0 0 0 0 0 0 0 0 0 0 0 0 0
6 6 6 5 4 4 5 4 2 1 0 0 0 0 0 0 0 0 0 0 0 0 0 0 0 0 0 0 0 0 0 0 0 0 0 0 0 0 0 0 0 0 0
3 3 2 1 1 1 1 1 0 0 0 0 0 0 0 0 0 0 0 0 0 0 0 0 0 0 0 0 0 0 0 0 0 0 0 0 0 0 0 0 0 0 0
1 1 0 0 0 0 0 0 0 0 0 0 0 0 0 0 0 0 0 0 0 0 0 0 0 0 0 0 0 0 0 0 0 0 0 0 0 0 0 0 0 0 0

GEFSMW_con_probscp_114.txt.gz
Probability
14 23 35 39 35 29 22 16 13 12 8 6 6 6 6 3 1 1 1 1 1 1 0 0 0 0 0 0 0 0 0 0 0 0 0 0 0 0 0 0 0 0 0
15 23 33 37 34 29 22 17 15 13 10 6 6 6 5 3 1 0 0 1 1 2 1 0 0 0 0 0 0 0 0 0 0 0 0 0 0 0 0 0 0 0 0
18 22 30 33 31 26 22 20 17 14 11 8 6 5 3 2 1 0 0 0 2 4 3 1 0 0 0 0 0 0 0 0 0 0 0 0 0 0 0 0 0 0 0
19 22 24 26 25 21 19 20 18 15 11 9 6 3 2 2 2 1 0 0 2 3 3 1 0 0 0 0 0 0 0 0 0 0 0 0 0 0 0 0 0 0 0
18 18 16 16 17 15 14 16 16 14 10 8 5 3 3 3 3 2 1 1 1 2 3 3 1 0 0 0 0 0 0 0 0 0 0 0 0 0 0 0 0 0 0
12 11 9 8 10 11 10 10 11 11 9 7 4 3 3 3 3 3 3 2 2 2 3 4 3 1 0 0 0 0 0 0 0 0 0 0 0 0 0 0 0 0 0
7 8 7 6 7 8 8 7 7 8 7 5 3 3 3 3 3 3 3 3 3 3 4 4 3 2 1 0 0 0 0 0 0 0 0 0 0 0 0 0 0 0 0
7 9 8 5 5 6 6 5 5 5 5 4 3 3 3 3 2 2 2 3 3 4 4 4 4 3 2 1 0 0 0 0 0 0 0 0 0 0 0 0 0 0 0
6 9 9 6 3 3 4 4 5 4 4 3 3 3 3 1 1 1 1 1 2 3 4 4 3 2 2 1 0 0 0 0 0 0 0 0 0 0 0 0 0 0 0
6 9 10 7 4 2 2 3 5 6 5 4 3 3 3 1 0 0 0 0 1 2 2 2 1 1 1 0 0 0 0 0 0 0 0 0 0 0 0 0 0 0 0
6 7 8 7 4 2 2 3 5 6 4 3 3 3 3 2 0 0 0 0 0 1 1 1 0 0 0 0 0 0 0 0 0 0 0 0 0 0 0 0 0 0 0
3 4 5 5 3 3 3 3 4 5 4 3 2 2 2 2 0 0 0 0 0 0 0 0 0 0 0 0 0 0 0 0 0 0 0 0 0 0 0 0 0 0 0
0 1 2 2 2 3 4 3 3 3 2 1 1 1 2 2 1 1 0 0 0 0 0 0 0 0 0 0 0 0 0 0 0 0 0 0 0 0 0 0 0 0 0
0 1 1 1 2 2 3 3 3 1 1 0 1 1 2 3 3 2 1 1 0 0 0 0 0 0 0 0 0 0 0 0 0 0 0 0 0 0 0 0 0 0 0
1 2 1 1 1 2 3 3 2 1 0 0 1 2 2 3 3 3 3 2 1 0 0 0 0 0 0 0 0 0 0 0 0 0 0 0 0 0 0 0 0 0 0
2 2 1 0 1 2 3 2 1 0 0 0 1 1 2 3 3 3 3 3 2 1 0 0 0 0 0 0 0 0 0 0 0 0 0 0 0 0 0 0 0 0 0
2 1 0 1 2 3 3 3 2 1 0 0 0 0 1 1 3 3 3 3 3 2 1 0 0 0 0 0 0 0 0 0 0 0 0 0 0 0 0 0 0 0 0
2 1 1 1 2 2 4 4 3 1 1 0 0 0 0 1 2 3 3 3 3 3 1 1 0 0 0 0 0 0 0 0 0 0 0 0 0 0 0 0 0 0 0
2 3 3 3 2 2 3 4 4 3 3 1 1 0 0 0 1 2 3 3 3 3 3 2 1 0 0 0 0 0 0 0 0 0 0 0 0 0 0 0 0 0 0
2 3 3 3 2 2 3 4 4 4 3 2 1 0 0 0 0 1 3 3 3 3 3 2 1 0 0 0 0 0 0 0 0 0 0 0 0 0 0 0 0 0 0
2 3 3 1 1 1 3 4 3 2 1 1 1 0 0 0 0 1 2 2 2 2 2 1 0 0 0 0 0 0 0 0 0 0 0 0 0 0 0 0 0 0 0
1 2 2 1 0 1 3 3 2 1 0 0 1 0 0 0 0 0 1 1 1 1 1 0 0 0 0 0 0 0 0 0 0 0 0 0 0 0 0 0 0 0 0
0 1 1 0 0 1 2 3 2 1 0 0 0 0 0 0 0 0 0 0 0 0 0 0 0 0 0 0 0 0 0 0 0 0 0 0 0 0 0 0 0 0 0
0 0 0 0 0 0 1 2 2 1 0 0 0 0 0 0 0 0 0 0 0 0 0 0 0 0 0 0 0 0 0 0 0 0 0 0 0 0 0 0 0 0 0
0 0 0 0 0 0 0 1 1 0 0 0 0 0 0 0 0 0 0 0 0 0 0 0 0 0 0 0 0 0 0 0 0 0 0 0 0 0 0 0 0 0 0
0 0 0 0 0 0 0 0 0 0 0 0 0 0 0 0 0 0 0 0 0 0 0 0 0 0 0 0 0 0 0 0 0 0 0 0 0 0 0 0 0 0 0

GEFSMW_con_probscp_120.txt.gz
Probability
26 27 30 31 32 33 35 35 32 32 33 31 27 20 14 16 16 11 6 4 2 2 2 3 4 3 2 1 1 1 0 0 0 0 0 0 0 0 0 0 0 0 0
26 29 32 32 33 35 34 31 30 30 30 27 23 19 16 16 16 13 9 6 4 3 3 3 4 4 3 2 2 2 1 0 0 0 0 0 0 0 0 0 0 0 0
23 27 30 29 30 31 29 25 25 26 25 22 18 15 13 12 11 12 10 7 5 4 3 4 5 6 5 4 4 3 3 2 1 0 0 0 0 0 0 0 0 0 0
20 23 26 26 24 23 21 19 21 21 20 18 14 10 8 7 7 10 10 7 4 4 5 6 7 7 7 7 6 5 6 7 5 2 1 1 0 0 0 0 0 0 0
18 19 22 23 21 18 16 16 17 17 15 14 13 10 8 7 7 9 8 5 4 4 6 8 9 9 9 10 10 9 9 9 8 5 3 2 0 0 0 0 0 0 0
16 17 19 20 19 16 14 14 15 15 13 11 10 9 8 7 7 7 6 4 4 5 6 8 10 11 10 11 12 12 9 9 8 7 5 3 1 1 2 1 0 0 0
15 16 18 17 15 14 13 13 14 14 12 9 7 6 6 5 5 5 6 6 6 6 5 8 12 13 11 10 11 12 10 9 8 6 6 5 3 3 3 2 0 0 0
12 15 17 16 13 13 12 12 13 13 11 8 6 6 5 4 4 6 7 9 8 6 5 7 11 12 11 9 9 11 11 9 7 6 7 8 7 5 3 2 1 0 0
7 11 15 16 15 14 12 11 13 13 10 7 6 5 4 3 5 7 9 9 7 5 4 6 7 9 9 10 10 11 10 9 7 6 7 8 8 6 4 3 3 2 1
4 9 14 16 16 16 13 12 12 12 8 5 4 3 2 2 4 5 6 7 5 3 3 4 5 6 7 10 12 11 9 6 6 6 6 6 6 5 5 5 5 4 3
6 11 15 15 15 15 13 11 10 8 5 4 3 3 2 1 1 2 3 4 4 3 3 3 4 5 6 8 9 8 5 3 3 4 3 3 3 4 4 4 4 5 5
11 14 15 13 12 11 9 8 7 5 3 3 4 3 2 2 1 1 1 2 4 4 3 3 3 5 6 6 6 5 2 1 2 2 1 1 1 2 3 3 4 4 4
13 14 13 11 9 8 7 7 6 5 4 5 4 2 2 3 3 2 2 3 4 4 3 4 5 6 6 6 6 4 2 1 2 2 1 0 0 1 2 2 4 4 3
11 11 11 9 7 6 7 7 7 7 6 5 3 2 3 5 5 4 5 6 5 4 3 4 5 5 4 4 5 4 3 2 1 1 1 0 0 0 0 1 3 3 3
8 9 9 9 8 8 7 7 6 7 6 5 3 2 3 5 6 5 5 5 4 3 3 3 3 2 1 1 3 3 3 2 1 1 0 0 0 0 0 0 1 2 2
11 11 11 12 12 12 9 6 5 5 4 3 1 1 2 3 3 3 3 4 4 4 4 4 3 3 1 0 1 2 3 3 3 2 1 0 0 0 0 0 0 1 1
15 15 16 16 15 12 9 7 5 5 4 2 2 2 2 2 3 3 5 6 6 6 6 6 6 5 3 1 0 1 2 3 3 3 2 1 0 0 0 0 0 0 0
19 18 17 16 14 11 9 9 9 8 7 6 7 7 6 5 6 7 8 9 8 7 7 7 6 5 3 1 0 0 1 1 2 2 2 1 0 0 0 0 0 0 0
23 21 17 15 15 14 13 13 14 14 12 10 11 12 11 11 11 12 12 9 7 5 4 4 4 3 3 2 1 0 0 0 1 1 1 1 0 0 0 0 0 0 0
25 22 17 14 17 18 18 18 18 18 15 13 14 15 16 15 15 15 12 8 5 3 2 2 2 2 2 2 1 0 0 0 0 0 1 1 0 0 0 0 0 0 0
20 19 16 16 19 21 21 21 21 20 17 15 15 16 17 16 14 13 10 6 4 2 1 1 1 1 1 1 0 0 0 0 0 0 1 1 0 0 0 0 0 0 0
14 14 15 17 19 21 20 20 22 22 20 17 17 17 17 14 12 10 7 4 2 1 0 0 0 0 0 0 0 0 0 0 0 0 0 0 0 0 0 0 0 0 0
11 10 11 13 15 16 16 18 20 20 21 20 18 16 15 11 8 6 4 2 1 0 0 0 0 0 0 0 0 0 0 0 0 0 0 0 0 0 0 0 0 0 0
8 7 7 7 9 11 12 13 14 15 15 16 14 11 8 6 3 2 1 0 0 0 0 0 0 0 0 0 0 0 0 0 0 0 0 0 0 0 0 0 0 0 0
3 3 3 3 5 8 8 7 7 7 7 8 7 5 3 2 1 0 0 0 0 0 0 0 0 0 0 0 0 0 0 0 0 0 0 0 0 0 0 0 0 0 0
0 1 1 1 3 6 6 3 2 2 3 2 2 2 2 1 0 0 0 0 0 0 0 0 0 0 0 0 0 0 0 0 0 0 0 0 0 0 0 0 0 0 0

GEFSMW_con_probscp_126.txt.gz
Probability
70 73 74 73 72 71 67 62 57 52 43 35 33 31 29 31 31 31 32 31 29 26 20 16 18 17 13 12 11 9 7 5 3 2 1 0 1 4 4 2 0 0 0
71 72 71 69 68 68 66 61 57 52 44 37 33 30 28 27 24 26 31 31 29 26 22 21 23 20 16 15 14 11 8 6 4 3 3 1 1 3 4 3 1 1 1
70 70 68 64 63 64 64 60 56 51 43 37 31 27 25 21 17 21 27 28 26 25 25 25 26 23 19 17 15 13 10 7 6 6 6 3 1 2 3 4 3 3 4
65 67 66 61 59 58 59 59 56 49 41 35 30 25 19 15 13 17 23 23 22 23 25 24 25 25 22 17 14 13 13 10 7 8 9 6 3 3 3 3 3 4 5
57 62 63 59 55 52 51 54 54 49 40 34 31 26 18 12 11 16 20 19 18 20 21 22 24 25 23 17 14 15 16 13 9 8 9 9 7 5 2 1 2 3 4
51 56 58 56 53 48 46 47 49 46 39 33 31 28 22 15 14 16 17 15 15 17 18 20 23 24 21 16 14 16 16 14 10 7 7 9 8 6 4 2 2 3 3
48 52 54 53 51 47 44 44 43 41 38 35 33 31 25 18 15 15 14 12 11 14 16 19 22 21 17 16 16 16 15 13 9 6 6 6 6 5 4 4 4 3 3
43 48 51 50 47 42 39 40 40 38 36 35 33 31 25 17 13 13 12 10 10 12 17 23 23 19 16 18 20 18 15 14 12 9 8 6 4 3 3 5 4 3 2
35 41 44 43 38 34 33 35 37 36 32 30 29 27 23 17 14 12 10 8 9 13 21 27 26 21 18 19 21 20 17 17 17 15 12 8 4 3 3 4 5 4 2
29 33 38 36 32 29 29 30 32 31 27 24 23 22 21 18 15 11 9 8 9 14 23 27 24 21 19 18 18 17 16 18 19 17 14 10 7 6 5 5 7 7 4
27 30 33 33 30 27 25 24 24 23 21 21 21 20 20 18 15 12 10 9 11 15 21 23 20 17 15 14 12 11 12 13 14 14 12 9 9 9 9 9 10 9 7
28 30 31 31 29 25 22 21 19 18 19 19 21 21 21 19 17 14 13 12 12 14 17 18 17 13 11 9 8 7 7 8 10 11 9 7 7 8 9 10 9 8 6
30 30 33 33 31 28 24 21 19 19 19 20 21 21 19 18 17 16 15 15 14 12 13 15 14 11 8 7 6 5 5 6 7 8 6 5 4 4 5 6 5 3 2
34 35 38 38 37 35 29 23 20 20 21 21 21 19 16 14 15 16 16 16 14 11 11 12 12 10 8 7 7 6 6 6 5 5 4 3 3 3 3 2 1 0 0
40 40 41 42 41 38 33 27 24 23 22 20 18 17 15 12 12 14 16 16 14 11 9 9 10 10 8 7 8 7 6 5 4 4 3 3 3 3 2 1 0 0 0
45 45 47 49 44 38 33 29 27 24 20 16 14 15 14 13 12 13 15 16 14 11 8 7 8 8 6 5 5 5 5 4 3 3 3 3 3 1 1 0 0 0 0
52 53 56 58 50 39 33 30 27 23 19 15 14 15 15 15 14 14 15 15 13 10 8 8 8 6 3 2 2 2 4 4 3 3 3 3 2 1 0 0 0 0 0
62 61 59 58 51 41 34 30 28 26 21 17 17 18 18 17 17 17 15 13 12 11 10 10 9 6 2 0 0 1 2 3 3 3 3 3 3 1 0 0 0 0 0
63 59 54 52 48 41 36 32 30 29 25 21 21 22 21 20 20 18 15 14 15 15 13 12 9 5 1 0 0 0 1 1 2 2 2 2 2 1 0 0 0 0 0
56 53 50 49 46 39 36 32 31 32 30 27 26 25 24 22 22 20 18 17 18 16 13 10 6 3 1 0 0 0 1 2 2 1 1 1 1 1 0 0 0 0 0
48 49 48 46 43 40 36 33 33 35 34 31 28 26 23 20 21 21 19 16 14 12 8 5 3 1 0 0 0 0 1 2 2 1 0 0 0 0 0 0 0 0 0
41 42 42 40 38 37 34 32 33 35 34 30 25 22 18 16 16 18 15 11 9 7 4 1 1 0 0 0 0 0 0 1 1 0 0 0 0 0 0 0 0 0 0
30 31 33 33 31 29 28 28 30 30 28 25 21 18 15 13 13 13 11 8 5 3 1 0 0 0 0 0 0 0 0 0 0 0 0 0 0 0 0 0 0 0 0
19 21 24 27 25 23 22 23 23 23 21 19 18 16 14 12 10 8 6 4 3 2 1 0 0 0 0 0 0 0 0 0 0 0 0 0 0 0 0 0 0 0 0
13 14 18 20 19 18 17 16 15 14 15 15 15 14 12 9 5 3 2 1 1 1 0 0 0 0 0 0 0 0 0 0 0 0 0 0 0 0 0 0 0 0 0
12 13 15 14 13 13 14 13 10 9 11 12 11 11 10 6 2 0 0 0 0 0 0 0 0 0 0 0 0 0 0 0 0 0 0 0 0 0 0 0 0 0 0

GEFSMW_con_probscp_132.txt.gz
Probability
51 57 61 59 55 53 51 45 38 35 31 24 17 12 10 8 8 7 6 5 4 4 4 2 0 0 0 0 0 0 0 0 0 0 0 0 0 0 0 0 0 0 0
55 58 60 58 55 53 50 43 37 34 29 23 17 13 10 7 6 6 6 5 4 4 3 2 1 0 0 0 0 0 0 0 0 0 0 0 0 0 0 0 0 0 0
58 59 57 54 51 48 44 38 33 29 23 18 15 12 9 5 3 4 5 5 5 4 4 3 1 1 0 0 0 0 0 0 0 0 0 0 0 0 0 0 0 0 0
56 55 51 47 44 40 35 29 25 21 17 13 12 11 8 4 1 2 4 5 5 5 5 4 3 2 1 1 0 0 0 0 0 0 0 0 0 0 0 0 0 0 0
49 46 41 37 35 33 27 21 16 15 14 11 10 9 6 3 1 1 3 4 3 4 5 5 4 3 3 2 1 0 0 0 0 0 0 0 0 0 0 0 0 0 0
42 38 33 30 30 28 25 18 13 12 11 9 7 6 4 2 1 1 1 2 2 2 4 5 5 4 3 3 2 1 0 0 0 0 0 0 0 0 0 0 0 0 0
38 34 31 30 29 27 25 21 15 11 9 7 6 5 4 4 3 1 1 1 1 1 2 3 4 4 4 3 3 1 0 0 0 0 0 0 0 0 0 0 0 0 0
34 33 32 31 29 28 26 22 16 10 7 6 6 6 6 5 3 1 1 1 1 1 1 1 2 3 3 3 3 2 1 1 0 0 0 0 0 0 0 0 0 0 0
28 28 26 25 26 25 22 18 15 11 8 6 6 5 5 4 2 0 0 0 1 1 1 0 0 1 1 1 2 2 2 2 1 0 0 0 0 0 0 0 0 0 0
23 22 18 17 20 20 16 14 13 12 9 7 5 4 2 1 0 0 0 0 0 0 0 0 0 0 0 0 1 1 1 1 1 0 0 0 0 0 0 0 0 0 0
19 18 15 13 14 14 13 13 13 12 11 8 6 3 2 1 0 0 0 0 0 0 0 0 0 0 0 0 0 0 0 0 0 0 0 0 0 0 0 0 0 0 0
18 18 16 14 11 11 11 12 12 12 10 8 5 3 3 2 0 0 0 0 0 0 0 0 0 0 0 0 1 1 0 0 0 0 0 0 0 0 0 0 0 0 0
19 18 17 14 10 9 9 11 12 11 8 5 3 2 2 1 0 0 0 0 0 0 0 0 0 0 0 0 1 2 1 1 0 0 0 0 0 0 0 0 0 0 0
22 20 17 15 13 10 9 9 10 9 5 2 1 0 0 0 0 0 0 0 0 0 0 0 0 0 0 0 1 2 2 1 0 0 0 0 0 0 0 0 0 0 0
26 23 20 18 15 11 9 7 7 5 2 1 0 0 0 0 0 0 1 1 0 0 0 0 1 1 1 1 2 2 2 1 0 0 0 0 0 0 0 0 0 0 0
27 26 23 20 15 9 5 4 3 3 2 0 0 0 0 0 1 1 2 2 1 0 0 0 1 2 1 1 1 2 2 2 1 1 0 0 0 0 0 0 0 0 0
25 24 21 18 12 6 3 3 4 5 4 2 1 1 1 1 1 2 2 2 1 0 0 0 1 1 1 0 0 1 1 2 2 1 1 0 0 0 0 0 0 0 0
21 18 14 12 8 6 5 6 9 10 8 5 3 3 2 1 1 1 1 1 0 0 0 0 0 0 0 0 0 0 0 1 1 1 1 0 0 0 0 0 0 0 0
16 12 8 7 6 5 6 8 10 11 10 8 5 3 2 1 1 0 0 0 0 0 0 0 0 0 0 0 0 0 0 0 0 0 0 0 0 0 0 0 0 0 0
13 8 5 6 7 6 6 7 8 9 9 8 5 3 3 4 3 1 0 0 0 0 0 0 0 0 0 0 0 0 0 0 0 0 0 0 0 0 0 0 0 0 0
13 9 5 6 7 6 6 7 7 8 7 6 5 4 5 5 4 2 1 0 0 0 0 0 0 0 0 0 0 0 0 0 0 0 0 0 0 0 0 0 0 0 0
17 14 8 6 6 6 6 8 8 6 5 4 4 4 4 4 4 3 2 1 0 0 0 0 0 0 0 0 0 0 0 0 0 0 0 0 0 0 0 0 0 0 0
17 15 11 6 5 5 6 7 6 5 4 3 3 3 3 3 4 3 3 1 0 0 0 0 0 0 0 0 0 0 0 0 0 0 0 0 0 0 0 0 0 0 0
12 11 9 6 4 3 4 4 4 3 3 3 3 3 3 3 3 3 2 1 0 0 0 0 0 0 0 0 0 0 0 0 0 0 0 0 0 0 0 0 0 0 0
8 7 6 5 3 1 1 1 1 2 2 2 3 3 3 3 2 2 1 1 0 0 0 0 0 0 0 0 0 0 0 0 0 0 0 0 0 0 0 0 0 0 0
5 5 4 2 1 0 0 0 0 1 1 1 2 3 3 2 1 1 0 0 0 0 0 0 0 0 0 0 0 0 0 0 0 0 0 0 0 0 0 0 0 0 0

GEFSMW_con_probscp_138.txt.gz
Probability
23 24 23 22 19 13 9 9 9 9 8 6 4 3 3 3 3 3 3 3 3 3 3 1 0 0 0 0 0 0 0 0 0 0 0 0 0 0 0 0 0 0 0
29 28 26 25 22 16 11 9 9 8 8 6 4 3 3 3 3 3 3 3 3 3 3 2 1 1 1 1 1 0 0 0 0 0 0 0 0 0 0 0 0 0 0
32 30 27 24 20 16 11 8 8 8 7 6 6 5 4 3 3 3 3 2 1 1 2 1 1 2 2 2 2 1 0 0 0 0 0 0 0 0 0 0 0 0 0
28 26 22 19 16 12 9 6 7 7 6 6 7 7 5 4 3 2 2 1 0 0 0 1 2 3 3 3 3 1 1 0 0 0 0 0 0 0 0 0 0 0 0
25 23 19 15 13 9 6 5 5 6 5 6 6 5 4 3 2 1 1 1 0 0 0 0 1 2 3 3 3 3 2 1 0 0 0 0 0 0 0 0 0 0 0
25 24 19 15 12 9 7 7 6 5 5 6 6 4 2 1 1 1 1 1 0 0 0 0 0 1 2 3 3 3 3 1 1 0 0 0 0 0 0 0 0 0 0
24 24 21 16 14 11 8 8 7 5 4 5 5 3 1 0 0 0 0 0 0 0 0 0 0 0 1 2 2 2 2 2 2 1 0 0 0 0 0 0 0 0 0
23 22 19 14 12 10 8 7 6 4 4 4 4 3 1 1 0 0 0 0 0 0 0 0 0 0 0 1 1 1 1 2 2 1 0 0 0 0 0 0 0 0 0
20 18 13 9 8 7 7 5 4 4 4 4 4 4 3 1 0 0 0 0 0 0 0 0 0 0 0 0 0 0 0 1 1 1 0 0 0 0 0 0 0 0 0
16 12 7 5 5 5 5 5 4 4 5 6 6 5 3 2 1 0 0 0 0 0 0 0 0 0 0 0 0 0 0 0 0 0 0 0 0 0 0 0 0 0 0
12 10 7 4 3 4 4 4 3 3 4 5 5 4 3 2 2 1 0 0 0 0 0 0 0 0 0 0 0 0 0 0 0 0 0 0 0 0 0 0 0 0 0
10 11 8 4 3 4 4 3 2 2 3 3 4 3 2 2 3 2 1 0 0 0 0 0 0 0 0 0 0 0 0 0 0 0 0 0 0 0 0 0 0 0 0
11 12 8 4 4 5 4 2 1 1 2 3 3 2 2 2 2 2 1 0 0 0 0 0 0 0 0 0 0 0 0 0 0 0 0 0 0 0 0 0 0 0 0
11 10 7 4 4 4 3 1 0 1 2 2 2 1 1 1 1 1 0 0 0 0 0 0 0 0 0 0 0 0 0 0 0 0 0 0 0 0 0 0 0 0 0
8 7 6 5 3 3 2 1 0 0 1 1 1 0 0 0 0 0 0 0 1 0 0 0 0 0 0 0 0 0 0 0 0 0 0 0 0 0 0 0 0 0 0
8 7 6 4 3 2 1 0 0 0 0 0 0 0 0 0 0 0 0 0 0 0 0 0 0 0 0 0 0 0 0 0 0 0 1 1 1 0 0 0 0 0 0
8 6 4 2 1 1 1 0 0 0 0 0 0 0 0 0 0 0 0 0 0 0 0 0 0 0 0 0 0 0 0 0 0 0 1 2 2 1 1 0 0 0 0
5 3 1 0 1 1 0 0 0 0 0 0 0 0 0 0 0 0 0 0 0 0 0 0 0 0 0 0 0 0 0 0 0 0 1 1 2 2 1 0 0 0 0
2 1 0 0 1 0 0 0 0 0 0 0 0 0 1 1 1 1 0 0 0 0 0 0 0 0 0 0 0 0 0 0 0 0 0 0 1 1 1 0 0 0 0
1 1 1 1 1 1 1 2 2 1 0 0 0 0 1 2 2 2 1 0 0 0 0 0 0 0 0 0 0 0 0 0 0 0 0 0 0 0 0 0 0 0 0
2 3 3 3 3 3 3 5 4 2 0 0 0 0 2 3 3 3 2 1 0 0 0 0 0 0 0 0 0 0 0 0 0 0 0 0 0 0 0 0 0 0 0
4 4 4 4 4 4 5 5 4 2 0 0 0 0 1 2 3 3 2 1 0 0 0 0 0 0 0 0 0 0 0 0 0 0 0 0 0 0 0 0 0 0 0
4 4 4 4 4 4 3 3 2 0 0 0 0 0 1 1 1 3 3 1 0 0 0 0 0 0 0 0 0 0 0 0 0 0 0 0 0 0 0 0 0 0 0
3 3 3 3 2 2 1 1 0 0 0 0 0 0 0 0 1 2 3 2 1 1 0 0 0 0 0 0 0 0 0 0 0 0 0 0 0 0 0 0 0 0 0
3 3 3 3 2 0 0 0 0 0 0 0 0 0 0 0 0 1 2 2 2 1 0 0 0 0 0 0 0 0 0 0 0 0 0 0 0 0 0 0 0 0 0
3 3 3 3 2 1 0 0 0 0 0 0 0 0 0 0 0 0 1 1 1 1 0 0 0 0 0 0 0 0 0 0 0 0 0 0 0 0 0 0 0 0 0

GEFSMW_con_probscp_144.txt.gz
Probability
25 28 27 23 20 18 17 17 20 24 21 16 14 12 11 10 7 5 4 3 3 3 3 3 3 4 4 4 2 1 1 0 0 0 0 0 0 0 0 0 0 0 0
32 33 32 30 27 23 20 17 19 21 19 15 14 13 11 8 6 5 4 3 3 3 3 3 3 4 4 4 4 4 2 1 1 2 1 0 0 0 0 0 0 0 1
38 37 38 37 33 29 24 19 17 16 13 11 12 13 11 8 4 4 3 3 3 3 3 3 3 3 3 4 5 6 5 4 4 5 4 1 1 1 1 0 0 0 1
34 35 37 36 32 27 23 19 15 12 10 10 10 12 11 7 4 4 4 4 4 3 2 3 4 2 2 3 4 5 6 6 6 6 5 3 2 2 1 0 0 0 1
28 30 32 31 28 23 20 17 15 13 11 11 9 9 8 6 4 4 4 5 5 3 2 3 4 3 2 1 2 3 6 7 6 7 7 5 4 2 1 0 0 0 0
25 26 28 29 27 25 20 17 17 17 15 14 10 7 6 4 2 3 4 5 5 3 2 3 5 6 4 2 2 3 5 6 6 7 8 8 7 4 3 1 0 0 1
25 27 30 30 28 26 23 19 18 18 18 17 13 9 6 3 1 1 3 5 4 3 3 3 5 7 6 4 3 3 4 4 5 6 8 10 9 7 6 4 1 1 1
26 28 32 32 27 24 22 20 18 18 18 17 16 13 9 4 1 2 4 6 5 3 2 2 3 5 5 4 4 4 4 4 3 4 8 11 11 10 9 6 4 3 2
22 25 30 29 25 22 21 19 18 17 16 16 18 17 12 7 6 6 6 6 5 3 2 0 1 3 2 2 4 5 5 7 6 6 9 10 12 14 13 10 8 6 5
15 19 24 24 20 19 19 17 16 15 14 14 16 16 13 11 10 9 6 5 4 3 2 0 1 2 2 3 3 5 7 8 9 10 9 10 12 15 15 12 10 10 9
12 17 21 21 18 17 18 17 14 12 11 10 10 10 8 8 8 7 5 3 3 3 1 0 0 2 3 4 3 4 6 7 8 8 8 8 10 12 11 8 7 9 10
17 20 22 22 20 17 17 15 13 11 10 9 8 6 5 5 5 5 4 3 3 3 1 0 0 2 3 4 4 4 5 5 6 5 5 6 8 9 7 5 4 5 6
25 27 29 29 26 21 17 14 12 11 10 9 8 7 5 5 4 4 3 3 4 3 1 0 1 2 3 3 4 5 4 5 6 5 5 6 7 8 7 6 5 4 4
30 33 37 36 31 24 18 14 11 10 8 6 5 5 4 3 3 3 3 3 3 3 2 1 2 3 3 4 5 5 5 6 7 7 7 6 6 6 6 6 6 6 6
31 35 40 38 33 27 21 16 12 9 6 3 2 1 1 1 1 1 1 2 2 3 4 3 3 3 3 3 4 4 5 6 6 7 7 5 3 3 3 4 5 6 8
34 36 38 38 35 31 25 19 13 8 4 1 1 1 1 1 1 1 1 2 2 3 5 4 3 4 3 3 2 2 3 4 6 6 5 3 1 1 1 2 2 3 5
41 42 42 41 37 32 27 22 15 9 3 2 3 3 3 3 3 4 4 4 4 5 6 6 6 5 4 3 1 0 1 3 4 5 4 2 1 1 1 0 0 0 1
51 54 52 45 37 32 28 22 17 12 7 6 7 7 6 6 6 7 7 8 8 8 9 9 9 8 6 3 1 0 1 2 4 4 3 3 2 1 0 0 0 0 0
60 63 60 50 40 34 28 23 19 15 12 11 11 9 8 7 7 9 10 11 11 11 11 11 11 9 6 2 0 1 2 3 4 4 3 2 2 1 0 0 0 0 0
65 65 62 54 44 34 28 25 21 17 14 13 11 9 8 8 9 10 11 12 14 13 10 9 8 8 6 2 0 1 2 3 4 4 2 1 1 0 0 0 0 0 0
66 64 60 54 46 36 30 27 21 16 13 11 10 9 8 9 9 10 10 11 12 11 9 7 6 5 4 2 1 1 2 3 3 3 1 0 0 0 0 0 0 0 0
61 61 56 50 42 36 30 25 20 14 9 8 8 8 7 7 7 8 8 8 8 7 7 6 5 4 3 2 1 0 1 2 3 2 1 0 0 0 0 0 0 0 0
53 53 49 42 35 30 25 20 16 13 9 7 7 7 6 5 5 6 6 6 5 5 5 5 4 3 3 2 1 0 0 1 2 2 1 0 0 0 0 0 0 0 0
45 44 40 33 28 23 18 15 14 11 9 8 8 7 5 4 6 6 6 6 5 4 3 3 3 3 3 2 1 0 0 0 1 1 0 0 0 0 0 0 0 0 0
35 34 31 26 21 17 15 15 14 11 9 8 8 6 4 3 4 5 4 4 3 3 2 2 3 3 2 1 0 0 0 0 0 0 0 0 0 0 0 0 0 0 0
29 29 26 20 15 13 14 16 16 13 10 8 6 4 2 2 2 2 2 1 1 1 1 1 2 2 1 0 0 0 0 0 0 0 0 0 0 0 0 0 0 0 0

GEFSMW_con_probscp_150.txt.gz
Probability
73 72 69 68 67 65 63 60 56 52 45 32 22 18 16 15 15 16 18 16 11 7 7 9 11 11 11 12 12 11 9 8 8 7 5 2 1 1 4 5 4 4 5
75 73 71 70 68 65 63 62 58 54 47 35 24 17 15 14 14 15 18 18 13 9 9 10 11 10 10 12 12 10 9 8 8 8 6 3 1 1 3 4 4 4 5
75 74 73 71 67 63 61 61 60 57 50 37 24 16 14 12 12 14 16 18 16 13 12 12 13 12 10 10 10 9 8 7 7 7 7 5 4 3 4 4 4 5 5
69 72 72 69 64 59 57 58 60 59 51 39 26 18 15 13 12 13 15 16 16 14 13 15 17 17 13 10 9 8 8 7 5 6 7 6 6 6 6 5 4 5 6
62 67 69 65 60 56 55 56 59 59 52 42 32 24 20 18 16 14 15 16 16 13 12 15 20 19 15 11 9 9 10 10 8 7 8 8 8 7 6 4 3 4 5
58 63 64 61 59 57 57 58 58 56 50 43 37 30 26 23 20 17 15 16 16 13 12 14 17 16 14 14 14 14 15 13 12 10 11 11 10 8 4 2 2 3 3
53 56 57 59 61 61 60 59 56 51 46 41 36 33 30 27 24 20 17 15 14 12 11 13 16 15 13 14 16 17 16 15 13 12 11 11 10 8 5 2 1 1 2
44 45 48 55 59 59 58 56 50 45 40 36 34 34 32 28 25 22 20 16 14 12 11 14 16 15 12 11 13 14 14 15 14 12 11 10 9 8 7 5 2 0 1
38 40 43 48 53 55 53 49 44 40 36 34 33 32 30 27 23 22 21 18 15 13 12 13 15 14 12 10 11 12 12 13 14 13 13 12 11 9 9 8 5 2 1
35 39 43 47 51 53 50 44 41 38 35 34 32 29 26 24 22 19 18 16 14 13 12 12 13 12 10 9 10 10 11 11 12 12 11 12 12 10 9 8 8 7 5
32 40 48 51 52 52 48 43 40 37 35 34 33 29 25 22 19 16 15 14 12 12 12 12 11 9 5 4 5 7 9 9 7 7 8 9 11 11 9 7 8 10 9
33 42 53 55 52 49 46 42 39 36 34 34 32 28 23 20 17 13 13 13 12 12 12 11 9 6 3 3 5 6 6 5 4 4 5 7 9 10 7 5 7 9 9
43 50 58 59 54 49 44 41 38 36 34 32 27 23 21 18 15 13 12 12 12 10 9 8 8 6 5 6 7 7 5 4 4 5 6 7 8 8 6 5 6 7 7
59 61 65 67 62 55 48 43 40 38 36 30 24 21 19 16 13 12 10 9 8 6 5 6 7 6 6 7 8 8 7 6 6 7 8 9 8 7 5 4 5 6 6
68 67 69 72 71 63 54 47 44 41 38 31 25 21 17 13 11 9 8 6 4 4 4 5 6 5 4 4 6 7 8 9 9 9 9 8 7 5 3 3 3 4 5
68 69 71 74 73 67 58 53 48 44 40 34 27 21 15 11 9 9 9 9 8 6 5 5 5 4 2 2 2 4 7 9 10 9 8 6 4 2 1 1 1 2 3
65 69 74 76 74 67 61 57 53 46 42 37 28 21 15 12 11 12 13 13 12 9 6 5 5 4 3 1 0 1 5 8 9 9 9 7 4 2 0 0 0 1 1
70 75 79 79 75 67 61 59 54 47 42 37 29 23 19 17 16 16 15 15 13 10 8 7 8 7 4 2 0 1 3 5 7 8 8 7 5 2 1 0 0 0 0
81 83 83 82 76 69 64 60 55 48 41 36 30 25 23 22 20 17 16 14 13 11 9 8 9 8 5 2 0 1 2 3 5 5 5 5 4 3 1 1 1 1 1
84 85 84 82 79 73 68 64 60 53 44 38 33 28 26 26 23 18 15 13 12 11 9 9 8 7 4 2 1 0 1 2 3 3 3 3 3 2 1 1 2 3 2
81 81 82 82 80 75 70 66 62 56 47 40 35 32 29 26 23 19 16 13 11 10 9 8 7 6 4 3 1 0 1 2 3 3 3 3 1 1 0 1 2 2 2
79 80 81 81 77 73 68 64 59 53 47 41 37 33 30 25 20 19 17 13 11 10 9 7 5 4 3 3 2 1 0 1 2 3 3 2 1 0 0 0 1 1 1
77 77 78 76 72 67 64 60 55 49 44 41 37 33 29 25 22 19 16 13 11 10 8 6 4 3 3 3 3 1 0 0 1 2 1 1 0 0 0 0 0 0 0
71 73 75 73 66 61 56 54 49 43 39 36 33 29 26 23 21 18 15 14 11 8 6 5 4 3 3 3 2 1 1 0 0 0 0 0 0 0 0 0 0 0 0
66 69 70 67 60 53 48 44 40 35 32 29 26 23 21 18 16 13 12 11 8 5 3 3 3 2 2 1 1 1 1 1 0 0 0 0 0 0 0 0 0 0 0
65 66 66 62 54 47 42 36 33 31 28 26 23 19 17 15 12 10 8 7 4 2 1 2 1 1 1 0 0 0 0 1 0 0 0 0 0 0 0 0 0 0 0

GEFSMW_con_probscp_156.txt.gz
Probability
48 51 55 55 48 39 34 31 26 22 19 16 12 9 6 6 4 2 1 0 1 2 3 3 3 3 3 3 3 1 0 0 0 0 0 0 0 0 0 0 0 0 0
51 54 56 56 51 44 39 35 28 21 17 14 10 6 5 4 3 1 1 1 0 1 2 3 3 3 3 3 3 2 0 0 0 0 0 0 0 0 0 0 0 0 0
55 56 57 55 50 46 43 39 30 20 14 11 6 4 3 2 1 1 2 2 1 0 1 2 3 4 4 3 2 1 0 0 0 0 0 0 0 0 0 0 0 0 0
56 55 55 52 46 43 41 38 32 22 15 10 7 3 2 1 0 1 2 2 2 1 0 1 2 3 4 3 1 0 0 0 0 0 0 0 0 0 0 0 0 0 0
54 50 48 46 42 40 40 38 35 27 19 14 9 4 2 1 0 0 1 2 2 1 1 0 0 2 2 1 0 0 0 0 0 0 0 0 0 0 0 0 0 0 0
50 44 40 39 39 40 42 40 36 31 23 16 10 5 3 2 1 2 2 3 3 3 2 1 1 1 1 0 0 0 0 0 0 0 0 0 0 0 0 0 0 0 0
45 41 37 35 38 42 45 42 36 31 25 17 9 5 3 3 4 4 3 3 3 3 3 2 2 2 1 1 1 0 0 0 0 0 0 0 0 0 0 0 0 0 0
41 38 35 36 40 44 45 40 33 29 25 17 9 5 3 4 5 4 3 3 3 2 2 2 1 1 1 1 1 0 0 0 0 0 0 0 0 0 0 0 0 0 0
39 35 34 36 39 41 41 36 30 26 24 19 12 7 5 5 5 4 4 3 2 2 2 2 2 1 1 1 1 0 0 0 0 0 0 0 0 0 0 0 0 0 0
37 35 35 36 36 38 38 33 27 23 22 19 14 9 7 6 6 6 6 5 4 3 3 3 3 2 1 0 0 0 0 0 0 0 0 0 0 0 0 0 0 0 0
36 36 38 37 36 37 37 31 25 21 18 16 13 9 7 6 6 5 5 5 4 3 2 2 2 2 1 0 0 0 0 0 0 0 0 0 0 0 0 0 0 0 0
32 35 39 38 36 36 35 29 23 19 15 12 10 6 5 4 3 3 2 2 2 1 1 1 1 1 1 0 0 0 0 0 0 0 0 0 0 0 0 0 0 0 0
33 36 40 39 36 35 33 27 23 20 15 11 6 4 4 3 2 1 0 0 0 0 0 0 0 0 0 0 0 0 0 0 0 0 0 0 0 0 0 0 0 0 0
41 43 43 40 37 36 32 28 24 20 15 10 5 3 2 2 1 0 0 0 0 0 0 0 0 0 0 0 0 0 0 0 0 0 0 0 0 0 0 0 0 0 0
50 50 48 45 42 38 33 30 27 21 16 11 7 4 2 1 0 0 0 0 0 0 0 0 0 0 0 0 0 0 0 0 0 0 0 0 0 0 0 0 0 0 0
57 56 54 54 51 43 35 32 30 24 18 14 10 6 4 3 1 1 0 0 0 0 0 0 1 1 0 0 0 0 0 0 0 0 0 0 0 0 0 0 0 0 0
64 62 61 61 57 48 39 35 32 26 20 16 12 7 6 5 4 3 1 1 0 0 0 1 1 0 0 0 0 0 0 0 0 0 0 0 0 0 0 0 0 0 0
68 67 66 65 60 52 44 39 33 26 20 15 10 6 5 5 5 4 3 1 0 0 0 0 0 0 0 0 0 0 0 0 0 0 0 0 0 0 0 0 0 0 0
67 68 70 69 63 57 52 45 35 25 17 12 7 4 4 4 4 4 2 1 0 0 0 0 0 0 0 0 0 0 0 0 0 0 0 0 0 0 0 0 0 0 0
67 69 72 72 66 62 58 52 40 25 15 10 6 5 5 5 4 2 1 0 0 0 0 0 0 0 0 0 0 0 0 0 0 0 0 0 0 0 0 0 0 0 0
69 70 73 72 68 63 57 51 40 26 16 12 9 6 5 4 2 1 0 0 0 1 1 1 0 0 0 0 0 0 0 0 0 0 0 0 0 0 0 0 0 0 0
70 71 70 68 64 59 52 44 35 26 17 13 10 7 4 2 0 0 0 0 0 1 2 1 0 0 0 0 0 0 0 0 0 0 0 0 0 0 0 0 0 0 0
66 65 63 60 56 51 45 39 31 24 17 12 8 7 5 2 0 0 0 0 0 1 1 1 0 0 0 0 0 0 0 0 0 0 0 0 0 0 0 0 0 0 0
58 56 55 53 49 42 37 33 27 20 16 13 9 8 6 3 1 1 1 1 1 1 0 0 0 0 0 0 0 0 0 0 0 0 0 0 0 0 0 0 0 0 0
49 48 46 45 41 35 30 27 22 17 17 16 12 9 7 4 2 2 2 2 2 1 0 0 0 0 0 0 0 0 0 0 0 0 0 0 0 0 0 0 0 0 0
43 41 39 38 37 32 27 25 20 16 17 18 15 11 7 4 3 3 3 3 3 1 0 0 0 0 0 0 0 0 0 0 0 0 0 0 0 0 0 0 0 0 0

GEFSMW_con_probscp_162.txt.gz
Probability
18 17 17 17 15 13 13 10 6 3 2 2 1 0 0 0 0 0 0 0 0 0 0 0 0 0 1 2 2 3 3 3 3 1 0 0 0 0 0 0 0 0 0
22 20 20 21 19 16 15 13 9 5 2 1 0 0 0 0 0 0 0 0 0 0 0 0 0 0 0 1 1 2 2 2 2 1 0 0 0 0 0 0 0 0 0
25 25 25 24 22 19 17 15 12 7 2 0 0 0 0 0 0 0 0 0 0 0 0 0 0 0 0 0 0 1 1 1 1 1 0 0 0 0 0 0 0 0 0
27 28 28 25 22 18 16 15 13 8 4 1 0 0 0 0 0 0 0 0 0 0 0 1 1 1 0 0 0 0 0 0 0 0 0 0 0 0 0 0 0 0 0
28 28 26 23 19 16 15 13 11 8 4 2 1 0 0 0 0 0 0 0 0 0 0 1 2 1 1 0 0 0 0 0 0 0 0 0 0 0 0 0 0 0 0
26 25 23 21 19 17 15 13 9 7 4 2 1 0 0 0 0 0 0 0 0 0 0 1 1 0 0 0 0 0 0 0 0 0 0 0 0 0 0 0 0 0 0
20 21 23 23 22 20 19 14 9 6 4 2 1 0 0 0 0 0 0 0 0 0 0 0 0 0 0 0 0 0 0 0 0 0 0 0 0 0 0 0 0 0 0
14 16 21 25 24 22 22 17 11 7 5 3 1 0 0 0 0 0 0 0 1 0 0 0 0 0 0 0 0 0 0 0 0 0 0 0 0 0 0 0 0 0 0
11 12 17 21 22 22 20 16 11 7 5 4 3 1 0 0 0 0 0 0 0 0 0 0 0 0 0 0 0 0 0 0 0 0 0 0 0 0 0 0 0 0 0
10 10 13 16 17 18 16 12 9 6 5 5 3 1 0 0 0 0 0 0 0 0 0 0 0 0 0 0 0 0 0 0 0 0 0 0 0 0 0 0 0 0 0
8 8 10 13 14 13 12 10 7 5 4 4 3 1 0 0 0 0 0 0 0 0 0 1 1 1 0 0 0 0 0 0 0 0 0 0 0 0 0 0 0 0 0
7 8 10 13 14 12 12 11 8 4 3 3 2 1 0 0 0 0 0 0 0 0 0 1 2 1 0 0 0 0 0 0 0 0 0 0 0 0 0 0 0 0 0
9 10 12 14 15 14 14 12 8 4 3 3 1 0 0 0 0 0 0 0 0 0 0 1 1 1 0 0 0 0 0 0 0 0 0 0 0 0 0 0 0 0 0
13 13 15 16 16 16 15 12 8 4 3 2 1 0 0 0 0 0 0 0 0 1 1 0 0 0 0 0 0 0 0 0 0 0 0 0 0 0 0 0 0 0 0
15 15 17 18 17 16 15 13 10 7 5 4 3 2 1 1 1 0 0 0 1 2 1 0 0 0 0 0 0 0 0 0 0 0 0 0 0 0 0 0 0 0 0
18 19 22 24 22 20 19 17 15 12 9 7 6 6 5 3 2 1 0 0 1 1 1 0 0 0 0 0 0 0 0 0 0 0 0 0 0 0 0 0 0 0 0
24 26 28 29 27 27 27 26 22 19 14 10 9 8 6 4 2 1 0 0 0 0 0 0 0 0 0 0 0 0 0 0 0 0 0 0 0 0 0 0 0 0 0
31 31 33 32 30 31 34 34 28 23 17 11 8 7 4 2 1 1 0 0 0 0 0 0 0 0 0 0 0 0 0 0 0 0 0 0 0 0 0 0 0 0 0
32 33 36 36 33 33 37 38 33 24 16 11 6 3 2 1 1 1 0 0 0 0 0 0 0 0 0 0 0 0 0 0 0 0 0 0 0 0 0 0 0 0 0
32 34 39 40 37 36 39 39 33 24 15 9 5 2 2 2 2 2 1 0 0 0 0 0 0 0 0 0 0 0 0 0 0 0 0 0 0 0 0 0 0 0 0
38 39 42 42 38 37 39 37 32 24 17 11 7 4 3 3 3 2 1 0 0 0 0 0 0 0 0 0 0 0 0 0 0 0 0 0 0 0 0 0 0 0 0
44 44 44 41 36 35 37 35 32 26 19 15 12 8 4 3 3 2 1 0 0 0 0 0 0 0 0 0 0 0 0 0 0 0 0 0 0 0 0 0 0 0 0
43 43 41 37 33 32 33 34 32 25 20 16 14 11 7 4 4 2 1 0 0 0 0 0 0 0 0 0 0 0 0 0 0 0 0 0 0 0 0 0 0 0 0
35 34 34 31 28 28 29 30 28 23 18 15 13 11 8 6 5 2 0 0 0 0 0 0 0 0 0 0 0 0 0 0 0 0 0 0 0 0 0 0 0 0 0
27 26 25 23 22 23 24 24 22 20 17 14 12 10 8 6 5 2 0 0 0 0 0 0 0 0 0 0 0 0 0 0 0 0 0 0 0 0 0 0 0 0 0
22 21 19 17 18 20 20 19 19 19 17 14 12 9 7 6 5 2 0 0 0 0 0 0 0 0 0 0 0 0 0 0 0 0 0 0 0 0 0 0 0 0 0

GEFSMW_con_probscp_168.txt.gz
Probability
13 14 17 20 22 23 20 18 18 18 16 13 10 7 4 1 1 2 1 0 0 1 1 1 1 1 1 0 0 0 0 1 2 3 1 0 0 1 0 1 1 1 0
16 19 21 22 24 25 23 20 20 19 16 12 9 6 3 1 1 2 2 1 0 0 1 1 1 1 0 0 0 0 0 1 2 2 2 1 0 1 0 1 2 1 1
20 23 24 23 24 25 23 21 21 21 17 12 8 5 3 1 0 1 2 2 1 1 1 1 1 0 0 0 0 0 0 0 1 2 2 1 0 0 0 0 1 2 2
19 22 24 22 20 20 20 19 20 19 16 13 9 7 5 2 1 1 2 2 1 1 1 1 0 0 0 0 0 1 2 2 1 2 2 1 1 1 1 0 1 2 2
15 19 23 20 16 15 16 17 17 16 14 14 12 10 8 5 3 2 3 3 1 1 1 1 0 0 0 0 1 2 4 5 4 3 2 2 3 3 3 2 1 1 1
14 19 23 21 16 14 14 16 18 17 16 15 13 12 10 7 6 5 5 4 3 3 2 1 0 0 0 1 3 4 6 7 6 3 2 2 4 6 7 4 2 2 2
17 20 22 21 19 18 16 18 21 21 17 16 15 14 12 9 8 8 8 7 5 4 3 1 0 0 0 2 5 7 8 8 7 5 3 3 5 6 7 6 3 2 3
20 21 20 19 20 19 18 19 22 22 18 15 15 16 15 11 8 8 7 7 6 4 3 2 1 1 2 4 7 8 9 9 8 7 7 6 5 6 6 7 6 3 1
24 23 21 18 17 17 16 18 21 22 19 16 16 17 17 13 9 7 6 6 5 4 3 3 3 3 4 6 8 8 9 10 9 9 9 7 5 5 7 9 9 5 2
26 25 22 17 16 17 17 17 19 21 20 19 18 18 17 14 11 9 7 6 5 4 4 4 4 5 6 8 9 8 9 10 10 9 8 7 6 6 7 9 9 7 5
26 25 21 17 18 20 20 18 17 20 22 22 21 19 16 13 12 12 10 8 6 5 5 5 4 5 7 8 10 9 8 8 9 9 8 8 7 6 7 7 7 8 8
30 28 24 21 21 23 23 20 19 20 21 21 22 21 17 14 14 14 13 10 9 8 7 6 4 5 7 8 9 8 7 6 7 8 9 9 8 7 5 5 4 5 6
38 36 30 27 27 27 25 24 22 20 19 20 23 23 20 17 16 16 15 13 12 10 9 7 5 5 6 6 6 6 6 6 7 8 8 7 7 6 4 3 2 2 2
46 43 39 36 35 33 31 28 25 23 21 24 28 30 27 22 19 18 15 13 12 11 10 8 6 5 3 3 3 4 5 6 6 6 5 4 4 3 2 1 1 1 0
52 51 50 48 45 41 38 35 33 31 31 32 36 38 35 27 22 19 16 14 14 12 11 10 7 4 1 1 1 2 3 4 5 5 3 1 1 1 0 0 0 0 0
54 56 61 62 57 51 46 44 46 45 44 43 44 44 40 33 26 21 18 16 15 12 10 10 8 4 1 0 1 2 2 3 3 4 2 1 0 0 0 0 0 0 0
52 57 64 69 67 61 55 54 56 57 55 53 53 51 45 37 30 25 22 18 15 11 8 7 6 3 1 0 0 1 1 1 2 2 1 0 0 0 0 0 0 0 0
55 60 64 68 70 68 63 59 60 62 62 60 59 55 48 41 34 30 27 22 16 12 9 8 6 5 3 1 0 0 0 0 0 0 0 0 0 0 0 0 0 0 0
66 68 69 70 74 73 69 65 64 66 67 65 62 57 51 45 39 34 29 24 21 17 14 12 10 7 5 2 0 0 0 0 0 1 1 0 0 0 0 0 0 0 0
73 73 73 76 80 80 76 72 69 69 70 66 61 56 51 46 41 34 28 27 26 23 18 15 13 11 7 3 1 0 0 0 0 1 1 0 0 0 0 0 0 0 0
72 72 74 79 83 83 80 75 70 67 66 63 59 53 47 43 38 32 29 28 27 24 21 18 16 13 9 4 1 0 0 0 0 1 1 0 0 0 0 0 0 0 0
69 70 72 75 79 80 78 73 68 62 60 61 57 49 43 39 34 31 29 27 25 23 22 20 17 13 9 5 2 0 0 0 1 1 1 0 0 0 0 0 0 0 0
68 68 67 68 70 72 71 68 66 61 59 58 55 48 43 38 34 30 27 24 22 21 20 19 17 14 12 7 3 0 0 0 1 1 1 0 0 0 0 0 0 0 0
64 64 61 59 60 60 59 60 61 61 59 56 51 45 41 37 34 29 25 22 20 18 17 17 17 15 13 9 4 1 0 0 0 0 0 0 0 0 0 0 0 0 0
57 57 55 52 51 50 49 50 53 56 55 51 45 39 36 34 31 27 22 18 14 12 12 13 13 12 9 6 3 1 0 0 0 0 0 0 0 0 0 0 0 0 0
51 52 51 48 46 45 44 45 47 50 50 45 40 35 33 32 29 25 19 13 8 6 6 7 8 8 5 2 1 1 0 0 0 0 0 0 0 0 1 1 1 0 0

GEFSMW_con_probscp_174.txt.gz
Probability
50 53 53 52 58 64 63 53 43 37 31 25 21 20 20 17 16 17 15 9 5 4 5 5 4 3 3 3 2 0 0 1 2 2 1 1 2 4 7 9 10 9 9
60 61 58 55 60 67 65 56 47 40 35 30 25 21 19 18 16 18 17 12 7 5 5 5 4 3 3 3 1 0 1 1 2 2 1 0 1 2 4 7 8 8 9
68 69 65 60 61 65 64 58 51 44 38 34 28 23 21 21 20 21 22 18 12 9 8 7 5 4 4 3 1 1 3 4 4 3 2 1 1 1 1 3 5 7 9
66 68 68 63 58 56 58 59 55 47 38 32 27 23 23 24 25 25 24 21 17 15 13 11 10 8 5 4 3 4 7 8 7 6 5 4 3 1 1 1 2 4 6
58 64 68 63 53 48 52 60 60 51 39 29 22 21 23 25 25 25 23 22 21 19 16 16 16 14 10 8 6 7 9 10 10 10 9 7 6 3 1 0 0 1 2
48 57 64 61 52 47 51 61 64 56 43 30 22 21 22 24 25 24 24 25 24 20 17 17 19 18 15 13 11 10 11 11 12 12 11 9 7 5 3 1 0 0 1
39 47 55 56 53 49 53 63 67 61 49 37 28 25 24 25 27 28 28 29 26 20 17 17 17 17 16 15 14 13 11 11 11 11 9 8 7 5 3 1 0 0 0
31 39 47 51 52 51 53 61 68 65 55 44 36 31 28 29 31 32 31 29 25 18 17 18 16 15 16 16 15 14 13 12 11 10 9 10 8 6 6 4 1 0 0
25 33 42 48 50 50 52 57 63 64 56 49 42 36 32 32 34 33 30 27 21 16 16 17 15 15 15 16 15 14 14 16 14 12 11 12 11 9 9 7 3 1 1
24 30 40 45 46 48 51 54 60 62 58 51 45 39 36 35 35 33 29 23 18 15 16 16 16 15 15 15 15 15 16 17 16 13 11 10 10 9 9 7 4 3 2
26 32 40 43 43 46 51 55 60 63 60 54 48 44 43 41 38 34 28 22 18 16 17 18 17 16 15 15 16 17 17 17 14 11 9 8 8 8 7 5 3 3 3
31 37 44 45 44 46 52 57 61 64 62 59 56 51 48 44 39 34 29 25 20 17 18 19 19 17 15 15 16 17 17 14 11 8 8 8 8 7 5 3 2 3 3
41 47 54 54 52 53 57 59 61 64 65 63 62 57 49 43 38 34 32 30 24 19 18 19 20 19 16 15 15 15 12 9 8 7 6 7 7 6 4 1 1 2 1
55 62 68 68 66 66 65 62 61 65 67 65 63 59 52 45 39 36 35 33 26 19 18 19 20 19 16 13 13 12 9 6 6 6 6 6 6 5 3 1 0 0 0
66 72 80 81 80 79 74 67 66 70 72 68 64 62 56 50 45 42 40 36 27 20 19 20 19 16 12 9 9 9 8 6 6 6 6 5 4 3 1 0 0 0 0
70 77 85 88 89 87 82 75 73 76 77 73 67 66 63 58 55 51 46 40 32 27 25 22 18 12 7 5 5 6 8 9 8 6 5 3 1 1 0 0 0 0 0
73 79 86 90 92 92 89 82 78 77 77 74 72 71 69 67 64 58 51 47 40 35 31 25 18 12 6 3 2 3 8 12 12 9 6 4 2 1 1 1 0 0 0
78 81 84 88 92 94 92 85 80 79 77 75 75 75 74 73 70 65 60 55 46 39 34 27 20 14 8 3 0 1 6 13 14 11 9 8 6 4 3 2 1 0 0
81 81 83 87 92 95 94 89 85 83 81 78 78 78 76 75 73 69 64 56 47 41 36 29 24 20 12 5 0 1 5 11 12 11 10 9 7 4 2 2 1 0 0
80 81 82 86 92 96 96 92 88 86 84 83 82 80 77 75 72 68 61 53 46 42 37 32 29 24 17 8 1 1 5 10 10 10 9 7 4 1 0 1 1 1 0
79 80 81 84 89 94 94 91 87 86 86 86 83 79 74 69 67 66 61 52 47 44 38 34 31 26 18 9 3 1 4 7 9 9 8 5 1 0 0 1 1 1 0
78 78 80 82 82 85 87 86 86 86 84 82 78 74 68 63 61 62 60 55 50 45 39 34 30 23 17 10 4 1 1 3 5 6 5 4 1 0 0 0 0 0 0
73 73 76 77 74 73 75 78 81 81 79 75 72 68 66 62 59 58 56 52 47 41 34 31 27 20 15 10 5 1 0 0 1 2 2 1 0 0 0 0 0 0 0
64 65 68 69 67 64 66 70 74 75 73 71 69 66 64 61 56 52 47 42 38 34 31 29 26 21 16 11 6 1 0 0 0 0 0 0 0 0 0 0 0 0 0
60 60 62 62 60 61 63 66 68 69 66 65 65 64 61 57 50 43 35 29 25 23 23 23 22 19 14 10 5 2 0 0 0 0 0 0 0 0 0 0 0 0 0
59 58 59 59 58 60 63 65 64 63 62 59 59 60 58 54 47 37 28 21 16 14 13 14 14 13 10 7 4 2 0 0 0 0 0 0 0 0 0 0 0 0 0

GEFSMW_con_probscp_180.txt.gz
Probability
32 40 50 52 47 41 35 31 25 20 14 10 6 5 6 6 5 4 2 0 1 2 2 1 0 0 0 0 0 0 0 0 0 0 0 0 0 0 0 0 1 2 2
41 47 55 56 52 46 41 34 26 20 14 9 7 8 8 6 4 3 2 1 1 2 2 1 0 0 0 0 0 0 0 0 0 0 0 0 0 0 0 0 0 1 1
50 54 58 60 57 52 46 39 30 21 15 12 11 12 11 6 3 2 2 1 1 1 1 1 0 0 0 0 0 0 0 0 0 0 0 0 0 0 0 0 0 0 0
55 56 58 60 59 54 48 42 33 24 18 15 14 15 14 9 4 2 2 2 1 2 2 2 1 0 0 0 0 0 0 0 0 0 0 0 0 0 0 0 0 0 0
56 57 57 58 58 55 48 42 35 28 23 17 14 15 15 12 7 4 3 3 2 1 2 2 1 0 0 0 0 0 0 0 0 0 1 0 0 0 0 0 0 0 0
55 54 54 53 54 53 47 41 36 32 27 21 17 15 14 13 11 7 5 3 2 1 1 1 0 0 0 0 1 1 0 0 0 0 0 0 0 0 0 0 0 0 0
49 48 47 49 51 50 46 41 38 33 27 23 19 15 12 11 10 7 5 3 1 0 0 0 0 0 0 1 2 2 1 0 0 0 0 0 0 0 0 0 0 0 0
40 41 43 45 48 49 46 43 40 34 27 23 19 15 11 8 6 6 4 2 1 0 0 0 0 0 1 2 3 3 2 1 0 0 0 0 0 0 0 0 0 0 0
34 36 38 40 42 44 44 43 41 36 30 25 20 15 10 7 6 6 5 3 1 1 1 1 1 1 2 3 4 4 3 2 1 1 1 1 1 1 0 0 0 0 0
34 33 33 34 35 35 37 40 40 37 34 28 22 16 11 9 9 9 8 5 4 4 5 4 4 4 4 4 5 5 4 3 3 2 2 2 2 2 1 0 0 0 0
34 33 32 30 30 30 33 38 39 37 35 31 23 16 13 12 13 12 10 7 6 7 8 7 6 5 5 6 6 6 4 3 3 3 3 3 3 3 2 1 0 0 0
33 35 35 34 34 34 34 36 36 36 36 33 26 18 15 15 16 15 11 9 8 8 8 7 5 5 5 6 6 6 5 4 3 3 3 3 3 3 2 1 0 0 0
33 37 42 43 42 41 40 37 36 37 37 35 29 23 20 20 19 16 13 11 9 7 6 4 3 3 4 4 5 6 5 3 3 3 3 3 2 1 1 0 0 0 0
36 40 44 46 45 46 47 45 41 39 39 36 30 27 24 22 20 19 16 12 9 6 4 3 3 3 3 3 4 4 3 2 1 2 2 2 1 0 0 0 0 0 0
44 44 44 44 44 47 54 56 51 46 44 39 33 30 28 25 24 23 19 14 10 6 4 3 3 3 3 3 3 3 2 1 0 1 1 1 0 0 0 0 0 0 0
54 52 50 48 47 50 58 63 59 54 52 47 41 38 36 33 31 28 24 18 11 7 4 3 3 3 3 3 3 3 3 1 0 0 0 0 0 0 0 0 0 0 0
57 56 56 56 54 55 59 62 61 59 59 56 51 48 46 42 38 32 26 21 15 8 5 3 3 3 3 3 3 3 3 2 2 2 1 0 0 0 0 0 0 0 0
55 55 57 60 60 58 59 61 61 63 64 61 58 56 54 49 44 37 29 23 19 13 7 4 3 3 3 3 2 3 3 3 3 3 2 1 0 0 0 0 0 0 0
55 53 55 59 59 56 57 60 62 63 63 62 60 60 58 55 50 42 31 24 20 16 10 5 2 3 3 2 1 1 2 2 2 2 2 1 0 0 0 0 0 0 0
54 53 54 55 53 51 51 56 59 58 57 57 58 58 57 55 49 41 33 25 20 16 11 5 3 4 4 3 1 0 1 1 1 1 1 0 0 0 0 0 0 0 0
50 50 52 52 49 48 49 52 53 52 51 52 54 54 53 50 44 38 33 28 24 20 14 9 6 6 7 5 3 1 0 0 1 1 0 0 0 0 0 0 0 0 0
50 49 50 50 49 49 50 49 48 48 49 50 50 51 50 46 40 36 34 32 30 27 22 15 10 9 9 8 5 2 0 1 2 2 1 0 0 0 0 0 0 0 0
48 48 49 50 49 49 48 46 44 44 45 45 45 45 45 42 39 37 34 32 32 32 27 21 15 12 12 10 6 3 1 1 2 2 1 0 0 0 0 0 0 0 0
42 41 43 46 46 45 43 40 38 38 38 38 37 36 37 38 38 37 33 31 31 30 26 22 19 16 14 12 8 5 1 0 1 1 1 0 0 0 0 0 0 0 0
32 31 32 35 37 38 36 34 32 31 32 32 29 28 30 33 35 33 29 26 24 21 18 16 15 15 13 11 8 4 1 0 0 0 0 0 0 0 0 0 0 0 0
25 24 24 26 29 31 32 30 28 29 29 29 26 25 27 29 30 28 24 19 15 12 10 9 10 10 10 9 6 2 1 0 0 0 0 0 0 0 0 0 0 0 0

GEFSMW_con_probscp_186.txt.gz
Probability
3 6 11 19 19 14 12 8 4 1 1 4 5 5 4 2 1 0 0 0 0 0 0 0 0 0 0 0 0 0 0 0 0 0 0 0 0 0 0 0 0 0 0
6 8 13 19 20 16 13 10 6 3 2 3 3 3 2 1 0 0 0 0 0 0 0 0 0 0 0 0 0 0 0 0 0 0 0 0 0 0 0 0 0 0 0
8 9 13 18 20 18 15 12 9 5 4 3 3 3 2 1 0 0 0 0 0 0 0 0 0 0 0 0 0 0 0 0 0 0 0 0 0 0 0 0 0 0 0
9 9 11 16 20 19 16 13 10 8 6 5 6 6 4 2 1 0 0 0 0 0 0 0 0 0 0 0 0 0 0 0 0 0 0 0 0 0 0 0 0 0 0
9 8 9 14 18 17 15 14 12 9 7 6 7 7 6 4 1 0 0 0 0 0 0 0 0 0 0 0 0 0 0 1 1 1 0 0 0 0 0 0 0 0 0
8 8 9 14 17 16 14 15 12 9 7 6 6 7 6 5 3 1 0 0 0 0 0 0 0 0 0 0 0 1 1 2 2 2 1 1 1 0 0 0 0 0 0
9 11 13 17 20 18 17 16 13 9 7 7 7 6 6 4 3 1 0 0 0 0 0 0 0 0 0 1 1 2 3 3 3 3 3 3 2 1 0 0 0 0 0
10 13 16 19 21 21 21 20 15 11 9 9 10 8 6 3 1 0 0 0 0 0 0 1 1 1 1 2 3 3 3 3 3 3 3 4 4 3 1 1 0 0 0
10 12 15 18 20 21 21 20 17 13 10 10 12 11 8 5 3 2 1 1 1 1 1 2 2 1 2 3 3 3 3 3 3 4 4 5 4 3 3 2 1 0 0
11 13 15 16 18 19 18 17 15 13 11 11 12 14 12 9 7 5 3 2 2 2 3 3 2 1 2 3 3 3 3 3 4 5 6 5 4 3 3 3 2 1 0
15 16 17 17 17 17 15 14 13 13 12 11 13 16 15 12 9 6 5 4 4 4 4 3 2 1 2 3 3 3 3 3 4 5 5 4 3 2 2 3 3 2 1
18 19 19 18 18 17 15 13 11 11 13 14 17 19 18 14 10 7 7 7 6 5 4 3 2 2 3 3 3 3 3 3 3 4 3 2 1 1 1 1 2 2 1
19 20 21 22 22 23 20 15 13 12 15 19 22 23 21 16 12 10 9 8 6 4 3 3 3 3 3 3 3 3 3 3 3 3 3 2 1 1 0 0 1 1 0
19 21 22 25 27 27 26 22 18 17 20 24 25 25 23 21 17 15 12 10 6 3 2 3 3 3 3 3 3 3 3 3 3 3 3 3 3 2 1 0 0 0 0
24 23 24 27 28 29 29 27 23 23 25 28 29 28 27 26 23 20 18 14 9 4 2 3 3 2 2 2 2 2 3 3 3 3 3 3 3 2 1 0 0 0 0
27 25 25 27 29 30 30 29 28 28 30 31 34 35 33 31 28 25 22 19 13 8 5 4 3 1 1 1 1 1 1 2 3 3 3 3 3 2 1 0 0 0 0
24 24 24 26 28 30 31 31 32 34 34 35 37 39 39 36 33 29 25 22 19 15 10 6 4 2 1 0 0 0 0 1 1 3 3 3 2 1 0 0 0 0 0
20 21 23 25 26 26 29 31 33 35 37 38 39 39 41 41 38 33 29 26 22 18 13 8 5 3 1 0 0 0 0 0 1 2 2 2 1 0 0 0 0 0 0
21 22 25 27 29 28 28 30 33 35 37 39 40 40 42 43 40 34 31 28 24 18 13 9 6 3 1 0 0 0 1 1 1 1 1 1 0 0 0 0 0 0 0
27 27 30 33 35 34 32 33 36 37 38 40 40 42 43 41 36 32 30 28 24 18 13 9 7 5 3 1 0 1 2 3 3 1 1 1 0 0 0 0 0 0 0
30 31 33 37 37 37 37 38 38 38 40 42 43 42 41 37 32 28 27 25 22 17 12 9 7 6 4 1 0 1 2 5 5 4 3 2 1 0 0 0 0 0 0
29 28 30 33 32 31 34 36 36 36 39 42 42 40 38 34 30 27 26 25 22 16 12 10 8 7 6 3 0 0 1 3 5 5 5 3 1 0 0 0 0 0 0
28 27 27 26 23 22 25 28 30 31 33 35 37 35 33 32 29 28 29 28 25 20 16 12 11 10 9 5 2 1 1 1 2 3 3 2 0 0 0 0 0 0 0
26 26 25 22 18 17 19 21 22 24 24 25 28 30 29 29 28 27 28 29 28 25 20 17 17 17 14 9 5 3 2 0 0 1 1 1 1 1 0 0 0 0 0
20 21 21 20 18 17 18 18 19 19 19 19 22 25 24 24 23 20 19 21 21 20 18 17 18 18 15 9 5 3 1 0 0 0 1 2 2 2 1 0 1 1 1
13 16 18 18 17 17 17 18 19 19 18 18 20 20 19 19 18 14 12 11 11 11 11 11 12 13 11 6 3 1 1 0 0 1 2 3 3 3 2 1 2 2 2

GEFSMW_con_probscp_192.txt.gz
Probability
5 7 10 11 14 20 26 27 24 22 19 14 9 6 5 5 5 5 3 1 1 2 2 1 1 1 1 0 0 0 0 0 0 0 0 0 0 0 0 1 1 1 1
5 8 12 14 17 22 24 25 25 23 20 15 9 6 5 4 4 4 3 1 0 1 1 0 0 0 0 0 0 0 0 0 0 0 0 0 0 0 0 1 2 2 2
5 10 14 16 20 22 22 23 24 25 23 18 11 8 7 4 3 4 3 1 0 0 0 0 0 0 0 0 0 0 1 1 0 0 0 0 0 0 0 1 2 3 3
5 10 14 16 20 21 20 21 25 28 28 23 18 14 9 5 2 2 2 1 0 0 0 0 0 0 0 0 1 1 2 2 1 1 2 2 2 1 0 1 2 3 3
5 9 14 16 18 19 19 21 25 29 31 29 27 21 12 5 3 2 2 1 0 0 0 0 0 0 1 1 2 3 4 4 3 3 3 5 5 4 2 3 4 4 4
6 9 14 19 20 20 19 20 23 28 31 31 30 26 18 12 8 5 4 2 1 0 0 0 0 0 1 2 3 5 6 6 6 5 5 6 7 6 6 5 5 4 5
7 11 17 23 25 24 23 22 24 28 29 30 28 25 21 16 12 9 7 4 2 0 1 1 0 0 1 1 3 5 6 6 6 6 7 8 9 8 8 7 6 6 7
9 13 19 24 27 27 27 26 28 29 27 26 25 23 18 13 10 10 8 6 4 2 2 2 1 2 3 3 4 5 5 5 4 6 8 9 10 11 11 10 10 10 10
12 15 20 24 25 27 28 28 29 28 25 22 22 19 14 10 8 9 10 9 8 6 5 5 4 5 7 8 8 8 6 5 4 5 7 8 9 11 12 13 14 13 12
20 21 24 25 25 26 28 29 29 28 25 21 21 19 16 13 11 11 13 14 14 13 9 7 7 8 10 11 12 11 9 7 6 5 6 7 8 10 11 13 14 13 11
29 30 31 31 29 29 31 31 31 30 28 27 27 25 22 19 16 17 18 20 20 18 14 11 9 9 10 12 13 11 9 8 6 5 5 6 8 10 11 12 12 12 12
39 40 42 41 39 35 34 33 33 33 33 34 37 36 31 26 23 24 25 26 25 23 19 16 13 12 13 13 11 8 6 5 4 4 4 6 8 10 11 12 11 11 13
50 50 51 52 50 44 40 38 37 36 37 39 41 42 38 33 31 31 32 32 32 29 26 22 19 17 16 13 8 5 4 4 4 4 5 6 7 9 10 11 12 12 12
56 57 58 59 57 54 50 47 46 45 44 42 41 41 40 37 35 36 36 37 37 36 32 28 24 20 16 11 6 5 5 6 6 6 5 6 6 7 8 9 11 12 11
58 58 60 60 60 59 57 54 54 55 53 49 44 42 42 41 40 39 40 41 41 40 37 34 29 21 14 8 6 7 8 8 8 7 5 5 4 5 5 5 7 10 10
58 58 57 58 58 58 57 55 57 60 61 58 54 51 50 50 49 46 45 46 46 44 41 38 33 23 14 8 7 8 11 12 12 9 7 5 4 4 4 3 3 5 6
59 59 58 56 55 55 55 55 57 60 63 62 59 57 57 58 57 54 51 52 52 48 43 40 35 27 17 9 5 7 13 16 16 14 11 7 5 6 7 6 4 4 5
62 63 60 55 53 55 57 57 57 60 62 61 58 57 57 58 58 57 56 55 55 52 47 41 35 28 19 10 3 5 13 19 19 17 14 11 8 9 10 10 10 9 9
64 62 56 52 53 57 60 60 60 60 60 59 56 55 56 56 55 55 55 55 55 52 49 43 34 28 20 10 3 5 13 20 19 17 14 11 10 9 10 11 13 13 12
58 54 48 48 52 57 59 61 61 60 59 57 54 53 55 55 53 51 51 51 51 48 45 41 34 28 21 10 2 4 14 20 19 17 16 12 9 7 6 9 12 13 12
45 44 41 43 49 51 52 54 55 57 57 55 52 52 52 50 49 48 47 47 46 43 40 37 33 28 20 9 2 4 11 17 20 20 19 14 7 3 3 5 9 9 9
36 36 36 37 41 43 42 42 46 49 51 52 52 52 50 47 45 44 43 43 42 38 35 34 32 28 20 12 5 2 5 10 18 22 19 12 5 1 0 2 3 4 4
33 33 31 30 34 37 36 36 39 43 44 46 49 50 50 47 44 41 40 42 41 38 36 36 35 32 27 20 10 4 1 4 11 17 14 7 2 0 0 0 0 1 3
31 30 27 27 29 31 32 34 38 41 41 42 43 44 46 46 43 39 38 38 39 38 38 38 37 36 33 26 17 9 5 4 8 11 8 3 0 0 0 0 1 2 3
26 26 25 25 25 26 28 32 37 40 41 40 38 38 41 41 38 34 31 30 29 28 29 30 31 30 27 21 15 11 8 6 6 7 6 2 0 0 0 1 2 3 3
21 23 24 23 22 22 25 30 35 38 40 39 36 35 37 37 34 30 25 21 18 16 17 20 22 22 17 11 8 7 6 5 4 5 5 2 1 1 1 2 3 3 3

GEFSMW_con_probscp_198.txt.gz
Probability
29 32 32 35 45 52 53 47 38 31 29 28 26 25 25 21 19 19 15 11 10 7 4 3 5 7 8 6 5 5 5 3 1 0 0 0 0 2 4 6 8 8 9
33 37 38 40 49 56 56 51 43 37 33 30 27 25 23 20 19 20 17 13 11 8 6 4 4 5 6 7 7 7 6 4 2 1 0 0 1 2 4 7 11 11 11
36 41 43 45 52 59 59 54 49 45 39 34 29 28 26 23 23 24 22 16 11 9 7 4 3 2 4 7 8 8 7 6 4 3 2 2 2 3 4 8 10 12 12
35 41 45 46 51 56 57 56 55 51 44 37 31 31 31 30 29 29 26 20 13 10 7 4 3 3 5 7 8 8 7 6 4 4 5 4 4 4 5 6 6 8 11
34 41 46 47 49 52 56 59 61 56 47 39 35 34 34 34 34 34 31 26 21 15 10 8 8 7 6 8 9 8 7 6 5 4 4 5 5 6 6 6 5 6 8
32 42 50 52 52 53 59 65 66 62 52 44 39 36 34 33 33 35 34 31 28 25 19 16 16 14 11 11 12 11 10 9 7 6 4 4 4 6 7 7 6 7 7
28 39 53 58 58 58 63 69 70 65 56 49 43 39 35 33 31 32 33 30 29 31 29 25 23 21 18 17 16 16 14 12 10 8 6 5 4 6 8 8 7 6 6
25 34 49 60 63 62 65 71 72 66 56 52 49 45 41 34 30 31 32 30 29 32 36 33 28 26 23 21 21 19 16 15 13 10 9 8 6 8 10 10 8 7 6
27 33 44 56 62 64 68 74 76 70 60 56 55 51 45 36 29 30 31 32 33 37 42 39 32 29 26 24 24 20 17 17 16 13 13 11 8 9 12 12 11 9 8
34 36 43 51 58 62 70 78 81 78 69 62 56 51 47 39 31 28 30 33 36 42 47 43 35 30 28 26 25 22 18 17 17 17 16 14 11 10 11 12 12 12 11
38 40 46 54 58 62 70 77 81 80 75 68 59 54 53 50 42 36 35 37 41 45 47 45 39 33 28 26 27 25 21 17 16 15 14 15 14 13 12 12 13 13 13
45 47 54 62 64 65 70 75 76 75 72 70 66 62 63 63 58 51 47 47 48 47 46 45 43 38 30 28 28 26 21 17 15 12 13 15 15 15 15 14 13 13 13
59 61 65 69 70 70 73 75 73 70 68 69 70 70 70 70 68 62 58 57 55 52 49 47 47 43 37 33 32 27 22 19 17 16 17 17 15 15 15 14 12 11 11
73 74 77 78 77 76 77 76 74 72 69 68 71 73 72 71 70 66 63 63 61 58 54 51 49 47 41 37 35 30 25 23 22 21 20 19 15 13 12 12 11 11 11
75 78 84 86 86 83 80 76 76 78 75 71 71 72 71 69 68 66 63 63 62 59 57 55 52 47 39 32 31 31 28 26 25 23 21 18 13 10 8 8 9 10 11
71 75 82 86 87 86 80 76 78 80 80 77 74 71 69 67 66 64 62 61 60 59 57 56 53 47 34 24 23 26 28 29 28 26 23 18 11 7 6 5 5 7 8
68 70 73 76 79 80 78 76 77 78 80 79 75 71 69 67 65 63 61 59 59 59 57 55 53 46 31 19 17 20 27 30 30 28 26 21 14 9 7 6 5 5 6
66 65 64 65 68 71 74 75 76 76 77 77 73 70 68 67 66 64 61 60 60 59 57 55 53 46 31 18 13 16 23 28 30 28 26 23 16 10 9 9 8 8 8
65 63 61 61 65 68 72 74 74 75 75 74 72 70 70 68 67 66 63 61 60 58 56 55 54 48 33 17 9 12 19 25 29 28 25 21 15 9 8 10 11 10 10
59 59 59 60 64 69 72 73 73 72 72 71 70 69 69 67 65 64 62 59 58 56 55 54 54 49 36 18 7 9 16 23 27 28 25 19 11 5 4 8 10 10 10
51 51 52 56 60 65 69 71 72 70 67 64 63 62 62 61 60 60 60 58 57 55 52 50 50 48 37 20 6 6 12 19 24 27 26 18 8 2 1 3 7 8 7
46 45 48 52 56 60 65 68 68 65 59 55 54 56 57 55 56 58 58 58 57 53 49 47 46 46 39 24 9 4 6 12 19 24 22 13 5 0 0 1 4 5 6
41 42 45 48 51 54 59 61 60 56 52 50 50 52 55 54 53 53 53 52 51 48 45 43 42 43 41 31 16 5 2 5 11 14 11 5 1 0 0 1 2 4 5
36 37 39 42 43 46 50 53 52 50 50 51 52 52 53 51 48 45 43 41 40 39 40 40 38 39 39 33 22 11 6 4 4 5 4 2 1 1 1 2 3 5 5
34 34 35 36 35 37 41 45 48 49 51 53 53 50 45 42 39 34 29 26 25 26 30 32 32 32 32 29 22 16 12 7 3 4 6 6 5 5 6 6 6 7 8
35 34 34 33 33 34 37 42 46 47 50 52 51 45 39 34 31 27 20 15 14 17 20 23 25 26 25 23 19 15 13 8 4 5 9 11 9 9 9 9 9 9 10

GEFSMW_con_probscp_204.txt.gz
Probability
11 12 16 16 17 16 14 12 11 11 11 11 9 5 2 2 2 1 0 0 0 0 0 0 0 0 0 0 0 0 0 0 0 0 0 0 0 0 0 0 0 0 0
12 14 19 22 21 19 17 15 14 13 12 11 9 5 1 1 1 0 0 0 0 0 0 0 0 0 0 0 0 0 0 0 0 0 0 0 0 0 0 0 0 0 0
13 17 23 29 29 25 23 22 21 17 12 9 7 5 2 1 1 0 0 0 1 1 0 0 0 0 0 0 0 0 0 0 0 0 0 0 0 0 0 0 0 0 0
15 19 26 33 35 32 30 28 25 19 12 8 7 6 4 2 1 0 0 0 1 1 0 0 0 0 0 0 0 0 0 0 0 0 0 0 0 0 0 0 0 0 0
20 23 27 32 37 38 34 30 26 20 15 11 8 6 3 2 1 0 0 0 0 0 0 0 1 2 1 0 0 0 0 0 0 0 0 0 1 1 1 0 0 1 1
25 27 27 30 37 40 37 32 28 25 21 18 13 8 5 3 1 1 0 0 0 0 0 1 2 3 2 1 0 0 0 0 0 1 1 1 2 2 2 1 1 2 2
28 30 30 32 38 41 40 37 35 32 29 25 20 14 9 7 5 3 3 2 2 1 0 1 3 3 2 1 0 1 1 1 1 1 2 2 2 3 3 3 3 3 2
30 32 33 35 40 44 44 43 42 39 35 31 26 20 15 10 8 7 7 5 4 2 2 2 3 4 4 3 3 4 3 2 2 2 1 1 1 2 3 3 3 3 3
34 34 35 37 42 48 49 49 48 45 40 36 30 24 20 15 12 10 8 7 5 4 5 5 5 7 8 8 7 6 4 3 2 1 1 1 1 2 3 3 3 3 3
35 36 37 39 44 50 53 53 52 49 45 41 34 27 24 22 18 14 11 9 6 7 9 9 9 10 12 11 9 6 4 3 2 1 1 2 2 2 2 2 2 2 2
34 36 40 43 46 50 54 53 52 52 50 45 38 31 27 26 23 21 18 14 11 13 14 14 13 13 13 12 9 6 4 3 2 1 2 2 2 1 1 1 1 2 2
35 37 42 46 48 49 52 51 52 54 52 46 40 35 31 28 25 24 22 18 15 16 18 19 17 15 14 12 10 7 6 4 2 1 1 1 1 1 1 1 2 2 2
38 40 43 46 46 47 49 49 50 52 51 46 43 39 34 30 27 25 23 21 18 17 18 19 18 16 15 13 11 10 8 5 2 0 0 0 1 2 3 3 3 4 4
43 42 41 42 42 43 45 46 46 47 49 50 49 43 37 32 29 26 26 25 23 19 17 16 16 16 15 13 12 12 11 7 3 1 1 1 2 3 3 3 4 4 5
46 43 38 37 39 39 41 42 43 45 50 55 53 46 39 33 28 27 28 29 29 25 20 17 17 16 15 13 13 15 14 10 5 3 3 3 3 4 3 3 3 4 4
46 42 37 35 34 35 37 38 40 43 49 53 52 46 41 34 29 29 30 31 32 30 24 20 18 17 15 14 15 17 16 12 8 6 6 5 6 5 3 2 3 3 3
46 42 37 32 30 31 34 36 36 38 44 47 48 46 43 38 35 35 35 34 33 32 30 25 21 19 16 15 15 16 16 14 10 9 8 8 8 7 4 3 3 3 3
45 42 36 31 30 30 32 34 33 33 37 42 45 45 44 41 39 39 39 37 36 35 33 30 26 22 19 16 13 13 15 15 12 10 11 10 10 8 6 4 3 4 4
39 38 35 33 31 30 31 32 31 31 34 38 41 43 43 41 39 38 39 40 39 37 34 32 30 26 21 15 10 9 13 15 13 12 12 11 10 8 6 4 4 4 4
32 33 33 33 30 27 26 26 26 27 29 32 35 38 39 39 38 38 39 41 41 40 36 32 30 26 20 12 6 7 12 14 13 12 12 10 7 5 4 4 5 5 4
27 26 26 27 24 21 21 20 19 18 21 25 29 32 33 33 34 36 37 37 38 39 36 32 27 24 19 11 5 6 10 11 11 11 11 9 5 3 2 2 4 4 3
20 18 17 17 15 14 14 14 13 12 13 18 24 27 27 26 26 28 29 28 29 31 31 29 26 23 20 15 8 5 5 7 9 10 9 7 4 1 0 1 1 1 1
14 12 10 8 6 6 7 8 9 9 10 12 16 19 20 20 20 20 19 17 17 20 22 23 23 22 20 18 13 7 4 4 6 8 6 5 3 1 0 0 0 0 0
9 7 5 2 1 1 2 3 4 6 7 8 10 12 14 16 16 15 12 10 9 10 12 15 18 19 19 18 17 12 6 3 3 4 4 3 2 1 0 0 0 0 0
4 3 2 0 0 0 0 1 1 2 4 5 6 8 10 12 13 12 9 6 3 3 5 7 10 12 13 13 12 11 7 3 2 2 1 1 1 0 0 0 0 0 0
1 1 1 1 0 0 0 0 0 1 2 3 3 5 7 10 12 10 7 5 2 1 2 3 4 6 7 7 6 6 5 2 2 2 1 0 0 0 0 0 0 0 0

GEFSMW_con_probscp_210.txt.gz
Probability
0 0 1 3 4 2 1 0 0 0 0 0 0 0 0 0 0 0 0 0 0 0 0 0 0 0 0 0 0 0 0 0 0 0 0 0 0 0 0 0 0 0 0
1 0 1 3 3 1 0 0 0 0 0 1 1 0 0 0 0 0 0 0 0 0 0 0 1 1 0 0 0 0 0 0 0 0 0 0 0 0 0 0 0 0 0
3 2 2 2 2 1 0 0 1 1 2 3 3 2 1 1 2 1 1 0 0 0 0 1 2 2 1 0 0 0 0 0 0 0 0 0 0 0 0 0 0 0 0
5 5 3 2 2 1 1 2 4 5 5 5 5 5 4 3 3 3 2 1 1 0 1 1 3 3 1 1 0 0 0 0 0 0 0 0 0 0 0 0 0 0 0
6 6 4 2 2 3 3 5 8 8 7 7 7 7 6 4 3 3 3 3 2 2 2 3 4 4 3 2 1 0 0 0 0 0 0 0 0 0 0 0 0 0 0
7 7 6 5 5 7 7 8 9 9 8 8 8 7 6 5 4 3 3 3 3 3 4 5 6 6 5 3 2 1 0 0 0 0 0 0 0 0 0 0 0 0 0
11 11 12 12 13 14 13 13 12 11 11 10 9 8 7 6 4 3 2 2 3 4 6 8 9 9 7 5 2 1 0 0 1 1 1 1 0 0 0 0 0 0 0
15 17 18 20 22 23 23 22 19 18 18 15 10 9 9 7 5 2 1 1 3 6 8 10 10 10 8 5 2 0 0 0 1 2 2 1 0 0 0 0 1 1 0
18 19 22 26 30 32 32 32 29 26 24 21 15 12 13 12 8 5 4 3 4 7 9 11 11 10 8 5 2 1 1 1 2 2 1 1 0 0 0 0 1 1 1
19 21 24 29 33 35 37 38 34 30 28 26 22 18 18 19 16 12 10 8 9 10 11 13 12 11 8 7 5 3 3 4 5 4 2 1 1 1 1 0 1 1 0
20 23 25 28 31 34 37 38 34 31 30 30 28 24 24 25 24 20 17 15 15 15 14 15 14 12 9 8 6 5 5 7 7 6 4 3 3 2 2 1 1 1 0
21 24 27 31 34 36 37 37 34 33 34 34 31 28 28 31 31 27 23 21 19 18 16 16 15 13 12 10 9 9 10 11 10 9 8 7 5 4 3 3 3 3 2
21 25 31 35 38 39 39 37 36 36 36 35 33 31 32 35 36 33 28 23 20 18 17 15 15 16 16 15 16 16 17 16 14 13 12 10 7 5 3 3 4 4 4
21 25 32 35 36 38 38 37 37 37 35 35 34 33 34 37 38 36 31 25 20 17 16 14 15 18 19 18 20 21 21 19 18 16 14 12 9 6 4 3 4 4 4
21 25 29 31 31 31 32 33 35 36 35 34 33 32 32 35 37 36 32 26 21 18 15 13 14 17 17 17 18 20 20 20 19 18 15 13 11 8 5 5 5 6 5
23 24 25 26 25 24 24 28 33 35 34 32 28 26 25 27 31 32 30 28 25 21 16 14 13 14 14 14 14 15 18 19 19 19 18 16 13 9 7 6 5 5 5
24 23 23 23 21 20 22 26 31 33 32 28 23 19 18 20 22 26 29 30 27 22 19 16 15 13 12 11 11 12 15 18 19 19 18 17 15 12 11 9 6 5 4
23 23 24 23 21 21 23 25 26 28 28 23 19 16 15 17 20 23 26 28 25 23 22 20 18 16 13 11 10 10 13 17 18 18 16 15 16 16 16 15 11 9 8
22 24 25 23 21 21 23 22 22 23 23 20 17 15 14 16 20 21 21 22 22 22 22 21 20 20 17 13 9 8 12 16 17 16 13 13 16 16 16 16 16 14 13
22 24 25 23 21 19 19 19 19 19 19 17 17 14 13 14 17 19 18 19 20 20 20 19 19 22 20 15 8 7 12 16 17 16 14 13 12 11 10 12 15 14 13
21 22 22 19 16 15 14 13 13 13 13 14 16 14 13 14 16 17 17 19 21 21 20 19 20 21 19 14 7 5 9 15 16 16 15 13 9 5 4 7 11 11 8
18 17 15 12 9 9 9 8 8 8 10 12 13 13 12 14 16 16 17 19 22 22 21 21 21 21 18 14 7 2 4 8 12 12 12 10 6 3 1 3 5 5 3
13 10 9 9 6 5 5 5 5 5 7 9 9 9 10 11 12 14 16 19 22 22 21 20 19 18 17 14 9 4 2 3 5 7 6 5 4 3 2 2 2 2 2
6 5 6 6 5 3 3 3 2 2 4 5 6 6 6 7 9 11 13 16 19 19 17 15 14 13 12 11 10 7 4 2 2 3 3 3 3 3 3 3 2 2 2
2 2 3 4 3 2 1 1 1 1 2 3 4 4 3 4 5 6 7 9 11 11 10 8 8 7 6 6 6 6 5 3 2 2 3 3 4 3 3 3 3 3 3
1 1 1 2 2 2 1 0 0 0 1 1 2 1 2 3 3 2 2 4 5 5 4 3 4 3 1 1 2 2 2 1 1 1 2 3 4 4 3 3 3 3 3

GEFSMW_con_probscp_216.txt.gz
Probability
1 2 3 3 4 6 6 5 5 5 5 4 2 0 0 0 0 0 0 0 1 2 3 3 4 4 3 2 2 2 1 0 0 0 0 0 0 0 0 0 0 0 0
4 4 4 4 5 6 7 6 6 6 7 6 2 1 1 0 0 0 0 1 2 4 5 5 5 5 4 2 3 3 1 0 0 0 0 0 0 0 0 0 0 0 0
6 7 7 6 6 6 7 7 8 10 11 8 3 2 3 2 1 1 1 1 3 5 6 6 7 7 6 4 4 4 3 1 1 0 0 0 0 0 0 0 0 0 0
8 10 9 6 6 7 7 7 9 12 13 10 5 3 3 3 3 3 3 3 4 6 7 7 8 8 9 7 6 5 4 3 2 1 0 0 1 1 1 0 0 0 0
10 11 8 5 5 7 9 9 11 14 15 12 10 7 5 4 4 4 3 3 5 7 9 9 10 11 11 10 9 8 7 5 4 3 2 2 3 3 2 1 1 1 1
12 13 11 8 8 11 13 15 18 20 18 15 13 11 9 7 6 5 4 4 5 8 10 11 12 13 13 13 12 11 10 8 7 7 6 5 5 5 4 3 2 1 0
14 16 18 16 15 18 20 24 27 28 23 18 15 13 13 11 9 8 6 6 6 7 10 12 14 15 15 16 16 15 13 11 12 11 9 8 7 7 6 4 2 1 1
15 17 21 20 19 21 25 29 32 31 27 23 21 18 16 14 13 12 11 9 8 8 11 15 17 18 18 18 20 19 16 13 13 12 11 12 12 10 9 7 5 4 3
14 16 19 20 19 22 26 30 31 31 29 28 26 24 21 19 18 18 18 16 14 13 15 18 20 21 21 20 22 22 18 14 12 11 12 14 14 12 11 10 8 7 6
14 15 18 22 23 25 29 31 33 32 31 29 26 25 24 23 22 23 25 26 26 24 21 20 21 23 24 24 23 21 18 15 13 12 13 14 13 11 11 11 10 10 10
16 17 21 26 31 33 35 37 37 34 31 28 27 28 26 25 27 30 32 34 35 34 29 24 23 25 27 28 26 22 20 18 15 14 15 14 12 11 12 12 11 11 12
21 24 29 33 37 41 44 44 40 36 35 35 37 38 36 34 37 39 40 41 40 37 33 29 28 28 29 30 29 26 23 20 17 16 16 16 15 16 16 15 12 12 13
27 32 37 40 42 45 49 49 45 42 44 46 49 51 51 49 48 47 45 46 43 40 37 34 35 35 33 32 30 28 27 24 21 19 18 18 19 21 21 19 16 15 16
32 36 43 46 46 47 50 51 49 48 51 54 56 58 59 59 55 50 48 46 44 41 41 39 39 40 38 33 31 30 29 28 25 22 20 20 22 23 23 21 20 19 20
34 37 42 46 47 48 50 50 49 50 52 54 56 57 58 60 59 54 50 47 42 41 43 44 42 40 36 31 28 28 28 29 26 23 21 21 21 21 20 19 20 22 23
34 36 38 41 44 46 47 47 48 50 50 51 52 53 54 56 55 53 52 50 46 43 45 45 43 39 32 23 19 21 25 28 26 22 21 20 19 19 18 16 15 17 19
33 35 36 37 40 43 45 45 48 49 48 46 46 47 50 51 48 46 47 48 46 44 43 43 42 41 31 16 9 12 20 25 25 22 20 20 20 20 20 18 14 14 15
31 34 37 36 37 41 43 43 45 46 44 43 44 44 44 44 42 40 41 41 40 39 38 38 41 41 30 13 5 8 15 22 24 24 23 24 24 23 24 23 21 21 21
29 33 37 36 37 41 43 41 42 42 41 41 42 40 37 36 35 34 35 37 37 35 33 36 39 40 31 15 5 7 16 22 25 27 27 27 26 24 24 27 30 30 30
29 32 35 35 35 39 41 40 40 40 38 37 37 33 29 28 28 29 30 32 34 32 31 33 36 37 32 19 7 8 19 26 29 30 29 25 21 18 18 25 33 35 35
32 34 35 34 33 35 37 36 36 36 35 33 31 28 24 22 22 25 26 26 28 29 29 30 31 32 29 20 8 8 18 25 28 30 28 22 15 10 9 17 26 30 29
32 32 32 33 34 34 32 31 32 32 32 31 28 24 19 16 16 18 19 20 23 26 27 26 25 26 25 18 9 5 10 17 23 27 26 19 10 4 2 6 13 14 14
28 27 28 32 34 33 29 27 27 28 27 25 22 19 17 15 14 15 16 17 20 21 22 22 22 23 23 18 11 6 4 7 15 21 19 12 5 1 1 2 3 4 5
24 24 26 29 30 28 24 21 22 23 21 19 18 18 17 16 15 15 15 16 17 17 17 20 21 22 23 20 15 11 7 5 9 14 13 8 5 4 4 5 5 5 7
22 22 23 24 23 20 16 14 15 16 17 17 17 16 15 15 15 14 12 11 11 10 12 16 18 19 19 17 13 11 8 6 8 11 12 11 10 10 11 12 11 10 11
20 19 19 18 16 13 11 11 11 13 15 17 17 14 13 14 13 11 8 5 4 5 7 11 14 15 14 12 9 7 7 7 8 10 13 14 15 14 15 16 14 13 15

GEFSMW_con_probscp_222.txt.gz
Probability
16 17 18 21 29 41 43 36 30 27 22 15 12 12 9 7 6 9 13 13 11 9 8 6 6 6 6 4 4 5 5 4 2 2 1 0 1 1 3 8 8 6 6
24 24 24 25 32 41 44 38 32 28 22 16 12 12 11 9 8 11 14 14 11 10 9 8 7 6 5 5 5 6 6 4 3 2 1 0 0 1 3 7 9 8 8
34 34 33 32 37 43 44 38 36 31 23 17 14 13 13 12 13 16 18 17 15 12 11 10 9 7 7 7 8 8 7 6 6 5 4 2 2 2 2 4 6 8 9
38 39 38 37 39 42 42 39 38 34 27 21 17 15 14 13 17 21 21 21 18 14 13 11 10 10 10 10 11 11 9 9 9 9 8 6 6 6 3 1 3 6 7
36 37 39 39 38 38 38 38 38 36 31 26 23 20 16 16 19 22 24 24 20 18 17 15 13 12 12 11 11 11 11 11 11 11 11 10 10 10 5 1 2 4 5
37 39 43 46 43 38 37 38 41 39 33 29 28 27 23 22 23 24 26 25 23 22 23 22 19 16 15 14 13 14 15 15 15 15 14 14 14 12 7 3 3 4 5
40 44 51 56 53 47 44 45 48 47 39 33 31 31 29 28 28 28 28 25 23 25 28 29 27 23 20 19 18 19 19 19 20 20 20 19 17 13 10 8 7 6 6
38 43 52 60 61 57 55 56 60 58 50 41 35 34 34 32 32 31 30 26 24 27 32 35 32 28 25 22 22 22 22 23 24 25 27 26 21 15 12 12 11 9 7
31 38 48 57 61 61 61 66 71 69 60 50 42 38 39 36 34 32 30 27 26 29 36 39 36 31 27 24 23 23 24 27 28 28 29 29 24 17 15 16 15 11 8
28 35 45 51 55 57 60 68 75 73 66 58 51 46 45 42 38 35 33 31 30 31 37 41 39 35 31 28 26 25 27 31 32 29 28 28 24 19 18 18 16 12 9
28 34 41 46 49 52 58 67 74 73 68 64 59 56 56 53 47 44 43 41 39 38 40 42 40 38 37 37 33 30 30 33 33 30 27 26 23 21 21 20 17 13 11
29 35 41 45 49 54 62 69 73 72 70 69 67 67 68 65 59 56 54 52 50 49 47 44 40 38 42 44 40 34 32 34 34 32 28 25 22 22 22 20 19 16 13
32 36 43 48 55 62 68 71 71 70 69 69 70 72 73 69 64 61 60 58 57 56 53 46 41 41 44 47 44 39 36 36 36 34 31 27 24 23 23 21 20 18 16
39 40 45 53 60 66 71 73 72 70 67 67 69 70 71 68 64 61 61 60 58 56 53 47 43 43 44 45 45 44 42 40 39 37 35 31 27 26 25 24 23 22 21
45 46 50 56 62 65 68 70 73 73 70 68 67 66 66 66 65 62 62 60 56 53 50 46 44 44 41 37 40 42 42 42 42 40 37 33 29 27 25 23 24 25 26
44 47 53 59 63 64 64 66 69 72 73 70 66 63 63 64 64 63 61 58 55 52 49 47 47 46 39 28 27 32 36 39 40 40 37 31 26 24 22 19 18 21 24
41 42 50 57 60 61 62 62 63 65 67 68 64 60 60 60 60 58 57 57 55 53 51 49 49 47 37 23 16 21 30 34 37 39 39 31 24 24 25 22 18 18 19
38 38 41 48 53 57 57 57 58 59 60 59 57 54 53 53 53 54 54 54 53 53 52 50 49 45 35 19 10 14 24 32 35 37 39 36 30 27 29 27 24 23 22
37 37 37 43 50 55 55 53 54 55 54 52 50 48 46 46 47 50 52 51 49 49 49 47 46 42 32 17 8 10 23 34 36 34 34 33 31 26 25 26 29 29 26
39 38 39 45 51 53 53 53 52 52 51 50 49 48 45 43 44 47 49 47 45 44 42 41 42 40 31 18 7 9 24 35 36 32 27 23 22 18 15 20 28 30 28
38 38 40 45 47 48 48 48 48 47 47 48 49 49 46 43 43 45 45 43 41 39 36 35 37 37 31 19 8 7 17 27 31 30 26 21 14 9 6 11 21 24 22
36 36 39 41 42 42 42 41 42 43 43 44 46 46 44 42 41 41 40 38 36 34 32 32 31 31 28 20 10 4 7 15 22 25 23 18 10 3 1 4 10 12 11
34 36 37 38 38 39 38 38 38 40 41 42 43 42 40 38 36 32 30 30 30 28 28 27 25 24 25 22 14 6 3 6 12 16 15 10 5 2 1 3 5 6 8
32 34 36 37 37 37 38 39 39 39 40 39 38 34 32 30 28 23 21 22 22 22 22 22 20 20 21 20 16 11 7 6 8 10 9 6 4 5 7 8 7 9 12
30 33 36 36 35 36 37 37 37 36 35 32 28 23 21 21 21 18 16 15 14 13 14 14 15 15 15 14 12 11 10 9 9 9 9 8 8 10 13 13 11 12 15
30 33 35 34 34 34 34 34 33 31 29 26 21 17 14 17 18 17 14 10 8 7 7 8 10 10 10 9 7 7 9 10 9 9 10 11 12 13 14 14 12 13 14

GEFSMW_con_probscp_228.txt.gz
Probability
11 12 12 13 14 12 9 9 12 9 6 4 3 3 3 3 3 3 3 3 3 3 3 2 1 0 0 1 2 3 3 2 1 0 0 0 0 0 0 0 0 0 0
14 14 15 16 18 15 12 12 14 12 7 3 2 2 2 2 2 3 4 4 4 4 4 3 2 0 0 0 1 2 3 2 0 0 0 0 0 0 0 0 0 0 0
15 15 18 20 21 19 16 16 17 15 10 5 3 2 1 1 1 3 4 5 4 4 4 3 2 1 0 0 0 1 2 2 1 0 0 0 0 0 0 0 0 0 0
13 15 18 22 23 22 21 21 21 18 15 11 9 6 2 1 2 3 5 5 4 5 4 4 3 2 2 1 1 1 2 3 2 1 0 0 0 0 0 0 0 0 0
12 14 17 21 24 25 25 26 25 22 20 18 16 11 6 3 3 3 4 4 3 3 5 5 4 4 4 4 4 3 3 3 4 2 1 0 0 0 0 0 0 0 0
14 15 18 22 24 26 28 29 28 25 22 20 18 13 9 7 5 5 4 4 2 2 3 5 4 4 5 6 7 6 5 5 6 5 2 1 1 1 1 1 0 0 0
15 15 18 22 24 25 29 31 29 26 23 20 16 14 12 10 9 8 6 5 3 1 3 5 5 5 6 7 8 8 8 8 9 8 5 4 4 3 3 2 1 0 0
12 13 16 21 23 25 29 33 33 30 25 21 18 15 14 13 12 11 10 8 5 3 4 7 6 5 6 8 10 11 11 11 11 10 8 7 6 6 5 4 2 1 0
10 12 16 20 24 29 34 38 39 36 31 28 25 20 18 17 16 14 14 13 10 7 6 7 7 7 8 9 11 12 12 12 12 11 10 9 8 6 6 5 4 2 1
14 18 22 23 25 33 40 44 44 40 37 38 34 28 24 22 20 18 18 17 14 10 8 7 8 10 11 11 11 11 11 12 13 12 10 9 7 6 5 5 4 4 4
19 22 24 25 27 35 42 47 48 43 40 42 40 35 30 27 25 23 20 19 16 13 10 10 11 12 13 12 12 11 10 10 11 10 8 6 6 6 6 6 5 6 6
22 22 23 26 29 34 39 45 50 47 42 42 42 39 36 33 30 26 23 21 17 14 13 13 14 14 14 15 15 13 11 9 8 7 5 4 4 6 8 8 7 7 7
22 22 24 27 29 32 37 42 47 48 45 45 44 42 41 39 35 30 28 27 22 18 16 17 17 17 16 18 18 17 15 12 10 8 6 5 5 6 9 9 8 8 7
22 22 24 28 30 33 36 40 44 46 46 46 45 43 43 41 37 34 33 33 29 24 21 21 21 21 19 18 18 18 19 17 15 13 11 10 9 8 9 10 10 10 9
24 24 27 31 35 35 36 37 40 43 45 44 43 42 40 39 38 36 36 35 32 28 25 24 25 24 21 17 15 17 19 18 17 16 15 13 11 9 8 9 10 11 12
27 28 32 35 37 37 36 36 37 39 41 41 40 38 36 35 36 35 34 32 30 29 28 28 27 25 21 15 12 14 17 17 16 14 14 13 11 9 7 6 7 9 10
28 29 31 32 33 36 37 36 36 37 37 36 35 33 32 32 33 31 29 29 28 28 28 27 25 23 20 14 9 9 13 15 14 13 13 12 10 8 6 4 4 4 4
26 27 27 27 30 34 36 36 35 35 34 33 32 30 29 30 30 29 26 25 25 25 25 24 24 23 21 14 7 7 12 15 14 13 13 13 11 8 7 6 4 2 1
23 25 26 26 29 33 34 33 32 31 31 30 30 30 29 28 28 27 25 22 22 22 22 23 22 21 19 14 7 7 11 15 15 14 13 13 11 7 5 5 5 4 3
22 24 25 25 26 29 29 29 29 29 28 28 29 31 30 29 26 25 23 21 20 19 19 20 19 17 16 11 6 6 11 14 13 12 11 10 8 5 3 4 6 7 6
24 24 23 22 22 24 24 25 27 28 28 27 27 28 28 27 24 21 20 20 20 17 13 14 15 14 12 9 5 4 8 11 11 10 9 8 5 3 1 3 6 7 7
25 24 22 20 20 22 24 25 26 28 28 26 24 23 23 22 20 17 16 16 16 13 9 9 10 10 9 8 4 2 3 6 8 8 8 7 5 1 0 1 3 3 3
22 22 20 19 21 23 24 24 25 27 28 25 21 19 18 17 15 14 14 13 12 9 7 6 6 7 6 6 5 2 1 3 5 5 5 4 3 1 0 0 0 0 1
17 18 18 19 21 23 24 24 24 24 25 23 20 17 16 14 13 12 11 11 9 7 6 5 6 7 7 6 6 4 3 3 3 4 4 3 2 2 1 1 0 1 2
14 15 16 18 20 23 24 23 21 21 21 20 16 14 12 11 11 9 8 7 6 5 5 5 6 7 6 6 6 5 5 5 5 5 5 5 4 4 3 2 2 3 3
13 14 15 17 19 22 23 23 20 18 18 16 13 10 9 9 8 6 5 4 4 3 3 4 5 5 4 4 4 5 6 6 6 6 6 6 6 6 5 4 4 4 4

GEFSMW_con_probscp_234.txt.gz
Probability
3 2 2 3 5 5 4 3 3 3 2 1 0 0 0 0 0 0 0 0 0 0 0 0 0 0 0 0 0 0 0 0 0 0 0 0 0 0 0 0 0 0 0
3 3 2 3 4 5 4 3 3 3 3 1 0 0 0 0 0 0 0 0 0 0 0 0 0 0 0 0 0 0 0 0 0 0 0 0 0 0 0 0 0 0 0
3 4 4 4 5 5 4 3 3 3 3 2 1 0 0 0 0 0 0 0 0 0 0 0 0 0 0 0 0 0 0 1 0 0 0 0 0 0 0 0 0 0 0
4 4 6 6 7 7 5 4 3 3 4 4 3 1 1 0 0 0 0 0 0 0 0 0 0 0 0 0 0 0 0 1 1 1 1 0 0 0 0 0 0 0 0
4 5 6 8 9 9 9 6 5 5 7 8 7 4 3 1 0 0 0 0 0 0 0 0 0 0 0 0 0 1 1 1 2 2 2 1 1 1 1 1 0 0 0
6 5 6 8 9 10 12 12 9 8 10 11 10 7 5 3 2 1 1 0 0 0 0 0 0 0 0 0 1 2 2 3 3 3 3 3 3 3 3 2 1 0 0
7 5 5 6 7 9 12 15 13 10 10 11 11 9 7 5 4 3 2 1 1 1 0 0 0 0 0 1 1 3 4 4 4 4 4 5 6 6 6 5 3 1 0
6 5 5 6 7 8 11 14 14 11 10 10 10 10 9 8 6 4 3 4 4 3 2 1 1 0 1 1 2 3 4 5 5 6 6 7 8 8 9 8 5 2 0
5 5 4 6 7 8 10 14 14 12 9 8 9 9 10 9 8 6 5 5 6 6 5 3 2 2 1 1 1 2 3 5 6 6 7 8 9 9 9 8 6 4 2
4 4 6 7 8 9 11 14 15 12 9 8 8 10 11 10 9 8 7 6 6 8 9 7 6 5 2 1 1 3 4 4 5 6 7 9 10 9 8 7 6 5 4
3 5 8 9 9 11 13 16 16 13 9 8 10 12 13 12 11 11 10 9 8 9 11 11 10 8 6 4 4 5 5 5 5 6 6 8 9 10 9 7 6 4 3
4 6 9 10 10 12 15 18 19 17 14 14 15 17 17 16 15 14 14 14 14 13 13 13 13 12 10 9 9 8 7 7 7 7 7 8 9 11 11 9 8 6 4
5 7 9 10 10 12 16 20 22 22 22 22 23 24 23 21 20 19 19 21 20 18 15 13 13 13 13 13 13 13 10 9 9 8 8 10 11 13 13 12 11 10 10
8 9 10 10 11 13 17 22 25 27 27 29 30 30 29 27 25 23 22 24 24 20 17 14 13 13 13 13 15 16 14 11 10 10 10 11 13 14 14 13 13 13 13
11 11 10 10 11 14 19 23 25 27 28 30 31 32 32 31 29 26 24 25 25 23 21 18 15 15 13 12 14 16 14 13 13 13 12 12 12 13 13 13 13 12 12
13 12 11 9 12 18 23 25 25 25 26 27 27 29 31 30 29 27 26 26 26 25 23 21 19 17 15 12 11 12 12 12 13 13 12 11 10 9 10 9 8 8 9
15 15 13 11 15 23 27 27 24 23 24 24 24 25 26 27 26 26 28 27 25 23 22 22 21 20 16 10 7 6 7 8 8 8 9 9 8 7 7 6 5 6 7
19 18 16 15 17 22 25 25 24 22 22 21 20 20 22 23 23 24 25 25 23 21 20 19 20 19 14 7 3 2 2 3 4 4 6 7 7 7 7 7 7 7 8
20 19 18 17 17 18 19 21 22 22 21 20 19 18 20 21 22 23 22 22 22 20 17 16 17 15 10 4 0 0 1 1 2 3 5 6 7 6 6 8 9 9 9
19 18 17 16 17 16 15 16 18 19 19 20 20 20 20 21 22 22 21 21 20 16 15 14 12 10 6 1 0 1 2 2 2 4 6 6 6 5 4 6 9 9 10
16 17 17 17 16 15 14 14 14 15 16 18 20 21 21 21 21 21 21 20 17 14 14 12 9 7 4 1 0 1 2 3 3 4 6 6 5 2 2 4 8 9 8
14 15 17 17 15 14 14 13 12 13 14 15 17 19 20 20 20 20 19 18 16 15 15 13 9 6 3 2 1 0 1 2 3 4 4 4 3 1 0 2 5 5 4
13 14 15 16 15 13 14 14 13 13 13 13 13 15 17 18 19 19 19 17 16 16 16 14 10 6 4 2 1 0 0 0 1 2 2 1 1 0 0 1 2 2 2
13 14 15 16 15 14 14 15 16 15 13 12 10 10 13 16 17 17 16 16 15 15 15 13 10 6 4 3 1 0 0 0 0 1 1 0 1 1 1 2 2 2 3
11 13 14 14 15 15 15 16 17 16 14 12 10 8 10 13 13 12 11 10 10 10 10 10 7 6 5 3 1 1 0 0 0 0 0 0 1 2 3 3 4 4 3
8 10 12 12 14 15 15 16 17 16 15 13 10 8 8 10 10 8 6 5 5 5 6 6 5 4 4 3 1 1 0 0 0 0 0 0 1 3 3 4 4 4 4

GEFSMW_con_probscp_240.txt.gz
Probability
0 1 3 4 4 5 6 7 9 11 9 6 4 4 4 3 3 3 2 1 1 1 1 1 1 1 0 0 0 1 1 1 2 3 1 0 0 0 0 0 0 0 0
0 1 3 4 5 7 7 6 8 11 10 8 6 5 4 3 3 3 2 1 1 1 1 1 1 0 0 0 1 2 2 2 3 3 2 1 0 0 1 1 0 0 0
1 1 3 4 5 6 6 5 7 10 11 10 8 7 6 4 4 3 1 1 1 1 1 1 1 0 0 1 2 3 3 3 3 3 3 1 1 1 2 2 1 0 1
3 3 3 4 3 3 5 7 9 11 11 11 10 8 7 5 5 3 1 1 2 2 2 2 1 0 0 1 2 3 3 3 2 3 4 4 3 3 3 2 1 2 3
5 4 4 3 2 2 5 10 14 15 14 13 12 11 8 7 5 4 3 2 3 4 5 4 2 1 0 1 1 1 3 3 3 5 6 7 7 7 6 4 3 4 5
6 5 5 4 4 5 8 14 19 20 19 16 14 13 10 7 5 5 4 4 4 5 5 5 4 2 1 1 0 1 3 4 4 5 6 8 9 9 9 8 6 6 6
7 7 6 7 7 9 12 18 22 23 21 19 16 13 10 6 5 6 7 6 5 5 5 6 5 3 3 3 3 3 4 5 5 5 6 7 8 9 9 9 8 7 6
7 7 7 8 8 10 14 20 23 22 21 21 18 13 10 6 6 8 8 6 6 6 6 8 8 6 5 6 7 8 8 9 9 9 9 9 8 8 8 9 9 8 6
7 8 8 9 8 9 13 18 22 22 23 22 19 15 12 9 7 8 7 6 6 6 7 9 11 11 10 10 12 13 14 15 15 16 15 14 11 9 9 9 11 11 10
9 10 11 11 9 9 12 15 19 21 22 22 19 15 14 12 10 9 9 9 9 9 10 12 15 16 15 16 17 17 17 17 18 18 18 17 15 13 12 11 13 15 15
14 14 15 14 14 14 14 16 18 19 19 19 18 16 16 15 14 14 15 15 14 15 18 20 21 21 21 23 22 19 16 16 18 18 18 18 18 18 16 14 14 16 17
18 18 19 20 21 20 20 21 20 19 17 17 19 20 21 21 20 21 23 23 22 22 24 28 28 27 27 29 28 21 17 17 19 21 22 21 22 22 21 19 17 18 19
23 24 26 27 27 28 30 30 28 25 22 22 23 26 30 31 28 27 28 30 30 28 28 32 34 32 32 33 32 27 23 23 23 26 27 27 26 26 26 24 23 22 22
30 31 33 32 32 34 37 38 36 34 33 33 32 33 36 37 35 32 33 36 36 34 33 35 37 35 32 33 34 33 29 28 29 30 30 30 30 28 26 26 26 26 26
35 37 37 35 34 36 39 41 42 42 42 43 43 41 39 38 37 36 37 39 39 37 38 37 35 33 29 28 31 33 31 30 32 33 32 31 28 24 20 19 21 25 28
32 34 35 33 33 35 38 41 43 45 46 48 48 47 43 40 38 36 37 38 37 37 38 38 35 31 26 21 22 25 28 30 32 33 32 29 24 19 15 11 11 16 20
29 29 29 28 29 33 38 42 45 47 48 49 49 48 45 41 38 36 35 36 36 36 36 36 34 31 25 16 12 15 22 28 30 31 31 27 21 18 16 12 8 9 11
29 28 27 27 26 29 35 43 48 49 48 47 47 46 43 39 37 35 34 35 35 34 35 35 34 31 24 14 8 10 19 27 30 29 27 25 20 17 18 16 14 14 13
28 27 26 26 26 26 31 38 44 46 46 44 43 42 39 36 34 34 33 33 32 32 32 33 33 29 23 13 6 9 19 27 27 25 22 21 18 14 14 16 19 20 20
26 24 25 27 29 29 30 33 37 39 39 37 35 34 33 32 31 31 31 31 30 29 28 28 28 26 21 13 5 7 19 25 23 21 19 16 12 7 7 13 18 19 17
24 23 24 29 32 32 31 31 33 34 33 31 28 28 28 29 29 29 30 30 29 28 26 24 24 22 18 12 5 5 13 19 20 19 18 12 5 1 2 6 11 11 10
22 22 23 25 28 29 29 30 30 29 30 29 27 26 27 27 28 29 28 27 27 26 24 23 21 19 15 11 5 2 5 10 14 17 14 8 2 0 0 2 3 3 3
20 19 20 20 21 24 28 29 27 27 29 29 28 27 26 27 28 28 26 24 22 21 19 18 16 15 14 11 5 1 1 3 8 10 7 3 1 0 0 0 0 0 1
15 16 18 20 21 24 27 27 25 26 28 28 26 25 24 25 25 24 22 20 18 18 16 15 13 13 13 11 6 2 2 2 3 4 3 1 1 1 1 1 1 1 2
12 14 18 21 24 25 26 23 21 23 25 26 24 22 21 21 19 17 15 14 13 14 14 13 13 12 12 9 5 3 3 3 2 3 3 3 3 4 4 3 3 3 4
11 13 16 20 24 24 23 21 19 19 23 24 23 20 18 17 15 12 10 8 8 10 10 11 12 11 9 6 4 3 3 3 3 3 3 3 4 4 5 5 5 5 5

GEFSMW_con_probscp_246.txt.gz
Probability
15 16 16 18 25 33 36 29 22 23 22 15 10 11 12 11 10 10 11 9 7 6 5 5 6 4 2 1 0 0 0 0 1 2 2 2 2 3 6 7 7 8 10
19 20 20 21 25 34 37 31 25 25 24 17 11 11 12 11 11 13 14 12 10 8 6 7 7 7 5 4 3 2 1 1 1 1 2 2 2 3 3 4 6 7 8
27 26 25 24 26 32 36 33 31 29 26 21 15 12 13 13 14 17 19 18 14 11 8 8 9 9 9 9 8 6 4 3 2 2 2 1 2 3 2 2 4 7 8
31 31 30 28 29 32 36 39 39 35 30 24 19 14 13 13 14 17 21 21 19 15 12 10 9 9 9 10 10 9 7 4 3 3 3 3 4 5 4 2 3 5 6
33 35 36 35 35 37 42 46 47 43 36 29 23 19 15 14 15 16 19 22 21 19 17 15 13 11 9 8 10 11 10 6 4 5 6 6 7 8 7 5 3 3 3
35 38 42 43 42 43 46 50 53 51 43 34 28 25 22 20 19 19 20 22 23 22 21 21 21 19 13 11 12 14 13 11 9 10 10 10 11 11 11 8 6 3 2
34 38 44 47 46 46 46 49 56 55 48 41 35 32 30 26 24 23 24 23 22 23 24 27 29 25 18 15 16 18 17 16 15 15 15 16 15 15 15 13 11 8 5
29 35 44 48 47 46 44 47 55 57 52 47 43 39 36 30 28 29 27 24 20 20 26 33 33 27 20 17 19 21 19 19 19 18 20 22 20 19 19 17 17 14 11
25 31 40 46 46 44 43 47 55 58 54 50 49 46 42 37 36 36 32 27 24 24 30 36 34 27 21 20 21 23 22 22 23 22 24 25 24 23 23 22 21 20 18
21 29 37 41 40 39 41 47 55 60 56 52 50 48 46 44 41 39 37 34 32 33 37 39 37 31 27 26 26 27 27 28 29 28 27 27 26 26 26 23 23 23 22
22 30 37 38 36 36 40 46 54 60 59 55 51 49 48 46 42 39 38 38 38 41 43 44 42 37 35 35 36 35 34 36 36 33 29 27 27 26 24 22 22 24 25
26 32 37 39 39 39 42 47 53 58 57 55 53 50 49 46 44 41 40 39 42 45 48 48 47 42 40 43 45 41 39 40 40 37 34 31 29 28 25 22 22 24 26
34 36 40 43 43 45 48 49 52 54 53 53 52 51 48 48 47 46 43 43 46 50 51 51 50 46 44 46 47 45 42 42 41 40 38 34 32 33 30 26 25 25 25
42 44 47 48 49 53 55 54 51 51 51 51 53 53 52 51 51 49 47 47 50 52 53 53 52 49 46 44 45 45 44 43 42 42 39 34 32 33 32 29 27 26 25
45 47 49 52 54 57 60 58 54 52 54 55 56 58 57 55 53 51 49 50 51 51 51 52 52 49 43 38 39 42 42 43 43 43 40 34 30 30 28 24 22 23 24
41 43 46 50 54 57 58 57 55 54 57 59 60 60 60 56 52 50 50 51 50 49 48 48 47 43 36 30 29 34 38 41 43 43 40 33 28 26 22 15 12 14 16
37 39 43 46 50 53 52 50 50 51 54 57 60 60 58 55 52 52 52 52 50 47 44 42 40 37 32 24 19 23 33 41 43 41 37 30 25 24 21 14 10 11 12
35 39 42 43 44 46 46 44 42 43 47 52 55 57 55 53 54 54 53 52 49 46 41 37 36 35 31 23 14 16 28 39 42 39 33 27 23 22 22 20 17 16 16
36 38 39 38 39 42 44 41 38 37 42 47 50 51 50 49 52 52 50 49 48 45 39 36 35 35 31 21 11 13 25 35 37 34 28 22 20 19 19 22 23 20 19
34 34 33 34 38 43 46 44 40 38 40 44 47 47 46 45 46 46 44 43 44 43 39 36 35 35 30 18 8 9 21 28 29 26 22 18 15 12 12 18 21 19 17
30 29 29 32 38 43 47 47 44 41 41 44 46 47 46 43 40 40 40 39 39 40 39 37 34 32 27 16 5 5 14 20 20 18 16 13 8 4 4 9 13 13 12
28 28 29 33 39 44 47 48 46 43 43 44 44 44 45 43 40 39 38 38 38 38 37 34 30 27 23 15 5 2 6 11 13 13 10 7 3 0 0 2 4 5 5
28 28 30 34 39 44 47 48 47 46 44 43 42 42 43 43 42 40 37 37 38 37 35 31 27 25 22 16 9 3 2 3 7 8 6 2 0 0 0 0 0 1 1
28 29 32 34 38 41 44 46 47 46 45 43 42 42 42 41 42 41 36 33 34 34 33 31 26 23 21 17 11 7 3 3 3 4 3 1 0 0 1 1 2 2 2
29 31 33 35 36 38 40 40 43 44 44 45 43 41 39 38 39 37 31 25 24 25 25 25 23 20 17 13 10 8 6 5 3 3 4 3 2 2 2 3 3 3 4
28 30 33 34 36 38 37 37 39 41 43 44 43 38 35 37 38 34 24 17 14 14 14 16 17 17 14 10 7 6 7 5 3 3 5 6 4 4 3 3 3 3 4

GEFSMW_con_probscp_252.txt.gz
Probability
8 9 9 10 11 12 11 8 5 3 4 4 4 4 4 2 1 0 0 0 0 0 0 0 0 0 0 0 0 0 0 0 0 0 0 0 0 0 0 0 0 0 0
10 11 11 11 12 12 12 10 7 5 4 4 4 4 3 2 1 0 0 0 0 0 0 0 0 0 0 0 0 0 0 0 0 0 0 0 0 0 0 0 0 0 0
12 13 13 14 15 14 13 14 12 8 6 6 5 4 3 2 1 0 0 0 0 0 0 0 0 0 0 0 0 0 0 0 0 0 0 0 0 0 0 0 0 0 0
12 15 16 18 19 18 16 16 16 13 10 7 6 4 3 1 0 0 0 0 1 2 1 0 0 0 1 1 1 1 0 1 1 0 0 0 0 0 0 0 0 0 0
12 14 16 19 21 21 18 17 18 18 14 10 6 3 2 1 1 1 1 0 1 2 2 1 0 1 1 2 2 2 1 1 1 0 0 0 0 0 0 0 0 0 0
11 14 16 18 21 21 21 21 21 20 18 14 9 4 2 2 2 3 2 1 1 1 2 2 1 1 1 1 2 2 1 1 1 0 0 1 1 1 1 0 0 0 0
13 16 19 21 23 24 24 24 23 21 20 18 13 9 5 4 3 3 3 3 2 2 3 3 2 1 0 0 1 1 0 1 1 1 1 2 2 2 2 1 1 0 0
16 18 20 21 24 28 29 27 25 24 23 20 18 15 11 7 5 3 3 3 4 4 5 5 4 3 2 2 2 1 2 3 3 3 3 3 3 3 3 3 2 1 0
16 18 19 20 23 28 31 29 27 27 26 25 23 19 15 11 7 4 3 4 4 4 5 6 7 7 7 6 6 5 5 5 6 6 6 5 4 4 4 4 4 2 1
16 18 20 22 23 26 29 28 27 27 28 29 28 24 19 15 11 7 6 6 6 4 5 8 11 12 12 12 12 11 10 9 9 9 9 7 6 6 6 6 5 4 3
15 17 20 22 24 24 26 27 26 27 29 31 31 29 25 21 16 12 12 12 11 8 7 11 14 15 16 17 17 16 15 14 12 12 11 9 8 7 7 6 5 4 4
14 14 16 20 23 22 23 26 27 27 30 33 34 34 33 28 23 19 19 20 17 14 14 15 15 16 18 20 20 20 19 17 16 15 13 11 10 9 8 7 5 3 3
17 15 15 18 22 22 21 23 26 28 32 35 35 36 36 33 28 25 24 24 22 20 18 17 17 17 19 21 22 23 22 20 19 19 17 14 12 11 10 9 6 4 4
23 20 18 18 19 21 21 23 25 28 31 33 34 35 34 32 30 28 27 26 24 22 21 19 19 19 19 19 21 22 21 20 20 21 20 17 13 13 13 11 9 7 6
29 26 22 19 17 19 21 23 26 29 31 32 32 31 30 30 28 27 27 28 27 25 25 24 22 21 20 19 19 20 19 17 17 19 19 18 15 14 14 12 10 8 6
30 29 26 22 19 18 20 23 26 28 29 30 30 28 27 26 24 22 22 25 26 27 29 30 28 26 23 20 18 19 18 17 16 16 16 15 14 13 12 11 9 8 6
29 29 28 25 21 18 20 21 23 24 26 28 28 27 25 22 20 19 19 20 23 26 30 32 32 29 25 20 16 15 15 15 15 14 13 12 12 11 10 9 9 8 7
29 28 27 24 20 17 17 19 20 22 23 25 27 27 24 21 20 20 20 19 21 24 27 28 28 26 22 16 11 9 10 11 12 12 11 11 12 10 8 8 8 7 6
28 27 24 19 16 14 15 17 18 19 20 23 24 23 21 20 21 20 20 20 21 24 23 22 21 19 16 12 7 6 7 8 8 8 8 9 9 7 5 6 6 5 4
25 24 21 17 14 14 14 15 15 15 18 20 21 19 17 17 18 19 19 20 21 21 20 17 16 14 12 9 5 4 8 9 8 7 7 6 4 2 2 3 4 3 3
21 23 21 17 15 15 15 14 13 13 16 19 19 18 17 16 16 17 18 19 19 17 15 15 14 12 11 8 4 3 7 10 10 9 8 5 2 0 1 2 2 2 1
19 22 22 18 16 16 16 15 14 13 15 18 19 18 17 15 15 16 16 17 16 15 14 14 14 13 12 8 4 2 4 7 9 9 7 5 2 0 0 1 1 1 0
17 19 20 18 17 16 16 16 15 15 16 18 17 16 14 14 16 17 16 15 15 14 14 14 14 13 12 8 4 1 1 2 4 4 3 2 1 0 0 0 0 0 0
13 14 16 17 17 16 15 14 14 15 16 16 14 13 12 13 15 16 14 13 13 13 13 14 13 11 10 7 4 3 2 1 1 1 1 1 0 0 0 0 0 0 0
8 9 13 16 17 15 13 12 11 12 13 12 11 11 11 11 11 11 11 10 10 9 10 11 10 8 8 6 4 3 3 2 2 2 2 1 1 1 0 0 0 0 0
5 7 11 14 16 15 12 9 9 10 11 10 9 9 8 8 8 8 8 8 8 7 6 6 6 6 5 4 2 2 2 2 2 2 2 2 2 2 1 0 0 0 0

GEFSMW_con_probscp_258.txt.gz
Probability
2 3 4 4 4 4 4 3 3 3 3 3 3 2 1 0 0 0 0 0 0 0 0 0 0 0 0 0 0 0 0 0 0 0 0 0 0 0 0 0 0 0 1
1 1 2 2 3 4 4 3 3 3 3 3 3 2 0 0 0 0 0 0 0 0 0 0 0 0 0 0 0 0 0 0 0 0 0 0 0 0 0 0 0 0 1
1 0 0 0 1 3 5 4 3 3 3 3 3 2 0 0 0 0 0 0 0 0 0 0 0 0 0 0 0 0 0 0 0 0 0 0 0 0 0 0 0 0 1
2 1 0 0 0 2 4 5 4 3 2 2 2 1 0 0 0 0 0 0 0 0 0 0 0 0 0 0 0 0 0 0 1 1 1 0 0 0 0 0 0 0 0
3 2 2 2 2 3 4 5 4 2 1 1 1 0 0 0 0 0 0 0 0 0 0 0 0 0 0 0 0 0 0 1 2 2 2 1 0 0 0 0 0 0 0
4 3 3 3 5 6 6 6 4 2 0 0 0 0 0 0 0 0 0 0 0 0 0 0 0 0 0 0 0 0 0 1 2 2 2 1 0 0 0 0 0 0 0
3 2 3 4 6 8 9 9 8 4 2 1 1 1 0 0 1 1 1 0 0 0 0 0 0 0 0 0 0 0 0 0 1 1 1 1 1 1 2 1 1 1 0
2 1 2 3 6 9 11 11 11 9 6 4 4 3 3 3 4 4 3 1 0 0 0 0 0 0 0 0 1 2 2 1 1 1 1 1 2 4 5 5 4 2 1
2 1 1 2 5 8 9 10 11 11 11 9 7 7 7 9 9 8 7 5 3 1 1 1 1 1 1 1 2 3 4 4 4 5 4 4 5 7 8 8 6 4 2
2 1 0 1 3 5 6 8 10 11 11 11 9 7 9 11 12 12 11 10 7 4 3 4 4 4 3 3 3 3 4 6 7 8 8 7 8 10 10 10 8 6 5
3 1 1 2 4 5 5 8 10 9 10 11 9 8 9 11 13 14 15 14 11 8 6 6 7 8 7 7 7 6 6 7 9 11 12 11 11 12 12 12 11 10 9
4 3 3 5 7 7 7 10 11 10 10 11 11 10 12 14 14 15 16 14 11 9 8 8 10 9 9 10 11 11 11 10 10 11 13 15 15 13 12 12 12 11 10
6 5 5 6 8 9 10 11 11 10 11 13 14 14 15 18 18 17 16 14 11 10 9 10 10 10 9 11 13 15 15 14 11 10 12 14 15 14 12 11 10 9 8
6 6 5 6 8 10 11 11 9 10 12 14 17 18 19 21 21 20 18 15 12 10 9 9 10 10 10 11 13 15 16 16 14 12 13 13 14 14 13 11 9 7 6
7 7 6 7 9 11 12 10 8 9 12 15 17 19 21 22 21 19 17 15 13 10 8 8 9 11 11 11 12 14 15 16 15 13 13 13 12 13 13 11 9 7 6
8 8 8 9 10 11 10 9 9 10 13 15 17 18 20 21 19 15 13 12 11 10 8 7 9 11 12 11 10 12 13 13 12 10 11 11 11 11 11 10 7 5 5
9 9 9 8 8 7 8 9 9 11 14 17 18 20 21 21 18 13 10 9 10 9 8 9 10 11 11 8 7 9 11 11 9 8 8 9 9 10 10 8 5 4 4
12 11 9 5 3 3 5 8 10 12 16 19 20 20 21 21 18 13 9 8 9 9 9 11 11 9 8 6 4 4 7 9 8 8 8 8 9 9 8 7 5 5 5
14 12 10 7 4 4 6 9 11 13 16 19 19 18 18 18 16 13 12 11 11 11 11 11 10 8 6 5 2 2 4 8 9 9 8 8 7 6 5 6 7 7 7
12 12 12 11 9 8 9 11 13 13 14 16 16 14 12 12 12 12 13 14 14 13 12 11 9 8 7 5 3 1 4 8 11 11 10 7 4 3 2 4 7 8 8
11 12 13 13 11 11 12 12 12 11 11 12 13 11 9 7 8 10 12 14 15 15 13 11 9 9 9 8 5 2 3 7 11 12 11 7 3 1 0 2 4 5 5
10 11 12 12 10 11 12 12 10 10 10 10 10 9 8 6 6 8 10 12 15 16 14 12 11 10 10 9 6 2 2 4 8 10 10 7 2 0 0 1 2 2 1
7 8 10 10 9 10 12 12 9 8 9 9 8 7 6 6 5 6 7 10 12 14 13 12 11 10 9 8 6 3 1 2 4 6 6 4 1 0 0 0 0 0 0
5 6 9 10 8 8 10 10 9 8 8 8 7 5 4 4 4 4 5 6 9 11 11 11 9 7 6 6 5 3 2 1 1 2 2 2 0 0 0 0 0 0 0
2 3 5 7 6 6 7 8 8 8 7 7 5 4 3 3 3 3 3 3 5 7 9 8 6 4 3 3 2 2 2 2 1 1 1 1 1 0 1 1 1 0 0
0 0 1 3 4 5 6 6 6 6 7 6 4 2 3 3 3 3 2 1 2 5 6 6 4 4 3 1 1 1 1 1 1 1 2 2 2 1 2 2 2 1 0

GEFSMW_con_probscp_264.txt.gz
Probability
0 0 0 1 2 4 6 7 7 7 6 5 4 3 3 5 7 10 11 10 9 9 8 7 7 7 7 6 4 3 3 1 0 0 1 2 1 0 0 1 1 1 0
0 1 1 1 2 3 5 5 5 5 6 5 4 3 3 4 6 9 9 8 8 8 7 7 6 7 7 6 5 4 3 2 0 0 1 2 2 1 1 2 2 1 1
2 3 3 2 2 3 4 4 4 5 6 6 4 3 3 3 4 6 6 6 7 7 7 6 6 6 6 6 6 5 4 2 1 1 1 2 3 3 2 2 2 2 2
5 5 5 5 4 4 5 7 8 8 9 8 6 4 3 3 3 3 4 5 6 6 5 5 7 7 7 7 7 6 5 4 3 3 3 4 5 3 2 1 1 2 3
6 6 7 8 7 7 7 10 12 12 13 11 8 5 4 3 3 2 2 3 5 6 5 6 8 10 9 9 9 10 9 7 5 5 6 6 5 3 2 1 1 2 2
7 7 8 7 8 8 9 12 14 14 15 12 8 6 4 3 1 1 1 2 5 7 7 8 10 11 10 11 13 15 14 11 9 9 8 7 5 3 3 2 2 3 3
10 10 10 9 7 7 9 13 16 17 17 14 10 7 6 4 2 0 1 2 4 8 10 12 13 13 12 14 17 17 15 15 15 13 11 9 7 6 5 6 7 7 5
12 12 12 12 11 9 9 13 18 20 20 19 16 13 11 8 5 3 3 3 5 7 10 13 16 17 17 18 20 18 17 19 18 15 15 13 11 10 10 12 14 11 7
13 11 9 9 12 12 11 14 19 22 23 23 21 19 18 15 12 10 8 7 8 8 9 13 17 19 21 22 22 21 21 24 22 19 19 17 14 14 15 17 19 16 11
11 8 4 4 8 12 14 17 20 22 24 24 21 20 21 22 20 18 16 15 15 13 12 14 17 19 22 25 25 23 22 25 26 24 22 21 18 18 19 20 21 19 16
8 6 3 3 6 10 15 20 22 23 23 23 22 21 22 24 24 22 22 23 24 23 20 18 20 21 24 27 27 23 21 24 25 24 23 22 21 20 21 22 22 20 18
7 6 5 5 8 12 17 20 22 22 22 24 27 27 25 24 24 25 26 27 29 29 25 23 23 24 26 28 29 26 25 26 25 23 23 22 22 23 24 23 22 21 19
10 9 8 9 11 15 19 20 19 19 21 25 29 30 28 27 27 28 28 29 31 31 28 26 26 26 27 30 31 31 32 31 29 28 27 25 24 25 26 26 24 23 23
13 13 12 12 15 19 21 20 18 20 23 25 26 27 28 27 27 29 30 31 33 32 29 29 29 29 28 29 31 33 34 33 32 33 33 30 27 26 26 27 27 26 26
16 16 16 17 19 23 24 23 22 25 28 26 24 24 25 25 26 29 31 33 34 32 30 31 31 30 27 24 24 27 29 31 31 33 34 31 27 25 22 20 22 24 25
18 19 21 23 26 29 29 28 28 30 32 29 25 23 22 23 26 30 32 34 35 32 30 31 30 26 22 18 16 18 22 25 27 30 32 30 25 21 16 12 11 15 17
21 22 24 26 31 34 34 32 31 33 33 32 29 24 22 23 27 30 32 34 34 32 30 28 26 23 18 12 10 12 15 18 21 25 27 26 22 18 15 10 8 9 10
23 24 24 26 31 35 34 32 32 35 35 34 32 28 26 26 28 30 31 32 31 31 29 25 23 21 16 9 5 7 11 14 16 20 21 20 18 16 14 13 12 12 14
24 26 26 26 29 31 31 30 32 35 36 35 34 31 30 30 29 29 30 30 29 27 26 23 21 19 14 8 4 5 11 14 16 17 17 15 13 11 10 13 16 17 18
27 28 28 28 29 28 27 27 29 31 32 32 31 31 31 31 30 31 31 30 27 25 23 20 18 16 14 9 4 5 12 15 15 16 15 13 10 6 6 10 15 17 17
27 27 28 29 29 27 26 27 29 30 29 28 27 27 29 30 30 31 31 29 26 24 22 19 16 14 13 10 5 5 10 13 13 14 14 11 7 3 2 6 11 12 12
26 26 28 30 28 27 27 29 31 32 30 28 26 25 26 27 28 29 28 25 23 21 20 19 17 15 12 9 6 3 5 8 11 12 10 7 3 1 1 3 5 6 6
22 23 25 28 27 26 27 29 30 31 31 29 28 26 25 25 26 25 22 20 18 17 16 16 16 15 13 10 6 3 2 5 9 10 7 3 1 0 1 1 1 3 5
20 20 22 25 25 25 25 26 26 27 26 26 27 26 24 24 25 22 18 15 14 13 13 13 14 14 14 11 7 5 4 4 6 7 5 3 2 2 2 1 2 4 7
20 20 22 24 23 23 23 21 21 21 20 19 19 21 21 21 21 17 14 11 9 8 8 10 11 13 12 9 5 4 4 4 4 5 5 5 5 5 4 4 5 7 7
20 22 24 24 21 21 21 19 18 18 16 13 13 16 18 19 17 14 11 6 4 3 4 7 9 11 10 6 3 1 2 2 2 3 5 6 6 7 7 7 8 9 9

GEFSMW_con_probscp_270.txt.gz
Probability
16 15 16 20 26 28 25 17 13 11 9 6 5 6 7 7 8 10 12 12 10 9 11 11 10 9 9 9 8 10 11 9 6 3 1 0 0 0 0 0 1 2 4
23 24 23 24 27 28 24 20 16 14 10 5 3 5 7 8 8 10 11 11 10 9 10 11 10 9 9 10 11 12 11 9 7 6 3 1 0 0 0 1 3 5 5
32 32 31 30 30 28 25 23 22 18 13 7 3 3 6 8 9 10 11 11 9 9 10 11 10 9 10 11 13 14 14 13 12 11 8 5 2 1 2 3 5 6 7
35 34 33 32 30 28 26 27 26 22 17 12 5 4 6 8 10 12 13 11 10 11 13 13 12 12 13 13 13 15 18 18 16 15 14 11 7 4 4 5 5 7 9
35 35 33 30 29 28 27 28 28 26 23 19 12 8 9 11 13 14 14 13 13 15 16 16 17 18 18 17 17 17 20 20 19 18 17 15 12 8 5 4 4 7 9
36 36 33 30 28 27 27 27 27 27 26 24 20 14 13 14 15 15 14 12 13 17 19 19 20 23 24 23 22 20 21 21 20 18 15 13 11 8 4 2 4 5 6
33 34 34 31 26 26 28 29 29 27 25 25 24 20 17 16 15 16 14 11 11 16 21 23 25 27 29 28 25 23 23 24 23 18 14 11 9 7 4 3 4 4 3
30 33 34 31 26 25 29 33 35 31 26 25 26 26 25 19 16 17 17 14 14 16 22 27 30 32 32 30 28 26 25 27 25 20 16 14 11 9 9 9 8 7 6
31 33 33 30 26 26 31 35 37 36 30 28 29 31 30 25 19 18 18 16 18 20 23 29 32 33 32 32 32 30 28 28 28 24 21 18 16 14 15 17 16 13 12
30 30 28 25 23 23 26 30 35 37 35 33 32 32 32 30 26 22 20 21 22 24 27 30 32 32 31 32 34 35 33 32 31 28 26 23 23 21 20 22 22 20 19
28 27 24 20 17 17 20 24 29 34 36 37 37 35 35 36 34 30 28 28 27 28 31 34 34 32 30 31 34 35 34 33 33 32 30 28 28 27 25 25 25 24 24
27 27 23 18 15 17 20 23 27 30 34 38 39 38 38 39 37 35 34 32 30 31 33 35 35 32 30 30 32 31 30 30 31 33 32 30 30 32 31 30 27 25 25
30 30 27 24 24 25 26 27 28 29 32 36 38 38 38 38 37 35 35 33 32 32 34 36 35 32 30 31 31 29 27 27 29 32 32 30 31 33 34 32 29 26 23
35 35 35 36 37 36 34 33 31 31 33 35 36 36 36 36 35 34 34 33 33 33 35 37 35 32 30 29 29 29 26 26 26 28 29 29 29 30 28 28 28 27 25
37 37 39 42 45 44 41 37 35 34 36 36 35 35 35 34 34 34 35 35 34 34 36 37 35 33 29 25 24 25 24 24 25 26 26 26 25 22 19 21 23 25 26
37 36 36 40 44 47 46 44 40 38 39 39 38 36 35 36 36 37 38 37 36 36 37 37 35 33 28 22 19 19 21 23 24 25 24 21 18 16 15 14 14 17 19
36 36 36 38 41 45 48 48 44 41 42 42 41 41 40 39 39 39 40 40 38 39 38 37 35 33 26 18 13 15 19 21 23 24 23 19 15 14 15 13 11 10 10
33 34 37 39 41 43 45 46 44 44 44 44 44 45 45 43 40 38 39 41 40 39 38 37 35 32 24 13 8 10 16 20 21 22 21 19 14 12 12 14 13 10 9
31 33 36 38 41 42 42 42 43 45 45 45 46 47 47 46 42 39 38 39 39 38 37 36 36 32 23 11 5 6 12 18 20 20 19 17 12 8 7 10 12 11 10
33 34 36 39 42 42 42 42 44 46 46 47 47 47 48 46 44 42 41 39 37 35 34 34 35 32 22 10 3 5 11 16 18 20 18 14 8 3 3 6 9 9 7
34 35 37 41 43 43 44 44 45 45 46 49 49 48 47 45 45 45 45 42 38 34 32 31 31 30 24 12 3 3 9 14 18 20 19 12 5 1 1 3 6 5 4
34 34 36 40 43 44 44 45 45 44 45 47 49 48 45 42 41 43 43 40 37 34 31 28 28 27 25 16 5 2 5 11 16 18 15 9 3 0 0 1 2 2 2
31 29 30 34 39 41 42 43 42 41 41 41 44 43 40 36 35 35 33 31 31 31 29 28 26 24 25 21 10 3 2 6 11 11 8 4 1 0 0 0 0 1 1
29 27 26 29 34 37 37 37 37 36 34 33 35 34 32 30 28 25 21 20 21 23 24 25 25 24 23 20 12 6 5 5 6 5 3 2 2 2 2 1 1 2 2
28 26 25 27 29 31 31 30 30 31 30 28 28 27 25 23 20 16 12 11 12 12 14 17 20 19 15 11 7 7 8 6 4 3 3 4 4 5 5 5 5 5 5
27 26 26 26 26 26 27 26 26 29 30 28 25 23 21 19 15 12 8 5 5 5 6 9 12 12 8 4 2 4 5 4 3 2 3 4 5 6 7 9 9 8 7

GEFSMW_con_probscp_276.txt.gz
Probability
13 14 14 12 11 9 4 1 0 0 0 0 0 1 2 2 2 4 5 5 4 2 1 0 0 0 0 0 0 0 0 0 0 0 0 0 0 0 0 0 0 0 0
12 15 16 14 13 11 6 2 1 0 0 0 1 1 1 1 2 4 4 4 3 2 1 0 0 0 0 0 0 0 0 0 0 0 0 0 0 0 0 0 0 0 0
14 17 18 17 17 14 9 5 2 2 1 1 2 2 1 0 1 2 3 2 2 1 0 0 0 0 0 0 0 0 0 0 0 0 0 0 0 0 0 0 0 0 0
17 18 19 19 19 17 13 9 5 4 3 3 3 3 1 0 0 1 1 1 1 1 1 1 0 0 0 0 0 0 0 0 0 0 0 0 0 0 0 0 0 0 0
18 19 21 22 21 19 18 13 9 8 7 6 4 2 1 0 0 0 0 0 1 2 2 2 1 1 1 2 1 0 0 0 0 0 0 0 0 0 0 0 0 0 0
17 19 22 25 24 22 20 16 13 12 12 11 7 2 0 0 0 1 0 0 1 3 3 3 3 3 4 5 4 2 0 0 0 1 2 1 0 0 0 0 0 0 0
17 19 23 27 28 26 22 18 15 14 13 13 10 4 1 0 0 0 0 1 2 3 4 5 4 5 6 6 5 3 2 0 0 1 3 2 0 0 0 0 0 0 0
19 19 22 25 27 28 25 20 16 12 10 11 10 7 3 1 0 0 1 2 2 3 5 6 6 5 6 5 4 4 4 2 1 1 3 2 1 1 1 0 0 0 0
20 19 19 19 21 25 26 21 17 13 10 9 9 8 5 2 1 1 2 4 4 4 5 7 6 5 5 5 4 4 5 4 3 3 2 2 1 2 1 1 1 1 0
20 18 16 16 18 22 23 21 18 16 13 12 11 9 7 5 4 4 5 7 7 6 6 7 7 6 6 6 6 5 6 6 6 5 4 3 2 2 2 2 2 3 2
16 14 13 16 18 19 20 20 18 16 15 14 13 11 10 9 8 8 9 9 9 9 9 9 9 10 10 9 9 9 7 6 7 6 4 3 3 2 2 2 4 5 5
12 11 13 16 16 16 18 19 19 16 15 15 14 13 13 13 12 10 11 11 12 13 14 13 13 13 13 12 12 10 8 7 8 7 6 5 4 4 4 4 5 6 6
11 12 15 16 15 14 16 18 19 17 16 16 16 15 16 16 14 11 12 13 15 16 17 17 17 16 14 14 13 11 11 10 10 10 8 7 7 6 5 6 6 5 5
15 15 16 16 16 15 16 17 18 19 18 18 19 19 18 17 16 15 15 16 17 18 19 20 19 16 14 14 14 13 12 11 11 10 10 10 9 8 7 6 5 5 5
19 18 16 17 18 18 17 16 17 18 18 18 20 20 18 17 18 19 19 19 20 20 20 19 18 14 12 12 13 12 11 11 11 10 10 12 11 9 6 5 5 6 6
21 19 18 19 20 21 21 18 17 17 18 19 19 18 16 16 18 19 20 21 22 21 20 19 17 14 11 10 9 9 9 11 13 12 12 12 11 8 6 5 5 6 6
21 21 21 22 22 22 22 21 19 19 20 20 20 18 16 15 16 17 18 20 21 20 19 19 17 15 13 11 9 9 10 12 13 13 12 11 9 8 7 5 4 5 6
21 21 22 22 22 21 21 22 22 23 24 24 22 20 18 16 15 14 15 17 19 18 17 17 16 15 13 12 10 10 11 12 12 12 10 9 8 7 7 6 4 3 3
19 20 21 22 21 20 21 22 22 23 25 25 22 20 20 19 17 15 14 15 17 17 15 14 14 14 12 10 9 9 11 12 11 9 8 7 7 6 5 5 3 1 1
18 19 20 22 22 21 21 21 20 21 23 22 20 19 20 22 21 17 14 14 16 16 15 14 14 13 11 8 5 5 9 10 9 7 7 7 6 5 3 3 2 1 0
18 19 21 23 24 23 22 20 18 19 20 21 21 19 20 21 21 17 14 14 15 15 14 13 11 9 8 5 2 2 5 7 7 7 6 6 6 4 2 3 3 2 1
17 18 20 23 24 24 23 20 18 17 19 21 21 20 18 18 17 15 13 13 14 14 12 8 5 4 3 2 0 0 1 3 4 5 6 6 5 3 1 1 2 1 0
15 17 20 22 23 22 22 19 17 15 16 17 19 19 18 16 13 11 11 11 11 11 9 5 1 1 1 0 0 0 0 0 2 3 4 5 4 2 0 0 1 1 0
15 15 17 18 19 19 18 16 13 11 12 13 14 16 16 14 11 8 7 7 8 8 7 4 2 1 1 0 0 0 0 0 1 2 3 2 1 1 0 0 0 1 1
12 12 12 13 14 15 15 12 9 9 10 11 12 14 14 13 10 6 4 3 3 4 4 3 2 2 1 0 0 0 0 0 1 2 2 2 1 1 2 1 0 1 1
9 9 10 11 11 11 11 9 6 8 10 11 12 14 14 13 10 7 4 2 1 1 1 1 2 2 1 0 0 0 0 0 1 1 2 2 2 2 3 2 1 0 1